[[{"header":{"parameterUnit":"m.s-1","parameterCategory":1,"la1":31.0,"la2":29.5877,"lo1":-88.7671,"lo2":-86.6584,"dy":0.0162,"dx":0.0185,"nx":115,"ny":88,"refTime":"2023-10-14T18:00:00:Z","depth":0,"parameterNumber":2,"parameterNumberName":"U-component_of_WINDS"},"data":[0.0,0.0,0.0,0.0,0.0,0.0,0.0,0.0,0.0,0.0,0.0,0.0,0.0,0.0,0.0,0.0,0.0,0.0,0.0,0.0,0.0,0.0,0.0,0.0,0.0,0.0,0.0,0.0,0.0,0.0,0.0,0.0,0.0,0.0,0.0,0.0,0.0,0.0,0.0,0.0,0.0,0.0,0.0,0.0,0.0,0.0,0.0,0.0,0.0,0.0,0.0,0.0,0.0,0.0,0.0,0.0,0.0,0.0,0.0,0.0,0.0,0.0,0.0,0.0,0.0,0.0,0.0,0.0,0.0,0.0,0.0,0.0,0.0,0.0,0.0,0.0,0.0,0.0,0.0,0.0,0.0,0.0,0.0,0.0,0.0,0.0,0.0,0.0,0.0,0.0,0.0,0.0,0.0,0.0,0.0,0.0,0.0,0.0,0.0,0.0,0.0,0.0,0.0,0.0,0.0,0.0,0.0,0.0,0.0,0.0,0.0,0.0,0.0,0.0,0.0,0.0,0.0,0.0,0.0,0.0,0.0,0.0,0.0,0.0,0.0,0.0,0.0,0.0,0.0,0.0,0.0,0.0,0.0,0.0,0.0,0.0,0.0,0.0,0.0,0.0,0.0,0.0,0.0,0.0,0.0,0.0,0.0,0.0,0.0,0.0,0.0,0.0,0.0,0.0,0.0,0.0,0.0,0.0,0.0,0.0,0.0,0.0,0.0,0.0,0.0,0.0,0.0,0.0,0.0,0.0,0.0,0.0,0.0,0.0,0.0,0.0,0.0,0.0,0.0,0.0,0.0,0.0,0.0,0.0,0.0,0.0,0.0,0.0,0.0,0.0,0.0,0.0,0.0,0.0,0.0,0.0,0.0,0.0,0.0,0.0,0.0,0.0,0.0,0.0,0.0,0.0,0.0,0.0,0.0,0.0,0.0,0.0,0.0,0.0,0.0,0.0,0.0,0.0,0.0,0.0,0.0,0.0,0.0,0.0,0.0,0.0,0.0,0.0,0.0,0.0,0.0,0.0,0.0,0.0,0.0,0.0,0.0,0.0,0.0,0.0,0.0,0.0,0.0,0.0,0.0,0.0,0.0,0.0,0.0,0.0,0.0,0.0,0.0,0.0,0.0,0.0,0.0,0.0,0.0,0.0,0.0,0.0,0.0,0.0,0.0,0.0,0.0,0.0,0.0,0.0,0.0,0.0,0.0,0.0,0.0,0.0,0.0,0.0,0.0,0.0,0.0,0.0,0.0,0.0,0.0,0.0,0.0,0.0,0.0,0.0,0.0,0.0,0.0,0.0,0.0,0.0,0.0,0.0,0.0,0.0,0.0,0.0,0.0,0.0,0.0,0.0,0.0,0.0,0.0,0.0,0.0,0.0,0.0,0.0,0.0,0.0,0.0,0.0,0.0,0.0,0.0,0.0,0.0,0.0,0.0,0.0,0.0,0.0,0.0,0.0,0.0,0.0,0.0,0.0,0.0,0.0,0.0,0.0,0.0,0.0,0.0,0.0,0.0,0.0,0.0,0.0,0.0,0.0,0.0,0.0,0.0,0.0,0.0,0.0,0.0,0.0,0.0,0.0,0.0,0.0,0.0,0.0,0.0,0.0,0.0,0.0,0.0,0.0,0.0,0.0,0.0,0.0,0.0,0.0,0.0,0.0,0.0,0.0,0.0,0.0,0.0,0.0,0.0,0.0,0.0,0.0,0.0,0.0,0.0,0.0,0.0,0.0,0.0,0.0,0.0,0.0,0.0,0.0,0.0,0.0,0.0,0.0,0.0,0.0,0.0,0.0,0.0,0.0,0.0,0.0,0.0,0.0,0.0,0.0,0.0,0.0,0.0,0.0,0.0,0.0,0.0,0.0,0.0,0.0,0.0,0.0,0.0,0.0,0.0,0.0,0.0,0.0,0.0,0.0,0.0,0.0,0.0,0.0,0.0,0.0,0.0,0.0,0.0,0.0,0.0,0.0,0.0,0.0,0.0,0.0,0.0,0.0,0.0,0.0,0.0,0.0,0.0,0.0,0.0,0.0,0.0,0.0,0.0,0.0,0.0,0.0,0.0,0.0,0.0,0.0,0.0,0.0,0.0,0.0,0.0,0.0,0.0,0.0,0.0,0.0,0.0,0.0,0.0,0.0,0.0,0.0,0.0,0.0,0.0,0.0,0.0,0.0,0.0,0.0,0.0,0.0,0.0,0.0,0.0,0.0,0.0,0.0,0.0,0.0,0.0,0.0,0.0,0.0,0.0,0.0,0.0,0.0,0.0,0.0,0.0,0.0,0.0,0.0,0.0,0.0,0.0,0.0,0.0,0.0,0.0,0.0,0.0,0.0,0.0,0.0,0.0,0.0,0.0,0.0,0.0,0.0,0.0,0.0,0.0,0.0,0.0,0.0,0.0,0.0,0.0,0.0,0.0,0.0,0.0,0.0,0.0,0.0,0.0,0.0,0.0,0.0,0.0,0.0,0.0,0.0,0.0,0.0,0.0,0.0,0.0,0.0,0.0,0.0,0.0,0.0,0.0,0.0,0.0,0.0,0.0,0.0,0.0,0.0,0.0,0.0,0.0,0.0,0.0,0.0,0.0,0.0,0.0,0.0,0.0,0.0,0.0,0.0,0.0,0.0,0.0,0.0,0.0,0.0,0.0,0.0,0.0,0.0,0.0,0.0,0.0,0.0,0.0,0.0,0.0,0.0,0.0,0.0,0.0,0.0,0.0,0.0,0.0,0.0,0.0,0.0,0.0,0.0,0.0,0.0,0.0,0.0,0.0,0.0,0.0,0.0,0.0,0.0,0.0,0.0,0.0,0.0,0.0,0.0,0.0,0.0,0.0,0.0,0.0,0.0,0.0,0.0,0.0,0.0,0.0,0.0,0.0,0.0,0.0,0.0,0.0,0.0,0.0,0.0,0.0,0.0,0.0,0.0,0.0,0.0,0.0,0.0,0.0,0.0,0.0,0.0,0.0,0.0,0.0,0.0,0.0,0.0,0.0,0.0,0.0,0.0,0.0,0.0,0.0,0.0,0.0,0.0,0.0,0.0,0.0,0.0,0.0,0.0,0.0,0.0,0.0,0.0,0.0,0.0,0.0,0.0,0.0,0.0,0.0,0.0,0.0,0.0,0.0,0.0,0.0,0.0,0.0,0.0,0.0,0.0,0.0,0.0,0.0,0.0,0.0,0.0,0.0,0.0,0.0,0.0,0.0,0.0,0.0,0.0,0.0,0.0,0.0,0.0,0.0,0.0,0.0,0.0,0.0,0.0,0.0,0.0,0.0,0.0,0.0,0.0,0.0,0.0,0.0,0.0,0.0,0.0,0.0,0.0,0.0,0.0,0.0,0.0,0.0,0.0,0.0,0.0,0.0,0.0,0.0,0.0,0.0,0.0,0.0,0.0,0.0,0.0,0.0,0.0,0.0,0.0,0.0,0.0,0.0,0.0,0.0,0.0,0.0,0.0,0.0,0.0,0.0,0.0,0.0,0.0,0.0,0.0,0.0,0.0,0.0,0.0,0.0,0.0,0.0,0.0,0.0,0.0,0.0,0.0,0.0,0.0,0.0,0.0,0.0,0.0,0.0,0.0,0.0,0.0,0.0,0.0,0.0,0.0,0.0,0.0,0.0,0.0,0.0,0.0,0.0,0.0,0.0,0.0,0.0,0.0,0.0,0.0,0.0,0.0,0.0,0.0,0.0,0.0,0.0,0.0,0.0,0.0,0.0,0.0,0.0,0.0,0.0,0.0,0.0,0.0,0.0,0.0,0.0,0.0,0.0,0.0,0.0,0.0,0.0,0.0,0.0,0.0,0.0,0.0,0.0,0.0,0.0,0.0,0.0,0.0,0.0,0.0,0.0,0.0,0.0,0.0,0.0,0.0,0.0,0.0,0.0,0.0,0.0,0.0,0.0,0.0,0.0,0.0,0.0,0.0,0.0,0.0,0.0,0.0,0.0,0.0,0.0,0.0,0.0,0.0,0.0,0.0,0.0,0.0,0.0,0.0,0.0,0.0,0.0,0.0,0.0,0.0,0.0,0.0,0.0,0.0,0.0,0.0,0.0,0.0,0.0,0.0,0.0,0.0,0.0,0.0,0.0,0.0,0.0,0.0,0.0,0.0,0.0,0.0,0.0,0.0,0.0,0.0,0.0,0.0,0.0,0.0,0.0,0.0,0.0,0.0,0.0,0.0,0.0,0.0,0.0,0.0,0.0,0.0,0.0,0.0,0.0,0.0,0.0,0.0,0.0,0.0,0.0,0.0,0.0,0.0,0.0,0.0,2.1418,0.0,0.0,0.0,0.0,0.0,0.0,0.0,0.0,0.0,0.0,0.0,0.0,0.0,0.0,0.0,0.0,0.0,0.0,0.0,0.0,0.0,0.0,0.0,0.0,0.0,0.0,0.0,0.0,0.0,0.0,0.0,0.0,0.0,0.0,0.0,0.0,0.0,0.0,0.0,0.0,0.0,0.0,0.0,0.0,0.0,0.0,0.0,0.0,0.0,0.0,0.0,0.0,0.0,0.0,0.0,0.0,0.0,0.0,0.0,0.0,0.0,0.0,0.0,0.0,0.0,0.0,0.0,0.0,0.0,0.0,0.0,0.0,0.0,0.0,0.0,0.0,0.0,0.0,0.0,0.0,0.0,0.0,0.0,0.0,0.0,0.0,0.0,0.0,0.0,0.0,0.0,0.0,0.0,0.0,0.0,0.0,0.0,0.0,0.0,0.0,0.0,0.0,0.0,0.0,0.0,0.0,0.0,0.0,0.0,0.0,2.3728,2.315,2.2849,2.2297,2.1518,0.0,0.0,0.0,0.0,0.0,0.0,0.0,0.0,0.0,0.0,0.0,0.0,0.0,0.0,0.0,0.0,0.0,0.0,0.0,0.0,0.0,0.0,0.0,0.0,0.0,0.0,0.0,0.0,0.0,0.0,0.0,0.0,0.0,0.0,0.0,0.0,0.0,0.0,0.0,0.0,0.0,0.0,0.0,0.0,0.0,0.0,0.0,0.0,0.0,0.0,0.0,0.0,0.0,0.0,0.0,0.0,0.0,0.0,0.0,0.0,0.0,0.0,0.0,0.0,0.0,0.0,0.0,0.0,0.0,0.0,0.0,0.0,0.0,0.0,0.0,0.0,0.0,0.0,0.0,0.0,0.0,0.0,0.0,0.0,0.0,0.0,0.0,0.0,0.0,0.0,0.0,0.0,0.0,0.0,0.0,0.0,0.0,0.0,0.0,0.0,0.0,0.0,0.0,0.0,0.0,0.0,0.0,0.0,0.0,0.0,0.0,0.0,2.3175,2.2498,2.1694,0.0,0.0,0.0,0.0,0.0,0.0,0.0,0.0,0.0,0.0,0.0,0.0,0.0,0.0,0.0,0.0,0.0,0.0,0.0,0.0,0.0,0.0,0.0,0.0,0.0,0.0,0.0,0.0,0.0,0.0,0.0,0.0,0.0,0.0,0.0,0.0,0.0,0.0,0.0,0.0,0.0,0.0,0.0,0.0,0.0,0.0,0.0,0.0,0.0,0.0,0.0,0.0,0.0,0.0,0.0,0.0,0.0,0.0,0.0,0.0,0.0,0.0,0.0,0.0,0.0,0.0,0.0,0.0,0.0,0.0,0.0,0.0,0.0,0.0,0.0,0.0,0.0,0.0,0.0,0.0,0.0,0.0,0.0,0.0,0.0,0.0,0.0,0.0,0.0,0.0,0.0,0.0,0.0,0.0,0.0,0.0,0.0,0.0,0.0,0.0,0.0,0.0,0.0,0.0,0.0,0.0,0.0,0.0,0.0,0.0,2.3376,2.5285,2.4833,0.0,2.2372,0.0,0.0,0.0,0.0,0.0,0.0,0.0,0.0,0.0,0.0,0.0,0.0,0.0,0.0,0.0,0.0,0.0,0.0,0.0,0.0,0.0,0.0,0.0,0.0,0.0,0.0,0.0,0.0,0.0,0.0,0.0,0.0,0.0,0.0,0.0,0.0,0.0,0.0,0.0,0.0,0.0,0.0,0.0,0.0,0.0,0.0,0.0,0.0,0.0,0.0,0.0,0.0,0.0,0.0,0.0,0.0,0.0,0.0,0.0,0.0,0.0,0.0,0.0,0.0,0.0,0.0,0.0,0.0,0.0,0.0,0.0,0.0,0.0,0.0,0.0,0.0,0.0,0.0,0.0,0.0,0.0,0.0,0.0,0.0,0.0,0.0,0.0,0.0,0.0,0.0,0.0,0.0,0.0,0.0,0.0,0.0,0.0,0.0,0.0,0.0,0.0,0.0,0.0,0.0,0.0,0.0,0.0,0.0,0.0,0.0,2.3904,2.5109,2.428,2.3201,0.0,0.0,0.0,0.0,0.0,0.0,0.0,0.0,0.0,0.0,0.0,0.0,0.0,0.0,0.0,0.0,0.0,0.0,0.0,0.0,0.0,0.0,0.0,0.0,0.0,0.0,0.0,0.0,0.0,0.0,0.0,0.0,0.0,0.0,0.0,0.0,0.0,0.0,0.0,0.0,0.0,0.0,0.0,0.0,0.0,0.0,0.0,0.0,0.0,0.0,0.0,0.0,0.0,0.0,0.0,0.0,0.0,0.0,0.0,0.0,0.0,0.0,0.0,0.0,0.0,0.0,0.0,0.0,0.0,0.0,0.0,0.0,0.0,0.0,0.0,0.0,0.0,0.0,0.0,0.0,0.0,0.0,0.0,0.0,0.0,0.0,0.0,0.0,0.0,0.0,0.0,0.0,0.0,0.0,0.0,0.0,0.0,0.0,0.0,0.0,0.0,0.0,0.0,0.0,0.0,0.0,0.0,0.0,0.0,0.0,2.343,2.418,2.4958,2.4406,2.3175,2.1343,0.0,0.0,0.0,0.0,0.0,0.0,0.0,0.0,0.0,0.0,0.0,0.0,0.0,0.0,0.0,0.0,0.0,0.0,0.0,0.0,0.0,0.0,0.0,0.0,0.0,0.0,0.0,0.0,0.0,0.0,0.0,0.0,0.0,0.0,0.0,0.0,0.0,0.0,0.0,0.0,0.0,0.0,0.0,0.0,0.0,0.0,0.0,0.0,0.0,0.0,0.0,0.0,0.0,0.0,0.0,0.0,0.0,0.0,0.0,0.0,0.0,0.0,0.0,0.0,0.0,0.0,0.0,0.0,0.0,0.0,0.0,0.0,0.0,0.0,0.0,0.0,0.0,0.0,0.0,0.0,0.0,0.0,0.0,0.0,0.0,0.0,0.0,0.0,0.0,0.0,0.0,0.0,0.0,0.0,0.0,0.0,0.0,0.0,0.0,0.0,0.0,0.0,0.0,0.0,0.0,0.0,0.0,0.0,2.4425,2.3628,2.3954,2.5536,2.6038,2.462,0.0,0.0,0.0,0.0,0.0,0.0,0.0,0.0,0.0,0.0,0.0,0.0,0.0,0.0,0.0,0.0,0.0,0.0,0.0,0.0,0.0,0.0,0.0,0.0,0.0,0.0,0.0,0.0,0.0,0.0,0.0,0.0,0.0,0.0,0.0,0.0,0.0,0.0,0.0,0.0,0.0,0.0,0.0,0.0,0.0,0.0,0.0,0.0,0.0,0.0,0.0,0.0,0.0,0.0,0.0,0.0,0.0,0.0,0.0,0.0,0.0,0.0,0.0,0.0,0.0,0.0,0.0,0.0,0.0,0.0,0.0,0.0,0.0,0.0,0.0,0.0,0.0,0.0,0.0,0.0,0.0,0.0,0.0,0.0,0.0,0.0,0.0,0.0,0.0,0.0,0.0,0.0,0.0,0.0,0.0,0.0,0.0,0.0,0.0,0.0,0.0,0.0,0.0,0.0,0.0,0.0,0.0,0.0,0.0,2.1596,2.2936,2.4808,2.7017,2.5008,2.3301,0.0,0.0,0.0,0.0,0.0,0.0,0.0,0.0,0.0,0.0,0.0,0.0,0.0,0.0,0.0,0.0,0.0,0.0,0.0,0.0,0.0,0.0,0.0,0.0,0.0,0.0,0.0,0.0,0.0,0.0,0.0,0.0,0.0,0.0,0.0,0.0,0.0,0.0,0.0,0.0,0.0,0.0,0.0,0.0,0.0,0.0,0.0,0.0,0.0,0.0,0.0,0.0,0.0,0.0,0.0,0.0,0.0,0.0,0.0,0.0,0.0,0.0,0.0,0.0,0.0,0.0,0.0,0.0,0.0,0.0,0.0,0.0,0.0,0.0,0.0,0.0,0.0,0.0,0.0,0.0,0.0,0.0,0.0,0.0,0.0,0.0,0.0,0.0,0.0,0.0,0.0,0.0,0.0,0.0,0.0,0.0,0.0,0.0,0.0,0.0,0.0,0.0,0.0,0.0,0.0,0.0,0.0,0.0,0.0,2.1214,0.0,2.5887,2.6866,2.4506,2.2623,0.0,0.0,0.0,0.0,0.0,0.0,0.0,0.0,0.0,0.0,0.0,0.0,0.0,0.0,0.0,0.0,0.0,0.0,0.0,0.0,0.0,0.0,0.0,0.0,0.0,0.0,0.0,0.0,0.0,0.0,0.0,0.0,0.0,0.0,0.0,0.0,0.0,0.0,0.0,0.0,0.0,0.0,0.0,0.0,0.0,0.0,0.0,0.0,0.0,0.0,0.0,0.0,0.0,0.0,0.0,0.0,0.0,0.0,0.0,0.0,0.0,0.0,0.0,0.0,0.0,0.0,0.0,0.0,0.0,0.0,0.0,0.0,0.0,0.0,0.0,0.0,0.0,0.0,0.0,0.0,0.0,0.0,0.0,0.0,0.0,0.0,0.0,0.0,0.0,0.0,0.0,0.0,0.0,0.0,0.0,0.0,0.0,0.0,0.0,0.0,0.0,0.0,0.0,0.0,0.0,0.0,0.0,0.0,2.0715,2.3879,2.654,2.6967,2.4983,2.4782,2.2723,0.0,0.0,0.0,0.0,0.0,0.0,0.0,0.0,0.0,0.0,0.0,0.0,0.0,0.0,0.0,0.0,0.0,0.0,0.0,0.0,0.0,0.0,0.0,0.0,0.0,0.0,0.0,0.0,0.0,0.0,0.0,0.0,0.0,0.0,0.0,0.0,0.0,0.0,0.0,0.0,0.0,0.0,0.0,0.0,0.0,0.0,0.0,0.0,0.0,0.0,0.0,0.0,0.0,0.0,0.0,0.0,0.0,0.0,0.0,0.0,0.0,0.0,0.0,0.0,0.0,0.0,0.0,0.0,0.0,0.0,0.0,0.0,0.0,0.0,0.0,0.0,0.0,0.0,0.0,0.0,0.0,0.0,0.0,0.0,0.0,0.0,0.0,0.0,0.0,0.0,0.0,0.0,0.0,0.0,0.0,0.0,0.0,0.0,0.0,0.0,0.0,0.0,0.0,0.0,0.0,0.0,0.0,0.0,0.0,2.3427,2.5335,2.6791,2.7494,2.4682,2.2824,0.0,0.0,0.0,0.0,0.0,0.0,0.0,0.0,0.0,0.0,0.0,0.0,0.0,0.0,0.0,0.0,0.0,0.0,0.0,0.0,0.0,0.0,0.0,0.0,0.0,0.0,0.0,0.0,0.0,0.0,0.0,0.0,0.0,0.0,0.0,0.0,0.0,0.0,0.0,0.0,0.0,0.0,0.0,0.0,0.0,0.0,0.0,0.0,0.0,0.0,0.0,0.0,0.0,0.0,0.0,0.0,0.0,0.0,0.0,0.0,0.0,0.0,0.0,0.0,0.0,0.0,0.0,0.0,0.0,0.0,0.0,0.0,0.0,0.0,0.0,0.0,0.0,0.0,0.0,0.0,0.0,0.0,0.0,0.0,0.0,0.0,0.0,0.0,0.0,0.0,0.0,0.0,0.0,0.0,0.0,0.0,0.0,0.0,0.0,0.0,0.0,0.0,0.0,0.0,0.0,0.0,0.0,0.0,0.0,2.5059,2.6615,2.7821,2.8599,2.531,2.3276,2.2698,0.0,0.0,0.0,0.0,0.0,0.0,0.0,0.0,0.0,0.0,0.0,0.0,0.0,0.0,0.0,0.0,0.0,0.0,0.0,0.0,0.0,0.0,0.0,0.0,0.0,0.0,0.0,0.0,0.0,0.0,0.0,0.0,0.0,0.0,0.0,0.0,0.0,0.0,0.0,0.0,0.0,0.0,0.0,0.0,0.0,0.0,0.0,0.0,0.0,0.0,0.0,0.0,0.0,0.0,0.0,0.0,0.0,0.0,0.0,0.0,0.0,0.0,0.0,0.0,0.0,0.0,0.0,0.0,0.0,0.0,0.0,0.0,0.0,0.0,0.0,0.0,0.0,0.0,0.0,0.0,0.0,0.0,0.0,0.0,0.0,0.0,0.0,0.0,0.0,0.0,0.0,0.0,0.0,0.0,0.0,0.0,0.0,0.0,0.0,0.0,0.0,0.0,0.0,0.0,0.0,0.0,0.0,0.0,2.8122,2.9854,3.0005,2.8473,2.6691,2.423,0.0,0.0,0.0,0.0,0.0,0.0,0.0,0.0,0.0,0.0,0.0,0.0,0.0,0.0,0.0,0.0,0.0,0.0,0.0,0.0,0.0,0.0,0.0,0.0,0.0,0.0,0.0,0.0,0.0,0.0,0.0,0.0,0.0,0.0,0.0,0.0,0.0,0.0,0.0,0.0,0.0,0.0,0.0,0.0,0.0,0.0,0.0,0.0,0.0,0.0,0.0,0.0,0.0,0.0,0.0,0.0,0.0,0.0,0.0,0.0,0.0,0.0,0.0,0.0,0.0,0.0,0.0,0.0,0.0,0.0,0.0,0.0,0.0,0.0,0.0,0.0,0.0,0.0,0.0,0.0,0.0,0.0,0.0,0.0,0.0,0.0,0.0,0.0,0.0,0.0,0.0,0.0,0.0,0.0,0.0,0.0,0.0,0.0,0.0,0.0,0.0,0.0,0.0,0.0,0.0,0.0,0.0,0.0,0.0,2.8824,3.116,3.2215,3.1712,2.8976,2.6465,0.0,0.0,0.0,0.0,0.0,0.0,0.0,0.0,0.0,0.0,0.0,0.0,0.0,0.0,0.0,0.0,0.0,0.0,0.0,0.0,0.0,0.0,0.0,0.0,0.0,0.0,0.0,0.0,0.0,0.0,0.0,0.0,0.0,0.0,0.0,0.0,0.0,0.0,0.0,0.0,0.0,0.0,0.0,0.0,0.0,0.0,0.0,0.0,0.0,0.0,0.0,0.0,0.0,0.0,0.0,0.0,0.0,0.0,0.0,0.0,0.0,0.0,0.0,0.0,0.0,0.0,0.0,0.0,0.0,0.0,0.0,0.0,0.0,0.0,0.0,0.0,0.0,0.0,0.0,0.0,0.0,0.0,0.0,0.0,0.0,0.0,0.0,0.0,0.0,0.0,0.0,0.0,0.0,0.0,0.0,0.0,0.0,0.0,0.0,0.0,0.0,0.0,0.0,0.0,0.0,0.0,0.0,0.0,2.949,3.0281,3.2566,3.3897,3.4098,3.1336,2.8398,0.0,0.0,0.0,0.0,0.0,0.0,0.0,0.0,0.0,0.0,0.0,0.0,0.0,0.0,0.0,0.0,0.0,0.0,0.0,0.0,0.0,0.0,0.0,0.0,0.0,0.0,0.0,0.0,0.0,0.0,0.0,0.0,0.0,0.0,0.0,0.0,0.0,0.0,0.0,0.0,0.0,0.0,0.0,0.0,0.0,0.0,0.0,0.0,0.0,0.0,0.0,0.0,0.0,0.0,0.0,0.0,0.0,0.0,0.0,0.0,0.0,0.0,0.0,0.0,0.0,0.0,0.0,0.0,0.0,0.0,0.0,0.0,0.0,0.0,0.0,0.0,0.0,0.0,0.0,0.0,0.0,0.0,0.0,0.0,0.0,0.0,0.0,0.0,0.0,0.0,0.0,0.0,0.0,0.0,0.0,0.0,0.0,0.0,0.0,0.0,0.0,0.0,0.0,0.0,0.0,0.0,0.0,0.0,2.9808,3.2164,3.3922,3.5027,3.5361,3.3445,3.0055,0.0,0.0,0.0,0.0,0.0,0.0,0.0,0.0,0.0,0.0,0.0,0.0,0.0,0.0,0.0,0.0,0.0,0.0,0.0,0.0,0.0,0.0,0.0,0.0,0.0,0.0,0.0,0.0,0.0,0.0,0.0,0.0,0.0,0.0,0.0,0.0,0.0,0.0,0.0,0.0,0.0,0.0,0.0,0.0,0.0,0.0,0.0,0.0,0.0,0.0,0.0,0.0,0.0,0.0,0.0,0.0,0.0,0.0,0.0,0.0,0.0,0.0,0.0,0.0,0.0,0.0,0.0,0.0,0.0,0.0,0.0,0.0,0.0,0.0,0.0,0.0,0.0,0.0,0.0,0.0,0.0,0.0,0.0,0.0,0.0,0.0,0.0,0.0,0.0,0.0,0.0,0.0,0.0,0.0,0.0,0.0,0.0,0.0,0.0,0.0,0.0,0.0,0.0,0.0,0.0,0.0,0.0,0.0,3.2124,3.2215,3.4274,3.5429,3.5529,3.3822,3.116,0.0,0.0,0.0,0.0,0.0,0.0,0.0,0.0,0.0,0.0,0.0,0.0,0.0,0.0,0.0,0.0,0.0,0.0,0.0,0.0,0.0,0.0,0.0,0.0,0.0,0.0,0.0,0.0,0.0,0.0,0.0,0.0,0.0,0.0,0.0,0.0,0.0,0.0,0.0,0.0,0.0,0.0,0.0,0.0,0.0,0.0,0.0,0.0,2.7042,0.0,0.0,0.0,0.0,0.0,0.0,0.0,0.0,0.0,0.0,0.0,0.0,0.0,0.0,0.0,0.0,0.0,0.0,0.0,0.0,0.0,0.0,0.0,0.0,0.0,0.0,0.0,0.0,0.0,0.0,0.0,0.0,0.0,0.0,0.0,0.0,0.0,0.0,0.0,0.0,0.0,0.0,0.0,0.0,0.0,0.0,0.0,0.0,0.0,0.0,0.0,0.0,0.0,0.0,0.0,0.0,0.0,0.0,0.0,3.3489,3.2726,3.455,3.5529,3.5504,3.4449,3.2039,0.0,0.0,0.0,0.0,0.0,0.0,0.0,0.0,0.0,0.0,0.0,0.0,0.0,0.0,0.0,0.0,0.0,0.0,0.0,0.0,0.0,0.0,0.0,0.0,0.0,0.0,0.0,0.0,0.0,0.0,0.0,0.0,0.0,0.0,0.0,0.0,0.0,0.0,0.0,0.0,0.0,0.0,0.0,0.0,0.0,0.0,0.0,0.0,0.0,0.0,0.0,0.0,0.0,0.0,0.0,0.0,0.0,0.0,0.0,0.0,0.0,0.0,0.0,0.0,0.0,0.0,0.0,0.0,0.0,0.0,0.0,0.0,0.0,0.0,0.0,0.0,0.0,0.0,0.0,0.0,0.0,0.0,0.0,0.0,0.0,0.0,0.0,0.0,0.0,0.0,0.0,0.0,0.0,0.0,0.0,0.0,0.0,0.0,0.0,0.0,0.0,0.0,0.0,0.0,0.0,0.0,0.0,3.1397,3.4391,3.3982,3.5366,3.6065,3.578,3.5274,3.2836,2.8423,0.0,0.0,0.0,0.0,0.0,0.0,0.0,0.0,0.0,0.0,0.0,0.0,0.0,0.0,0.0,0.0,0.0,0.0,0.0,0.0,0.0,0.0,0.0,0.0,0.0,0.0,0.0,0.0,0.0,0.0,0.0,0.0,0.0,0.0,0.0,0.0,0.0,0.0,2.5234,2.6615,0.0,0.0,0.0,0.0,0.0,0.0,0.0,0.0,2.8122,0.0,0.0,0.0,0.0,0.0,0.0,0.0,0.0,0.0,0.0,0.0,0.0,0.0,0.0,0.0,0.0,0.0,0.0,0.0,0.0,0.0,0.0,0.0,0.0,0.0,0.0,0.0,0.0,0.0,0.0,0.0,0.0,0.0,0.0,0.0,0.0,0.0,0.0,0.0,0.0,0.0,0.0,0.0,0.0,0.0,0.0,0.0,0.0,0.0,0.0,0.0,0.0,0.0,0.0,0.0,0.0,2.9329,3.28,3.5411,3.7261,3.8569,3.8451,3.7085,3.6534,3.3887,2.9026,0.0,0.0,0.0,0.0,0.0,0.0,0.0,0.0,0.0,0.0,0.0,0.0,0.0,0.0,0.0,0.0,0.0,0.0,0.0,0.0,0.0,0.0,0.0,0.0,0.0,0.0,0.0,0.0,0.0,0.0,0.0,0.0,0.0,0.0,0.0,0.0,0.0,0.0,0.0,2.8197,2.8649,0.0,0.0,0.0,0.0,0.0,0.0,0.0,0.0,2.8047,0.0,0.0,0.0,0.0,0.0,0.0,0.0,0.0,0.0,0.0,0.0,0.0,0.0,0.0,0.0,0.0,0.0,0.0,0.0,0.0,0.0,0.0,0.0,0.0,0.0,0.0,0.0,0.0,0.0,0.0,0.0,0.0,0.0,0.0,0.0,0.0,0.0,0.0,0.0,0.0,0.0,0.0,0.0,0.0,0.0,0.0,0.0,0.0,0.0,0.0,0.0,0.0,0.0,0.0,0.0,2.7902,3.2981,3.5967,3.682,3.8855,3.9184,3.7741,3.6087,3.3407,0.0,0.0,0.0,0.0,0.0,0.0,0.0,0.0,0.0,0.0,0.0,0.0,0.0,0.0,0.0,0.0,0.0,0.0,0.0,0.0,0.0,0.0,0.0,0.0,0.0,0.0,0.0,0.0,0.0,0.0,0.0,0.0,0.0,0.0,0.0,0.0,0.0,0.0,0.0,0.0,2.8649,2.9478,2.9779,0.0,0.0,0.0,0.0,0.0,0.0,2.8122,2.8323,0.0,0.0,0.0,0.0,0.0,0.0,0.0,0.0,0.0,0.0,0.0,0.0,0.0,0.0,0.0,0.0,0.0,0.0,0.0,0.0,0.0,0.0,0.0,0.0,0.0,0.0,0.0,0.0,0.0,0.0,0.0,0.0,0.0,0.0,0.0,0.0,0.0,0.0,0.0,0.0,0.0,0.0,0.0,0.0,0.0,0.0,0.0,0.0,0.0,0.0,0.0,0.0,0.0,0.0,0.0,2.6187,3.2763,3.6267,3.6577,3.9143,3.9901,3.8393,3.6203,3.3293,0.0,0.0,0.0,0.0,0.0,0.0,0.0,0.0,0.0,0.0,0.0,0.0,0.0,0.0,0.0,0.0,0.0,0.0,0.0,0.0,0.0,0.0,0.0,0.0,0.0,0.0,0.0,0.0,0.0,0.0,0.0,0.0,0.0,0.0,0.0,0.0,0.0,0.0,0.0,0.0,0.0,3.0532,3.0733,3.0683,0.0,0.0,0.0,0.0,2.9478,2.9729,0.0,0.0,0.0,0.0,0.0,0.0,0.0,0.0,0.0,0.0,0.0,0.0,0.0,0.0,0.0,0.0,0.0,0.0,0.0,0.0,0.0,0.0,0.0,0.0,0.0,0.0,0.0,0.0,0.0,0.0,0.0,0.0,0.0,0.0,0.0,0.0,0.0,0.0,0.0,0.0,0.0,0.0,0.0,0.0,0.0,0.0,0.0,0.0,0.0,0.0,0.0,0.0,0.0,0.0,0.0,0.0,2.7721,3.2638,3.6544,3.9247,4.1682,4.185,3.9664,3.8724,3.5367,0.0,0.0,0.0,0.0,0.0,0.0,0.0,0.0,0.0,0.0,0.0,0.0,0.0,0.0,0.0,0.0,0.0,0.0,0.0,0.0,0.0,0.0,0.0,0.0,0.0,0.0,0.0,0.0,0.0,0.0,0.0,0.0,0.0,0.0,0.0,0.0,0.0,0.0,0.0,0.0,0.0,3.2365,3.1436,3.2516,3.3395,0.0,0.0,3.2918,3.3822,3.3596,0.0,0.0,0.0,0.0,0.0,0.0,0.0,0.0,0.0,0.0,0.0,0.0,0.0,0.0,0.0,0.0,0.0,0.0,0.0,0.0,0.0,0.0,0.0,0.0,0.0,0.0,0.0,0.0,0.0,0.0,0.0,0.0,0.0,0.0,0.0,0.0,0.0,0.0,0.0,0.0,0.0,0.0,0.0,0.0,0.0,0.0,0.0,0.0,0.0,0.0,0.0,0.0,0.0,0.0,0.0,2.4022,2.7204,3.228,3.6175,3.8827,4.1198,4.2027,4.1273,3.8856,3.5074,0.0,0.0,0.0,0.0,0.0,0.0,0.0,0.0,0.0,0.0,0.0,0.0,0.0,0.0,0.0,0.0,0.0,0.0,0.0,0.0,0.0,0.0,0.0,0.0,0.0,0.0,0.0,0.0,0.0,0.0,0.0,0.0,0.0,0.0,0.0,0.0,0.0,0.0,0.0,0.0,0.0,0.0,3.3671,3.465,0.0,0.0,0.0,3.4977,3.5152,0.0,0.0,0.0,0.0,0.0,0.0,0.0,0.0,0.0,0.0,0.0,0.0,0.0,0.0,0.0,0.0,0.0,0.0,0.0,0.0,0.0,0.0,0.0,0.0,0.0,0.0,0.0,0.0,0.0,0.0,0.0,0.0,0.0,0.0,0.0,0.0,0.0,0.0,0.0,0.0,0.0,0.0,0.0,0.0,0.0,0.0,0.0,0.0,0.0,0.0,0.0,0.0,0.0,0.0,0.0,0.0,0.0,2.6559,3.1941,3.5787,3.7785,4.0406,4.1884,4.1892,3.9175,0.0,0.0,0.0,0.0,0.0,0.0,0.0,0.0,0.0,0.0,0.0,0.0,0.0,0.0,0.0,0.0,0.0,0.0,0.0,0.0,0.0,0.0,0.0,0.0,0.0,0.0,0.0,1.6448,0.0,0.0,0.0,0.0,0.0,0.0,0.0,0.0,0.0,0.0,0.0,0.0,0.0,0.0,3.4274,3.5931,3.6885,3.7713,0.0,0.0,3.7312,3.7036,3.6182,3.4751,0.0,0.0,0.0,0.0,0.0,0.0,0.0,0.0,0.0,0.0,0.0,0.0,0.0,0.0,0.0,0.0,0.0,0.0,0.0,0.0,0.0,0.0,0.0,0.0,0.0,0.0,0.0,0.0,0.0,0.0,0.0,0.0,0.0,0.0,0.0,0.0,0.0,0.0,0.0,0.0,0.0,0.0,0.0,0.0,0.0,0.0,0.0,0.0,0.0,0.0,0.0,0.0,0.0,0.0,0.0,2.6584,3.1941,3.5372,3.6711,4.0491,4.1987,4.0775,4.0938,3.8317,0.0,0.0,0.0,0.0,0.0,0.0,0.0,0.0,0.0,0.0,0.0,0.0,0.0,0.0,0.0,0.0,0.0,0.0,0.0,0.0,0.0,0.0,0.0,0.0,0.0,0.0,0.0,0.0,0.0,0.0,0.0,0.0,0.0,0.0,0.0,0.0,0.0,0.0,0.0,0.0,0.0,3.5981,3.7613,3.922,4.0802,0.0,0.0,4.04,4.0877,4.0425,3.8642,3.4424,0.0,0.0,0.0,0.0,0.0,0.0,0.0,0.0,0.0,0.0,0.0,0.0,0.0,0.0,0.0,0.0,0.0,0.0,0.0,0.0,0.0,0.0,0.0,0.0,0.0,0.0,0.0,0.0,0.0,0.0,0.0,0.0,0.0,0.0,0.0,0.0,0.0,0.0,0.0,0.0,0.0,0.0,0.0,0.0,0.0,0.0,0.0,0.0,0.0,0.0,0.0,0.0,0.0,2.4406,2.6967,3.1439,3.4666,3.6538,3.9385,4.1029,4.1241,4.0938,3.8733,0.0,0.0,0.0,0.0,0.0,0.0,0.0,0.0,0.0,0.0,0.0,0.0,0.0,0.0,0.0,0.0,0.0,0.0,0.0,0.0,0.0,0.0,0.0,0.0,0.0,0.0,0.0,0.0,2.179,2.1931,2.1346,0.0,0.0,0.0,0.0,0.0,0.0,0.0,0.0,0.0,0.0,3.7115,3.9719,4.0902,0.0,0.0,4.2359,4.1706,4.2258,4.045,3.8165,3.5805,3.3621,0.0,0.0,0.0,0.0,0.0,0.0,0.0,0.0,0.0,0.0,0.0,0.0,0.0,0.0,0.0,0.0,0.0,0.0,0.0,0.0,0.0,0.0,0.0,0.0,0.0,0.0,0.0,0.0,0.0,0.0,0.0,0.0,0.0,0.0,0.0,0.0,0.0,0.0,0.0,0.0,0.0,0.0,0.0,0.0,0.0,0.0,0.0,0.0,0.0,0.0,0.0,0.0,2.4833,2.7745,3.1286,3.4183,3.6478,3.8559,4.0332,4.1568,4.1004,3.955,0.0,0.0,0.0,0.0,0.0,0.0,0.0,0.0,0.0,0.0,0.0,0.0,0.0,0.0,0.0,0.0,0.0,0.0,0.0,0.0,0.0,0.0,0.0,0.0,0.0,0.0,0.0,0.0,2.4243,2.3656,2.2366,0.0,0.0,0.0,0.0,0.0,0.0,0.0,0.0,0.0,0.0,3.8299,4.0906,4.2052,4.2961,4.3915,4.3112,4.2484,4.271,4.0902,3.8843,3.691,0.0,0.0,0.0,0.0,0.0,0.0,0.0,0.0,0.0,0.0,0.0,0.0,0.0,0.0,0.0,0.0,0.0,0.0,0.0,0.0,0.0,0.0,0.0,0.0,0.0,0.0,0.0,0.0,0.0,0.0,2.276,0.0,0.0,0.0,0.0,0.0,0.0,0.0,0.0,0.0,0.0,0.0,0.0,0.0,0.0,0.0,0.0,0.0,0.0,0.0,0.0,0.0,0.0,2.5611,2.8875,3.1687,3.4212,3.642,3.8199,3.993,4.157,4.1568,4.112,4.0203,0.0,0.0,0.0,0.0,0.0,0.0,0.0,0.0,0.0,0.0,0.0,0.0,0.0,0.0,0.0,0.0,0.0,0.0,0.0,0.0,0.0,0.0,0.0,0.0,0.0,0.0,2.5455,2.4255,2.3372,0.0,0.0,0.0,0.0,0.0,0.0,0.0,0.0,0.0,0.0,3.6478,3.9344,4.0951,4.2659,4.3826,4.4427,4.3689,4.2811,4.2333,4.2534,4.158,0.0,0.0,0.0,0.0,0.0,0.0,0.0,0.0,0.0,0.0,0.0,0.0,0.0,0.0,0.0,0.0,0.0,0.0,0.0,0.0,0.0,0.0,0.0,0.0,0.0,0.0,0.0,2.4797,2.6436,0.0,0.0,0.0,0.0,0.0,0.0,0.0,0.0,0.0,0.0,0.0,3.3019,3.5792,0.0,0.0,0.0,0.0,0.0,0.0,0.0,0.0,0.0,0.0,0.0,0.0,2.7216,2.998,3.2416,3.45,3.6377,3.7794,3.9057,4.0388,4.1193,4.0641,3.8531,0.0,0.0,0.0,0.0,0.0,0.0,0.0,0.0,0.0,0.0,0.0,0.0,0.0,0.0,0.0,0.0,0.0,0.0,0.0,0.0,0.0,0.0,0.0,0.0,0.0,2.8215,0.0,0.0,0.0,0.0,0.0,0.0,0.0,0.0,0.0,0.0,0.0,3.073,3.3317,3.609,3.8387,4.0,4.0676,4.1341,0.0,0.0,0.0,0.0,0.0,0.0,0.0,0.0,0.0,0.0,0.0,0.0,0.0,0.0,3.7612,3.427,3.2107,3.096,3.1246,0.0,0.0,0.0,0.0,0.0,0.0,0.0,0.0,0.0,0.0,0.0,0.0,0.0,0.0,2.8699,0.0,2.7798,0.0,0.0,0.0,0.0,0.0,0.0,0.0,0.0,3.6899,3.8223,3.8311,4.062,4.2304,0.0,4.0122,3.5413,0.0,0.0,0.0,0.0,0.0,0.0,0.0,0.0,2.99,3.1843,3.405,3.5542,3.6418,3.7271,3.8538,4.0113,4.1328,4.08,3.8466,3.7069,3.4002,0.0,0.0,0.0,0.0,0.0,0.0,0.0,0.0,0.0,0.0,0.0,0.0,0.0,0.0,0.0,0.0,0.0,0.0,0.0,0.0,0.0,0.0,0.0,3.0294,0.0,0.0,0.0,0.0,0.0,0.0,0.0,0.0,0.0,2.7344,2.9648,3.2176,3.4554,3.6601,3.8357,3.9539,0.0,0.0,0.0,0.0,0.0,0.0,0.0,4.1818,4.2512,4.1299,4.0227,4.052,4.1781,4.271,4.2484,0.0,0.0,3.7531,3.4996,3.3578,3.3675,3.2771,3.1844,3.1694,3.2206,3.2451,0.0,0.0,0.0,0.0,0.0,0.0,0.0,0.0,3.4497,3.4192,0.0,3.3619,0.0,0.0,0.0,0.0,0.0,3.4399,0.0,0.0,4.1678,4.3311,4.3353,4.3953,4.5344,4.7132,4.5163,4.2222,3.8302,3.2796,0.0,0.0,0.0,0.0,0.0,0.0,3.3527,3.4218,3.635,3.7246,3.653,3.697,3.837,4.0667,4.1869,4.1645,4.017,3.9782,3.8167,3.5022,3.2926,0.0,0.0,0.0,0.0,0.0,0.0,0.0,0.0,0.0,0.0,0.0,0.0,0.0,0.0,0.0,0.0,0.0,0.0,0.0,0.0,3.1938,0.0,0.0,0.0,0.0,0.0,0.0,0.0,0.0,0.0,0.0,3.0625,3.2266,3.4316,3.6367,0.0,0.0,0.0,0.0,4.0862,4.0755,4.0755,4.0777,4.0647,4.1616,4.2542,4.3318,0.0,0.0,4.2438,4.3886,4.4761,4.3237,4.3506,4.3813,4.206,3.8541,3.6097,3.6373,3.4612,3.3368,3.3984,3.4799,3.5289,4.4443,0.0,0.0,0.0,0.0,3.7658,3.7534,3.8065,3.7236,3.6452,3.5755,3.5288,0.0,0.0,0.0,0.0,0.0,0.0,3.7407,3.9861,4.0896,4.2531,4.4763,4.4996,4.5898,4.7205,4.5763,4.4197,4.2551,3.9978,3.647,3.2198,0.0,0.0,0.0,0.0,3.6258,3.594,3.7648,3.8204,3.7218,3.7568,3.8779,4.072,4.1506,4.1869,4.1755,4.2106,4.1814,4.0792,3.7507,0.0,0.0,0.0,0.0,0.0,0.0,0.0,0.0,0.0,0.0,0.0,0.0,0.0,0.0,0.0,0.0,0.0,0.0,0.0,3.2993,3.2968,3.2846,0.0,0.0,0.0,0.0,0.0,0.0,0.0,0.0,0.0,3.5117,3.5781,3.6406,0.0,0.0,3.8525,3.8027,3.8406,3.8827,3.9151,4.0542,0.0,4.1146,4.1978,4.2883,4.3489,4.3465,4.3299,4.2867,4.3147,4.3147,4.2685,4.208,4.1342,4.0669,3.964,3.857,3.8291,3.6978,3.6074,3.6348,3.6816,3.707,4.8651,4.7933,4.5756,4.4471,4.3778,4.275,4.2172,4.2006,4.1001,4.0158,3.9446,3.8664,3.7581,3.6311,3.5223,0.0,0.0,0.0,3.8542,4.0857,4.0923,4.2251,4.4527,4.5121,4.6016,4.7195,4.6531,4.5753,4.5095,4.4317,4.1743,3.7524,0.0,0.0,3.7403,3.932,3.9967,3.9311,4.0096,3.9823,3.8365,3.8316,3.8992,4.0301,4.0663,4.1261,4.2127,4.2279,4.3154,4.4758,4.0349,3.6485,0.0,0.0,0.0,0.0,0.0,0.0,0.0,0.0,0.0,0.0,0.0,2.8923,2.6675,0.0,0.0,0.0,3.1265,3.3897,3.6282,3.6408,0.0,0.0,0.0,0.0,0.0,0.0,0.0,3.3867,3.5273,3.6582,3.7871,3.8359,3.8574,3.8574,3.8711,3.875,3.8594,0.0,3.8594,3.9043,4.0312,4.1147,4.0919,4.1524,4.2258,4.337,4.3691,4.3596,4.3395,4.3106,4.2996,4.2615,4.1697,4.0703,4.057,3.9976,3.9414,3.9007,3.8584,3.8301,3.832,3.8379,3.8088,5.1102,5.336,5.069,4.8963,4.7912,4.8365,4.7191,4.4889,4.5209,4.4613,4.331,4.326,4.2455,4.1049,3.9563,0.0,3.8291,3.8793,3.9904,4.1471,4.1419,4.2057,4.3231,4.4535,4.5825,4.6982,4.714,4.6808,4.6241,4.6296,4.5454,4.3658,4.2462,4.2043,4.2569,4.3778,4.4128,4.3429,4.3076,4.1949,3.9894,3.9244,3.9145,3.9597,3.9622,4.016,4.1182,4.0834,4.2399,4.6268,4.1615,3.7535,3.4871,0.0,0.0,0.0,0.0,0.0,0.0,0.0,0.0,0.0,0.0,0.0,0.0,0.0,0.0,0.0,3.428,0.0,4.0526,4.1229,0.0,0.0,0.0,3.6553,3.5211,3.5471,3.584,3.6309,0.0,0.0,3.9355,4.0059,4.0566,4.0586,3.9863,3.9629,4.041,3.9844,3.9512,3.9941,4.0,4.0137,4.0563,4.0774,4.1323,4.2766,4.3853,4.3991,4.3595,4.3419,4.336,4.2782,4.1936,4.1084,4.1063,3.9976,3.9141,3.8877,3.9277,3.9844,3.9766,3.9531,3.8759,5.1732,5.1664,5.2154,5.1768,5.0991,5.1135,5.0238,4.8676,4.7242,4.6409,4.6009,4.5051,4.3707,4.1935,4.1554,4.1014,4.0551,4.0249,4.0383,4.0667,4.0363,4.031,4.0664,4.1941,4.3204,4.4359,4.5384,4.5781,4.5665,4.6606,4.683,4.6352,4.6052,4.4975,4.3269,4.4945,4.5483,4.4849,4.4776,4.3631,4.1176,4.0032,3.9371,3.9069,3.9069,3.8843,3.8278,3.9451,4.0495,4.1388,4.0267,3.8546,3.6098,3.3171,0.0,0.0,0.0,0.0,0.0,0.0,0.0,0.0,0.0,3.297,2.7782,0.0,3.5407,0.0,3.8189,4.1404,4.2861,4.3137,0.0,0.0,4.196,4.043,4.1257,3.9272,3.8242,3.9336,3.9902,4.0332,4.0664,4.0879,4.1016,4.1016,4.084,4.0664,4.0566,4.0664,4.0742,4.082,4.084,4.0898,4.0976,4.1016,4.1131,4.1594,4.1574,4.1474,4.1373,4.107,4.0706,4.0262,3.9951,3.9639,3.9195,3.9475,3.9648,3.9609,3.9766,3.9883,3.9902,4.0059,3.9509,5.1996,5.1883,5.2715,5.2938,5.276,5.3152,5.293,5.2089,5.0645,4.9665,4.8946,4.7118,4.5526,4.4189,4.3321,4.2459,4.1681,4.1128,4.0752,4.0475,3.9948,3.9726,3.9803,4.0963,4.1656,4.185,4.3648,4.4535,4.4627,4.5869,4.6432,4.6432,4.7019,4.6591,4.5244,4.6202,4.6572,4.6197,4.6191,4.4753,4.1716,4.0945,4.0007,3.8995,3.912,3.8718,3.7613,3.8728,3.9329,3.895,3.8568,3.7986,3.7111,3.4491,3.2444,0.0,0.0,0.0,0.0,0.0,0.0,0.0,0.0,0.0,0.0,0.0,3.8391,3.8782,4.2163,4.502,4.6602,4.7405,4.8021,4.8619,4.6081,4.4255,4.4144,4.1756,4.0293,4.0996,4.0937,4.0898,4.1133,4.1172,4.1172,4.1172,4.1172,4.1094,4.0879,4.1035,4.1172,4.1172,4.1172,4.1172,4.1172,4.1016,4.0957,4.1094,4.082,4.0527,4.0508,3.9529,3.8613,3.8047,3.7311,3.6631,3.6431,3.6703,3.7085,3.7267,3.7304,3.8013,3.9951,3.9702,3.839,5.202,5.2717,5.2612,5.2925,5.3406,5.4064,5.4705,5.5031,5.4641,5.3509,5.1766,4.904,4.7562,4.679,4.475,4.3263,4.2133,4.1656,4.1103,4.0501,4.0023,3.9772,3.98,4.0844,4.0759,3.9822,4.2108,4.3218,4.3313,4.4535,4.5115,4.5207,4.6462,4.7019,4.7106,4.7193,4.7309,4.7309,4.7318,4.5495,4.2012,4.169,4.0759,3.902,3.927,3.8944,3.7864,3.8417,3.8416,3.7581,3.7107,3.7096,3.768,3.5643,3.4173,0.0,3.3119,0.0,0.0,0.0,0.0,0.0,0.0,0.0,0.0,3.8129,4.1839,4.3463,4.615,4.8535,5.0368,5.2101,5.2725,5.1561,4.9743,4.7901,4.5635,4.3467,4.1933,4.1894,4.1504,4.1269,4.1348,4.125,4.1191,4.1348,4.1328,4.1289,4.125,4.1211,4.1172,4.1172,4.1172,4.1172,4.1152,4.0879,4.0781,4.1055,4.0898,4.0605,4.0625,3.885,3.7264,3.6749,3.5228,3.3785,3.3438,3.3595,3.376,3.4183,3.4442,3.5708,3.8716,3.843,3.6412,5.2412,5.226,5.1804,5.2078,5.2961,5.262,5.3751,5.5724,5.6622,5.5595,5.3006,5.0173,4.8205,4.6843,4.5158,4.3614,4.2183,4.2032,4.1455,4.0526,4.04,4.0124,3.9697,3.9981,3.993,3.9829,4.1241,4.1985,4.1985,4.3218,4.3882,4.3882,4.5115,4.5779,4.5779,0.0,0.0,0.0,4.7318,4.5987,4.3245,4.2155,4.0759,3.8995,3.8492,0.0,3.6784,3.7638,3.7344,3.5502,3.7717,0.0,0.0,0.0,0.0,0.0,0.0,0.0,0.0,0.0,0.0,0.0,4.3187,4.0989,3.5323,4.3364,4.8518,4.7252,4.954,5.1147,5.1147,5.3005,5.4144,5.3818,5.1475,4.9361,4.841,4.5154,4.2715,4.2344,4.1933,4.1816,4.207,4.1621,4.1445,4.2012,4.1894,4.1699,4.168,4.1406,4.1191,4.1172,4.1172,4.1172,4.1172,4.1094,4.1035,4.1152,4.1133,4.1035,4.086,3.9224,3.7661,3.7126,3.545,3.3591,3.3346,3.3651,3.3722,3.3947,3.4193,3.4892,3.5765,3.557,3.4668,5.2603,0.0,5.1523,5.1448,0.0,5.1852,5.2756,5.4007,5.595,5.6113,5.4679,5.2954,5.1153,4.9359,4.681,4.5098,4.3965,4.2823,4.1856,4.1304,4.0777,4.0195,3.9715,3.9669,3.9697,3.9697,4.0364,4.0642,4.0743,4.1985,4.2544,4.2544,4.3787,4.4442,4.4563,4.6398,4.7258,4.7309,4.7258,4.6398,4.447,4.352,4.1887,3.9969,3.9677,0.0,0.0,0.0,0.0,0.0,0.0,0.0,0.0,3.9647,0.0,4.0802,4.1379,4.1806,4.2158,4.3915,4.5246,4.5799,4.6909,4.5847,4.1876,4.8058,5.1535,5.0222,5.1774,5.2779,5.2578,5.3984,5.5064,5.5196,5.2165,5.0053,4.974,4.6114,4.3086,4.3008,4.25,4.2207,4.2383,4.209,4.1953,4.2344,4.2246,4.2109,4.207,4.1738,4.1426,4.123,4.1172,4.1172,4.1172,4.1172,4.1172,4.1172,4.1172,4.1172,4.1172,3.8548,3.6212,3.5863,3.3419,3.1093,3.0973,3.1048,3.1153,3.1183,3.1437,3.1571,3.1617,3.2381,3.2803,5.3037,5.2557,5.1783,5.1096,5.065,5.1431,5.1846,5.2209,0.0,0.0,0.0,5.5507,5.4129,5.2023,4.8709,4.6887,4.6275,4.3785,4.2645,4.2518,4.1336,4.0414,3.9749,3.9765,3.9823,3.9669,3.9722,3.9697,3.9697,4.0743,4.1219,4.1419,4.2544,4.3313,4.3654,4.5981,4.7105,4.6845,4.7078,4.6638,4.5417,4.4657,4.3269,4.1161,4.1258,4.0701,3.9396,4.0375,4.0963,4.1183,4.0461,4.1149,4.3403,4.2696,4.3011,4.4794,4.5974,4.6702,4.6903,4.8335,4.9088,4.8812,4.9619,4.9992,4.9439,5.1575,5.2691,5.2251,5.3055,5.3557,5.3582,5.4662,5.5371,5.5284,5.2213,5.0366,5.0219,4.6412,4.3574,4.3691,4.3144,4.2695,4.2812,4.2578,4.25,4.2617,4.2617,4.2539,4.248,4.2168,4.1777,4.1406,4.1348,4.1289,4.1191,4.1172,4.1172,4.1172,4.1172,4.1172,4.0685,3.7578,3.4992,3.4797,3.1076,2.8783,2.8305,2.8446,2.8163,2.8217,2.8417,2.8551,2.8534,2.979,3.1037,5.4996,5.4759,5.2826,5.1674,5.1096,5.0781,5.1126,5.2289,5.666,5.7511,5.5776,5.5415,5.4328,5.2761,4.9951,4.8373,4.7663,4.5635,4.4359,4.3887,4.2608,4.113,3.9775,4.0159,4.0195,3.9705,3.9744,3.9697,3.9697,3.9903,3.9981,4.0185,4.1219,4.2474,4.3586,4.6035,4.6415,4.4853,4.6429,4.6638,4.5417,4.4685,4.365,4.2277,4.1562,4.1254,4.1028,4.2057,4.2624,4.2712,4.3851,4.5001,4.5781,4.5658,4.5748,4.61,4.7079,4.8109,4.9088,5.0268,5.1297,5.2126,5.2316,5.2191,5.1724,5.2327,5.2941,5.2829,5.298,5.303,5.313,5.4461,5.4444,5.2596,5.1631,5.0197,4.8051,4.598,4.4531,4.4277,4.3848,4.3652,4.3808,4.3105,4.2754,4.3262,4.3164,4.2988,4.293,4.2617,4.2207,4.1816,4.1719,4.1562,4.1308,4.1172,4.1191,4.1172,4.1191,4.1036,4.0841,3.7295,3.4701,3.4668,3.1135,2.8683,2.819,2.815,2.8283,2.8484,2.8631,2.8711,2.8845,2.9231,2.9444,5.5419,5.5102,5.3088,5.195,5.1649,5.0795,5.0634,5.1254,5.3076,5.4221,5.44,5.4008,5.3692,5.3288,5.0696,4.9588,4.9625,4.6812,4.5206,4.4546,4.2888,4.1982,4.1522,4.1071,4.0953,4.0927,4.0701,4.0601,4.0576,4.0576,4.0576,4.0576,4.118,4.2032,4.3218,4.3264,4.3697,4.4787,4.7143,4.7395,4.5268,4.5274,4.4547,4.2861,4.2659,4.2534,4.2258,4.3589,4.4302,4.4311,4.5329,4.6245,4.6768,4.7075,4.7456,4.8058,4.9138,5.0092,5.0921,5.1724,5.2402,5.2879,5.2929,5.2829,5.2578,5.2779,5.2929,5.2929,5.2929,5.3055,5.3331,5.3242,5.2913,5.2363,5.0299,4.8629,4.758,4.5549,4.4316,4.4355,4.3984,4.3789,4.4004,4.3496,4.3223,4.3633,4.3516,4.3418,4.3398,4.3242,4.2871,4.2285,4.1953,4.1738,4.1543,4.1504,4.1426,4.123,4.0388,3.9738,3.9291,3.5918,3.3619,3.299,3.0648,2.8947,2.8617,2.8631,2.8698,2.8804,2.9138,2.9299,2.9339,2.9513,2.9633,5.5683,5.5235,5.308,5.2226,5.2026,5.1046,5.0619,5.0569,4.9937,5.0816,5.2661,5.2287,5.2602,5.3209,5.1123,5.055,5.0795,4.8051,4.6545,4.606,4.4382,4.3419,4.299,4.2296,4.1986,4.1872,4.1455,4.1329,4.1329,4.1329,4.1329,4.1329,4.1329,4.1839,4.271,4.0971,4.1569,4.4549,4.7038,4.7218,4.5255,4.5477,4.4927,4.3756,4.3806,4.389,4.3815,4.5095,4.5974,4.6225,4.6753,4.7305,4.7857,4.8385,4.9063,4.9967,5.0896,5.1749,5.2427,5.2854,5.3105,5.3105,5.3105,5.3055,5.2955,5.2929,5.2929,5.2929,5.2929,5.2942,5.2709,5.1922,5.1231,5.1082,4.8605,4.6811,4.6763,4.5078,4.4023,4.4394,4.4141,4.3906,4.3945,4.3828,4.3652,4.3535,4.3633,4.3672,4.3594,4.3633,4.3379,4.2773,4.2226,4.1914,4.1816,4.1168,4.0679,4.0391,3.8878,3.7793,3.6881,3.4258,3.2296,3.1851,3.0353,2.9125,2.9018,2.9085,2.9112,2.9179,2.9553,2.9927,2.9887,3.0047,3.0247,5.6828,5.5287,5.3487,5.2553,5.2076,5.1448,5.1197,5.1147,5.0033,5.0298,5.1376,5.0395,5.1041,5.2287,5.1098,5.1036,5.1689,4.9643,4.8952,4.9246,4.8208,4.5901,4.3403,4.3649,4.3277,4.2091,4.1656,4.153,4.153,4.1455,4.1379,4.1329,4.1329,4.143,4.1487,4.1314,4.1898,4.3229,4.437,4.5101,4.5139,4.4586,4.4415,4.4783,4.4571,4.502,4.5824,4.6652,4.7456,4.841,4.8962,4.9515,5.0067,5.0619,5.0996,5.1122,5.1699,5.2452,5.3432,5.3607,5.3493,5.3632,5.3468,5.3406,5.3005,5.2929,5.2929,5.2955,5.2955,5.2238,5.0672,5.0699,4.9453,4.6855,4.6287,4.5643,4.4156,4.4072,4.4492,4.4922,4.4473,4.4453,4.457,4.4121,4.3574,4.332,4.3516,4.3594,4.3359,4.3457,4.3516,4.3047,4.2637,4.2207,4.1717,3.9813,3.9049,3.8463,3.6754,3.5753,3.4982,3.3667,3.2148,3.115,3.0522,2.9072,2.9125,2.9232,2.9446,2.9499,2.9873,3.0368,3.0555,3.0541,3.0461,5.6984,5.5287,5.3538,5.2804,5.2528,5.2,5.1774,5.1724,5.0955,5.083,5.1355,5.1509,5.1779,5.2017,5.0864,5.0617,5.1036,4.9445,4.8489,4.808,4.7595,4.6594,4.5433,4.5625,4.5407,4.4856,4.3787,4.3288,4.3288,4.3288,4.3288,4.3288,4.3288,4.3288,4.3288,4.3087,4.3312,4.394,4.4548,4.515,4.5285,4.5542,4.5291,4.4873,4.5254,4.5799,4.6401,4.7757,4.8812,4.9289,5.0117,5.0695,5.0921,5.1147,5.1423,5.1774,5.1403,5.1601,5.233,5.1198,5.1052,5.2235,5.2087,5.2269,5.3242,5.3105,5.3055,5.3306,5.3105,5.259,5.2024,5.0315,4.8327,4.7007,4.5461,4.3999,4.3249,4.3613,4.4062,4.4219,4.4101,4.4043,4.416,4.3945,4.3652,4.3476,4.3613,4.3594,4.3457,4.3398,4.3262,4.3066,4.2715,4.2285,4.1736,4.124,3.9842,3.813,3.662,3.5427,3.3052,3.1395,3.0097,3.0125,2.974,2.9259,2.9312,2.9526,2.974,2.9847,3.0034,3.0488,3.0955,3.0955,3.0955,5.6956,5.5287,5.3538,5.2929,5.2904,5.2503,5.2327,5.2302,5.19,5.1724,5.1749,5.2514,5.2565,5.1765,5.0461,5.0049,5.0276,4.9125,4.8126,4.7397,4.7427,4.7127,4.6689,4.6579,4.654,4.6351,4.5374,4.492,4.5045,4.5095,4.5095,4.507,4.4945,4.4869,4.4869,4.4778,4.4853,4.5121,4.5759,4.6137,4.6289,4.6887,4.6604,4.554,4.625,4.6878,4.7255,4.8887,4.9891,5.0067,5.0996,5.1574,5.1724,5.1875,5.1904,5.1877,5.1392,5.0948,5.0974,4.9632,4.948,5.0699,5.0522,5.0953,5.1992,5.2386,5.2668,5.294,5.3278,5.3278,5.192,4.9623,4.7848,4.6831,4.4359,4.3066,4.3086,4.3457,4.3789,4.3867,4.3848,4.3691,4.3711,4.3691,4.3652,4.3516,4.3613,4.3555,4.3418,4.3164,4.3047,4.291,4.2519,4.2168,4.1717,4.0283,3.9529,3.7488,3.5311,3.2693,3.0993,2.9391,2.8818,2.9754,2.9488,2.9513,2.9606,2.982,3.0114,3.0221,3.0314,3.0528,3.1062,3.1076,3.1062,5.6956,5.5314,5.3538,5.2929,5.2929,5.2879,5.2879,5.2829,5.2804,5.2804,5.2729,5.28,5.2658,5.2043,4.9974,4.9358,4.9996,4.8969,4.8459,4.8599,4.8678,4.7785,4.5998,4.5888,4.5875,4.6035,4.591,4.5899,4.6301,4.625,4.6225,4.6225,4.5799,4.5497,4.5598,4.5999,4.6225,4.6326,4.7475,4.8131,4.7857,4.8385,4.8082,4.7255,4.7581,4.836,4.9289,5.0017,5.0619,5.1172,5.1774,5.2327,5.2804,5.3306,5.2915,5.1849,5.1763,5.1385,5.0184,4.9964,4.9873,4.983,4.9807,4.9471,4.9465,5.06,5.1507,5.1507,5.3081,5.2768,4.9674,4.8854,4.7138,4.4173,4.3336,4.3105,4.3105,4.3574,4.3906,4.4141,4.3926,4.375,4.373,4.3691,4.3555,4.3398,4.3496,4.3496,4.2949,4.293,4.2891,4.2558,4.2187,4.1836,4.1461,3.9548,3.6731,3.5046,3.3171,2.9603,2.9041,2.8831,2.9058,2.9259,2.9339,2.9513,2.9833,3.0154,3.0474,3.0541,3.0301,3.0515,3.0915,3.0662,3.0702,5.6685,5.381,5.3179,5.2929,5.2929,5.2929,5.2929,5.2929,5.2929,5.2929,5.2904,5.2941,5.284,5.2528,5.067,4.9746,4.9745,4.8646,4.794,4.7899,4.8399,4.8219,4.7661,4.7951,4.809,4.8028,4.8064,4.8257,4.8259,4.7707,4.7531,4.7757,4.733,4.7029,4.7079,4.723,4.733,4.738,4.7931,4.8435,4.8962,4.9188,4.9414,4.9766,4.959,4.969,5.0092,5.0996,5.1599,5.18,5.2628,5.3231,5.3482,5.4285,5.4902,5.477,5.2565,5.1016,5.052,4.8365,4.7444,4.8542,4.8404,4.8605,4.9473,5.0091,5.033,5.0887,5.1309,5.063,4.9022,4.863,4.8366,4.6926,4.5048,4.3789,4.3691,4.4082,4.4414,4.4043,4.3789,4.3808,4.3965,4.3906,4.3769,4.3887,4.3808,4.3535,4.332,4.3183,4.2891,4.2539,4.2285,4.1496,3.9263,3.8507,3.691,3.4752,3.2613,3.0365,2.9294,2.8601,2.8591,2.8778,2.8978,2.9325,2.9593,3.0074,3.0461,3.0568,3.0327,3.0461,3.0635,3.0635,3.0728,5.5948,5.3067,5.2929,5.2929,5.2929,5.2929,5.2929,5.2929,5.2929,5.2929,5.2929,5.2929,5.2829,5.2477,5.1272,5.0393,4.9741,4.851,4.7531,4.6878,4.7658,4.7925,4.7847,4.8117,4.8687,4.9386,4.9926,5.0201,5.0042,4.9364,4.9213,4.9515,4.8987,4.8636,4.8485,4.846,4.846,4.846,4.8611,4.9213,5.0042,5.0318,5.0745,5.1398,5.1322,5.1122,5.0996,5.1875,5.2452,5.2703,5.3482,5.421,5.4787,5.5491,5.5926,5.568,5.3411,5.1402,5.0315,4.7858,4.6845,4.7168,4.7069,4.7506,4.8755,4.8973,4.9293,4.9759,5.0534,5.0367,4.9708,4.9459,4.9054,4.7976,4.5838,4.4473,4.4199,4.4531,4.4414,4.3887,4.3711,4.3848,4.4062,4.3867,4.3867,4.4141,4.3887,4.3652,4.332,4.3066,4.2715,4.2145,4.1215,4.0151,3.8202,3.6789,3.5145,3.3195,3.1707,2.9915,2.9116,2.8541,2.8243,2.8364,2.8631,2.9005,2.9446,2.9953,3.0247,3.0448,3.0595,3.0715,3.0795,3.0822,3.0942,5.4433,5.3042,5.2929,5.2929,5.2929,5.2929,5.2929,5.2929,5.2929,5.2929,5.2929,5.2929,5.2653,5.2101,5.1473,5.0921,5.0142,4.8786,4.7581,4.6728,4.7126,4.705,4.6819,4.6806,4.8058,4.9873,5.0852,5.1247,5.1247,5.1096,5.1071,5.1096,5.0544,5.0017,4.9615,4.959,4.959,4.969,5.0042,5.0619,5.1272,5.1674,5.1925,5.2151,5.2503,5.2503,5.2076,5.2578,5.308,5.3607,5.421,5.534,5.657,5.6897,5.6054,5.4768,5.4384,5.24,4.9161,4.9049,4.7964,4.6584,4.5836,4.6181,4.6595,4.7438,4.8317,4.8819,5.0235,5.1388,5.107,5.0377,4.8852,4.5786,4.5536,4.5234,4.5058,4.4668,4.4258,4.3906,4.3769,4.3711,4.373,4.373,4.3789,4.3906,4.3848,4.3594,4.3105,4.291,4.2422,4.1655,4.0443,3.9084,3.6893,3.4915,3.2999,3.112,2.9873,2.8595,2.8663,2.8323,2.8484,2.8617,2.8871,2.9232,2.9646,3.0114,3.0434,3.0635,3.0795,3.0996,3.1116,3.1196,3.1209,5.4433,5.2929,5.2929,5.2929,5.2929,5.2929,5.2929,5.2929,5.2929,5.2929,5.2929,5.2929,5.2628,5.2076,5.1523,5.0971,5.0368,4.9464,4.8686,4.8134,4.8184,4.8184,4.7983,4.7626,4.8992,5.1405,5.1859,5.2051,5.2277,5.2051,5.185,5.1749,5.1297,5.0946,5.0745,5.0745,5.077,5.077,5.0921,5.1272,5.18,5.2026,5.2277,5.2653,5.2854,5.2829,5.2703,5.2829,5.3181,5.3683,5.4612,5.5892,5.7198,5.7248,5.6925,5.6671,5.5578,5.4065,5.1375,4.989,4.8572,4.6674,4.6367,4.6523,4.6543,4.6892,4.7354,4.7514,4.8209,4.8535,4.8464,4.8541,4.823,4.8413,4.7439,4.6543,4.6133,4.541,4.4863,4.459,4.4082,4.3887,4.4023,4.3984,4.4004,4.4433,4.4336,4.4004,4.3828,4.3633,4.3457,4.267,4.0577,3.8163,3.63,3.3991,3.1569,3.0308,2.9143,2.8283,2.835,2.8551,2.8711,2.8898,2.9152,2.9459,2.9873,3.0287,3.0635,3.0902,3.1116,3.133,3.1543,3.1583,3.1543,5.3784,5.2929,5.2929,5.2929,5.2929,5.2929,5.2929,5.2929,5.2929,5.2929,5.2929,5.2929,5.2503,5.185,5.1423,5.0845,5.0142,4.9741,4.9515,4.9389,4.9389,4.9389,4.9515,4.9438,5.0489,5.2497,5.2765,5.2879,5.3206,5.3105,5.2904,5.2653,5.2352,5.195,5.1624,5.1574,5.1599,5.1599,5.1599,5.185,5.2277,5.2402,5.2578,5.2879,5.2929,5.2929,5.2929,5.3105,5.3078,5.2823,5.3278,5.4316,5.6042,5.5549,5.5106,5.5159,5.4603,5.3084,5.0884,4.989,4.8716,4.703,4.6777,4.709,4.7266,4.7305,4.7207,4.7383,4.7581,4.7402,4.7461,4.7793,4.8593,4.9405,4.8394,4.7324,4.6738,4.6016,4.5351,4.5058,4.4687,4.457,4.4492,4.4453,4.4394,4.4863,4.4805,4.4531,4.4473,4.4355,4.3906,4.2576,3.9941,3.7709,3.5692,3.3228,3.0297,2.9363,2.8614,2.8377,2.835,2.8711,2.8965,2.9138,2.9366,2.9646,3.0034,3.0595,3.1009,3.1223,3.1423,3.1757,3.1957,3.181,3.181,5.2929,5.2929,5.2929,5.2929,5.2929,5.2929,5.2929,5.2929,5.2929,5.2929,5.2929,5.2929,5.2327,5.1473,5.1297,5.0695,4.9766,4.9615,4.9941,5.0268,5.0419,5.0444,5.0745,5.1389,5.2201,5.3113,5.3495,5.3708,5.3783,5.411,5.426,5.3607,5.3381,5.313,5.2302,5.2151,5.2151,5.2151,5.2151,5.2402,5.2854,5.2879,5.2904,5.2929,5.3005,5.303,5.3105,5.2973,5.2445,5.1343,5.128,5.1715,5.3084,5.2191,5.19,5.1877,5.1891,5.0916,4.9043,4.9217,4.8798,4.7071,4.6933,4.7266,4.7812,4.7676,4.7656,4.8008,4.8086,4.8144,4.8242,4.8516,4.8875,4.8711,4.8346,4.748,4.6621,4.6406,4.5976,4.541,4.541,4.5469,4.5,4.4922,4.498,4.5078,4.5098,4.4941,4.4863,4.4746,4.418,4.2329,4.0126,3.7895,3.6132,3.2282,2.9817,2.9227,2.8617,2.8484,2.8537,2.8911,2.9339,2.9499,2.9673,2.9927,3.0287,3.0849,3.1196,3.1356,3.1677,3.2144,3.2278,3.2171,3.2171,5.2929,5.2929,5.2929,5.2929,5.2929,5.2929,5.2929,5.2929,5.2929,5.2929,5.2929,5.2929,5.2327,5.1348,5.1272,5.067,4.9841,4.9615,5.0167,5.0946,5.1046,5.1548,5.2126,5.2528,5.3168,5.3999,5.4175,5.4336,5.4336,5.4511,5.4285,5.3708,5.3356,5.3055,5.2729,5.2678,5.2729,5.2703,5.2703,5.2729,5.2879,5.2767,5.2929,5.2955,5.3117,5.3318,5.3163,5.1412,5.2057,5.4358,5.1862,5.0543,5.0903,5.0954,5.085,5.065,5.1389,5.0841,4.8899,4.9216,4.879,4.6874,4.707,4.75,4.7695,4.7656,4.7793,4.8105,4.8203,4.8359,4.8613,4.8789,4.8848,4.8828,4.8594,4.8223,4.7676,4.7129,4.6543,4.6055,4.5586,4.5351,4.5176,4.5117,4.5195,4.543,4.5508,4.5586,4.5586,4.5703,4.541,4.3784,4.1623,3.9062,3.6002,3.2208,2.9609,2.9125,2.8778,2.8617,2.8818,2.9192,2.9673,3.006,3.0194,3.0408,3.0728,3.1156,3.133,3.161,3.2011,3.2492,3.2625,3.2612,3.2599,5.2929,5.2929,5.2929,5.2929,5.2929,5.2929,5.2929,5.2929,5.2929,5.2929,5.2929,5.2929,5.2452,5.1649,5.1373,5.082,4.9992,4.969,5.0092,5.087,5.1398,5.2076,5.2729,5.2929,5.347,5.4455,5.4552,5.4536,5.4612,5.4787,5.4461,5.3808,5.3406,5.3155,5.2904,5.2929,5.2929,5.2879,5.2729,5.2678,5.2904,5.1803,5.1411,5.1419,5.1338,5.0986,5.1079,4.9328,4.992,5.1895,5.0065,4.7912,4.7858,4.8441,4.8704,4.8174,4.9065,4.8777,4.7438,4.7874,4.8023,4.7209,4.7363,4.7734,4.8047,4.8125,4.8262,4.8437,4.8476,4.8613,4.8769,4.8848,4.8965,4.9082,4.8965,4.8691,4.8262,4.7754,4.7207,4.6738,4.6445,4.6074,4.5683,4.5547,4.5683,4.5859,4.5937,4.6152,4.6406,4.6641,4.6464,4.5002,4.2858,3.9965,3.7058,3.3365,3.011,2.9286,2.8991,2.8818,2.9085,2.9459,2.982,3.0234,3.0568,3.0902,3.1196,3.153,3.1917,3.2225,3.2545,3.2692,3.2826,3.2933,3.2933,5.2929,5.2929,5.2929,5.2929,5.2929,5.2929,5.2929,5.2929,5.2929,5.2929,5.2929,5.2929,5.2578,5.2076,5.1624,5.1021,5.0368,4.9941,5.0142,5.082,5.1624,5.2528,5.2817,5.308,5.3671,5.4491,5.4653,5.4595,5.4315,5.4782,5.4166,5.2853,5.2699,5.2799,5.2288,5.2352,5.2629,5.2829,5.2427,5.2477,5.2291,5.0864,5.0002,5.027,4.8991,4.8737,4.8754,4.7934,4.8233,5.0114,4.6537,4.546,4.5346,4.5738,4.5674,4.543,4.6233,4.6398,4.5601,4.6383,4.6915,4.7285,4.75,4.793,4.8457,4.8574,4.8613,4.875,4.8848,4.8828,4.8867,4.8887,4.9062,4.9219,4.9023,4.8691,4.8379,4.8223,4.791,4.7226,4.7734,4.7441,4.6777,4.6367,4.6406,4.6152,4.6348,4.6816,4.709,4.7324,4.7207,4.6659,4.3885,4.0718,3.7755,3.4679,3.1697,2.9569,2.9353,2.9138,2.9366,2.9686,2.9927,3.0261,3.0715,3.1183,3.161,3.1984,3.2372,3.2639,3.2826,3.2919,3.2986,3.308,3.312,5.2929,5.2929,5.2929,5.2929,5.2929,5.2929,5.2929,5.2929,5.2929,5.2929,5.2929,5.2929,5.2628,5.2126,5.1925,5.1398,5.0569,5.0368,5.0569,5.1197,5.2226,5.2742,5.2978,5.3268,5.3869,5.4545,5.5089,5.4497,5.369,5.3004,5.1858,5.0063,4.9916,4.9619,5.053,5.0789,5.1443,5.2529,5.2241,5.2104,5.199,5.007,4.918,4.9764,4.8906,4.887,4.9252,4.8404,4.8847,4.9603,4.7622,4.5625,4.5918,4.6094,4.5898,4.5644,4.5859,4.6055,4.5859,4.6523,4.7207,4.7207,4.7715,4.8144,4.8262,4.8398,4.8555,4.875,4.8848,4.8906,4.8984,4.9219,4.9219,4.9121,4.8965,4.8808,4.8672,4.8418,4.8125,4.7949,4.7773,4.7383,4.6543,4.6973,4.6914,4.6562,4.6639,4.7402,4.7515,4.7366,4.6553,4.5649,4.3543,4.0186,3.7466,3.4547,3.1926,3.0109,2.9824,2.9579,2.9806,2.9953,3.0207,3.0541,3.0929,3.141,3.1904,3.2251,3.2599,3.2853,3.3053,3.304,3.3066,3.3173,3.3253,5.2929,5.2929,5.2929,5.2929,5.2929,5.2929,5.2929,5.2929,5.2929,5.2929,5.2929,5.2929,5.2754,5.2477,5.2226,5.1724,5.1272,5.0921,5.1122,5.1674,5.2327,5.2666,5.2939,5.3543,5.4235,5.5071,5.4402,5.3784,5.2934,5.1734,5.043,4.8844,4.8222,4.8498,4.8776,4.8852,4.9623,5.0318,4.9862,4.9766,5.0079,4.7924,4.633,4.6832,4.6613,4.6922,4.7354,4.7441,4.7528,4.7935,4.724,4.666,4.6815,4.6719,4.6367,4.6113,4.6133,4.6348,4.6484,4.6855,4.7324,4.7519,4.7988,4.8242,4.8437,4.8516,4.873,4.9043,4.9199,4.9238,4.9433,4.916,4.9141,4.918,4.8984,4.8867,4.8808,4.8652,4.8418,4.8301,4.8203,4.7773,4.75,4.7262,4.7223,4.6853,4.4845,4.5349,4.5188,4.4964,4.4059,4.2917,4.1561,3.9462,3.7038,3.4279,3.1702,3.0501,3.0341,3.0287,3.0354,3.0434,3.0515,3.0849,3.1183,3.169,3.2158,3.2492,3.2746,3.2906,3.3026,3.3066,3.308,3.3093,3.3187,5.3005,5.2929,5.2929,5.2929,5.2929,5.2929,5.2929,5.2929,5.2929,5.2929,5.2929,5.2929,5.2904,5.2804,5.2452,5.2226,5.195,5.1674,5.1674,5.2026,5.2277,5.2641,5.3028,5.3543,5.431,5.5516,5.4081,5.2902,5.1977,5.0588,4.8868,4.8165,4.775,4.7247,4.7286,4.7343,4.8065,4.9176,4.7843,4.6947,4.7276,4.5101,4.3871,4.3659,4.4295,4.4945,4.5678,4.6087,4.6153,4.5306,4.6709,4.7503,4.7623,4.7268,4.6894,4.6523,4.6601,4.6719,4.6933,4.7168,4.7539,4.8183,4.8301,4.8476,4.875,4.8808,4.8965,4.916,4.9316,4.9433,4.9844,4.9355,4.9121,4.9219,4.9043,4.8887,4.8848,4.8848,4.8633,4.834,4.8379,4.8183,4.7373,4.696,4.6999,4.6657,4.4636,4.3253,4.3064,4.2708,4.2021,4.1247,4.0263,3.7706,3.5147,3.4305,3.1705,3.1076,3.0929,3.0942,3.0929,3.1076,3.1156,3.1129,3.145,3.1917,3.2332,3.2652,3.2853,3.2959,3.3,3.3026,3.3013,3.2986,3.3106,5.3331,5.2929,5.2929,5.2929,5.2929,5.2929,5.2929,5.2929,5.2929,5.2929,5.2929,5.2929,5.2929,5.2879,5.2879,5.2553,5.2201,5.2026,5.2026,5.2251,5.2528,5.2867,5.2978,5.3088,5.3878,5.4345,5.3144,5.1731,5.0883,4.9189,4.7292,4.5148,4.4804,4.5164,4.5658,4.5656,4.6616,4.7887,4.6699,4.586,4.5209,4.4588,4.38,4.3601,4.4375,4.5117,4.5605,4.6074,4.625,4.6246,4.7437,4.8169,4.8311,4.7856,4.748,4.7383,4.7266,4.7285,4.7539,4.7793,4.8008,4.8262,4.8516,4.8711,4.8828,4.8867,4.8965,4.9023,4.9062,4.9062,4.9062,4.8594,4.8721,4.876,4.837,4.8273,4.8459,4.8235,4.7915,4.7182,4.7703,4.8371,4.7098,4.6045,4.5408,4.4524,4.2498,4.1457,4.114,4.0941,4.059,3.9836,3.911,3.6223,3.3133,3.2832,3.1851,3.1557,3.1436,3.1503,3.1557,3.177,3.1837,3.1623,3.1664,3.2011,3.2398,3.2772,3.2919,3.2986,3.2986,3.2959,3.2906,3.2866,3.2986,5.3557,5.3306,5.3055,5.2929,5.2929,5.2929,5.2929,5.2929,5.2929,5.2929,5.2929,5.2929,5.2929,5.2929,5.2929,5.2754,5.2603,5.2528,5.2528,5.2628,5.2804,5.2842,5.2576,5.2256,5.1269,5.0477,4.9593,4.994,5.0206,4.7671,4.5844,4.4848,4.4394,4.4423,4.4583,4.4583,4.4872,4.5553,4.4768,4.419,4.3896,4.3812,4.4216,4.4631,4.543,4.6289,4.6914,4.7129,4.748,4.769,4.8301,4.8699,4.8699,4.8601,4.8223,4.8144,4.7851,4.7832,4.8086,4.8301,4.8281,4.8535,4.875,4.8828,4.8848,4.8867,4.8945,4.9121,4.9199,4.8621,4.731,4.7234,4.6354,4.5191,4.5002,4.5191,4.5002,4.5002,4.4955,4.5278,4.68,4.717,4.5871,4.48,4.3812,4.2176,4.0296,3.9452,3.8985,3.8466,3.8138,3.7432,3.6471,3.539,3.2989,3.2713,3.2385,3.2104,3.1944,3.2024,3.1998,3.2118,3.2038,3.1837,3.1984,3.2198,3.2452,3.2812,3.2906,3.2919,3.2706,3.2572,3.2692,3.2772,3.2893,5.3909,5.3658,5.3256,5.303,5.2929,5.2929,5.2929,5.2929,5.2929,5.2929,5.2929,5.2929,5.2929,5.2955,5.3055,5.308,5.308,5.308,5.308,5.3055,5.2955,5.2817,5.2362,5.0833,4.8798,4.6131,4.6334,4.6834,4.8467,4.6555,4.5261,4.5019,4.5078,4.4805,4.4444,4.4454,4.3186,4.2663,4.2275,4.2695,4.3086,4.3887,4.4785,4.5273,4.6367,4.7246,4.791,4.8008,4.8203,4.8496,4.873,4.8808,4.8973,4.8828,4.8848,4.875,4.8183,4.832,4.8516,4.8574,4.8516,4.8769,4.8828,4.8848,4.8848,4.8887,4.8984,4.9316,4.9355,4.8137,4.6293,4.5354,4.3867,4.229,4.1716,4.1332,4.1716,4.2048,4.2104,4.3156,4.5572,4.5352,4.3634,4.1883,4.0419,3.9578,3.7709,3.6743,3.6261,3.5308,3.4717,3.4142,3.3748,3.394,3.3053,3.3211,3.2866,3.2652,3.2545,3.2572,3.2438,3.2345,3.2211,3.2118,3.2238,3.2452,3.2666,3.2732,3.2746,3.2625,3.2305,3.2332,3.2666,3.2576,3.2419,5.4612,5.3708,5.3632,5.3356,5.298,5.2929,5.2929,5.2929,5.2929,5.2929,5.2929,5.2929,5.2929,5.308,5.3457,5.3607,5.3607,5.3607,5.3582,5.3482,5.3181,5.2953,5.2552,5.0934,4.6803,4.3721,4.4092,4.5565,4.6497,4.5283,4.4844,4.5254,4.5234,4.5098,4.5156,4.4941,4.4533,4.4324,4.3797,4.373,4.4101,4.4648,4.5371,4.6016,4.6719,4.7344,4.8047,4.8164,4.8483,4.8783,4.8875,4.8856,4.8901,4.8895,4.8828,4.8848,4.8769,4.875,4.8867,4.8769,4.8769,4.8906,4.8887,4.8867,4.8848,4.8867,4.8887,4.8887,4.8799,4.7159,4.5083,4.4714,4.3469,4.1766,4.0077,4.0416,4.0577,3.901,3.9047,3.9291,4.124,4.1147,4.0248,3.8513,3.6875,3.6238,3.5356,3.4563,3.3844,3.3238,3.32,3.3066,3.304,3.3213,3.3267,3.3253,3.32,3.3053,3.2986,3.2946,3.2746,3.2545,3.2519,3.2478,3.2519,3.2372,3.2318,3.2345,3.2465,3.2425,3.2225,3.2465,3.2853,3.2458,3.2209,5.6143,5.5039,5.4084,5.3582,5.3356,5.3055,5.2929,5.2929,5.2929,5.2929,5.2929,5.2929,5.308,5.3406,5.3934,5.4185,5.4185,5.4185,5.3984,5.3758,5.3482,5.3242,5.2231,4.9605,4.5596,4.2666,4.212,4.2913,4.362,4.4211,4.4375,4.4941,4.5449,4.5683,4.5781,4.5801,4.5484,4.5202,4.4926,4.4887,4.4837,4.5234,4.5918,4.6308,4.7129,4.7617,4.7832,4.8125,4.8508,4.8689,4.8547,4.8424,4.8705,4.8679,4.8652,4.9219,4.8984,4.8984,4.918,4.9004,4.9004,4.9082,4.9023,4.8848,4.8848,4.8867,4.8223,4.7084,4.6914,4.5227,4.2251,4.1179,3.948,3.825,3.7946,3.7416,3.7356,3.6903,3.6239,3.6486,3.6699,3.7024,3.7433,3.6989,3.5602,3.4672,3.4283,3.3789,3.3314,3.2942,3.2973,3.3253,3.328,3.3347,3.336,3.3347,3.3334,3.32,3.3013,3.2973,3.2866,3.2746,3.2572,3.2332,3.2118,3.1998,3.1917,3.2038,3.2238,3.2238,3.2198,3.2452,3.2719,3.2749,3.2353,5.7399,5.6495,5.4963,5.411,5.3683,5.3281,5.303,5.2929,5.2929,5.2929,5.298,5.308,5.3381,5.3808,5.4386,5.4762,5.4762,5.4787,5.4411,5.4059,5.3733,5.3368,5.1859,4.9031,4.501,4.1285,4.1317,4.1679,4.2053,4.2676,4.3535,4.4355,4.4961,4.5625,4.5976,4.6074,4.5859,4.5273,4.5825,4.5608,4.4883,4.5566,4.6035,4.6523,4.7109,4.7695,4.7656,4.7832,4.8291,4.8215,4.8055,4.7993,4.8272,4.8326,4.8457,4.8906,4.8848,4.9062,4.9199,4.916,4.9121,4.9141,4.9121,4.8848,4.8848,4.8867,4.796,4.5932,4.5734,4.2986,3.9489,3.838,3.7344,3.5989,3.449,3.3936,3.3775,3.4282,3.4488,3.4647,3.4493,3.399,3.4464,3.509,3.4576,3.3538,3.3026,3.3053,3.2919,3.2706,3.2879,3.3253,3.3347,3.3387,3.34,3.34,3.3387,3.3293,3.3093,3.2906,3.2759,3.2532,3.2278,3.2024,3.1824,3.1784,3.1784,3.1904,3.1998,3.1998,3.2038,3.2265,3.2519,3.2616,3.2073,5.7851,5.7675,5.652,5.5164,5.3808,5.3683,5.3381,5.3005,5.298,5.298,5.308,5.3482,5.3733,5.4059,5.4838,5.534,5.534,5.5315,5.4938,5.4436,5.3984,5.3478,5.1722,4.891,4.5057,4.1765,4.1128,4.1152,4.1328,4.1797,4.2988,4.4199,4.4258,4.5019,4.5605,4.5879,4.5918,4.5547,4.5778,4.5582,4.5156,4.5449,4.584,4.6172,4.6426,4.6777,4.75,4.7598,4.75,4.7544,4.7464,4.7383,4.7601,4.8013,4.8242,4.8574,4.8808,4.9062,4.9297,4.9141,4.8926,4.8906,4.8926,4.8965,4.8984,4.8906,4.7569,4.5426,4.4814,4.2402,3.9594,3.7702,3.6371,3.5225,3.4082,3.3895,3.3721,3.3574,3.376,3.3251,3.2919,3.2919,3.2893,3.3918,3.4255,3.3184,3.3013,3.3026,3.312,3.2986,3.3013,3.32,3.332,3.3374,3.34,3.3374,3.3267,3.3133,3.2973,3.2759,3.2572,3.2318,3.2104,3.1957,3.181,3.173,3.1704,3.1864,3.1944,3.1837,3.1931,3.2318,3.2274,3.2207,3.159,5.7901,5.7876,5.7775,5.6796,5.5214,5.4888,5.4235,5.3482,5.3406,5.3406,5.3432,5.3768,5.4219,5.4838,5.544,5.5892,5.5892,5.5892,5.5315,5.4762,5.4336,5.3743,5.1864,4.8864,4.5075,4.1963,4.1257,4.1172,4.1211,4.1387,4.1816,4.2637,4.3281,4.418,4.4883,4.568,4.5856,4.5413,4.5144,4.474,4.5156,4.5137,4.5351,4.5488,4.6152,4.6387,4.6777,4.7051,4.7012,4.6756,4.6875,4.6914,4.7268,4.7598,4.8086,4.8476,4.875,4.9062,4.9336,4.9121,4.8867,4.8926,4.9101,4.9238,4.8769,4.9052,4.6893,4.492,4.3283,4.1029,3.7011,3.6064,3.5595,3.4689,3.4255,3.4068,3.3855,3.3681,3.3494,3.32,3.3173,3.3187,3.316,3.3332,3.3251,3.3,3.3,3.3026,3.3146,3.3213,3.32,3.3227,3.3334,3.3334,3.3347,3.324,3.3106,3.2946,3.2799,3.2572,3.2345,3.2265,3.2064,3.1917,3.181,3.177,3.1784,3.1891,3.1931,3.1917,3.2185,3.2559,3.23,3.1952,3.1603,5.5643,5.5741,5.6415,5.6717,5.6323,5.6043,5.5239,5.4336,5.4235,5.4084,5.4009,5.4511,5.4938,5.544,5.5717,5.5917,5.5792,5.5616,5.5064,5.4252,5.352,5.3247,5.1459,4.8315,4.4209,4.1732,4.1158,4.1172,4.1172,4.1172,4.1445,4.1914,4.248,4.3183,4.4307,4.547,4.5963,4.5102,4.4491,4.4109,4.4694,4.4844,4.498,4.5078,4.5605,4.5937,4.6211,4.6504,4.6699,4.6464,4.6464,4.6699,4.7031,4.75,4.8047,4.8476,4.8828,4.9023,4.9141,4.9082,4.8848,4.8906,4.7626,4.7816,4.7949,4.714,4.3505,4.1359,4.0633,3.918,3.5058,3.5039,3.5409,3.4763,3.4456,3.4229,3.3961,3.3748,3.3574,3.3374,3.3334,3.3187,3.316,3.3106,3.316,3.312,3.32,3.3213,3.3267,3.3307,3.328,3.332,3.3387,3.3347,3.328,3.3133,3.2946,3.2585,3.2425,3.2265,3.2091,3.2038,3.1971,3.181,3.1757,3.1784,3.1837,3.1904,3.1998,3.2078,3.2345,3.2599,3.2706,3.23,3.2564,5.0653,5.05,5.2058,5.414,5.6427,5.6849,5.6051,5.4812,5.5077,5.4633,5.4116,5.4927,5.5246,5.5102,5.4982,5.4932,5.4857,5.4652,5.396,5.2804,5.1657,5.1728,5.0123,4.7016,4.3569,4.1726,4.1148,4.1172,4.1172,4.1172,4.123,4.123,4.1621,4.2129,4.3307,4.5297,4.5529,4.4492,4.3933,4.3948,4.4188,4.4297,4.4473,4.4668,4.5019,4.5312,4.5703,4.6094,4.6328,4.6523,4.6738,4.6875,4.709,4.7676,4.8066,4.8183,4.8594,4.8808,4.8887,4.8848,4.8273,4.7512,4.5677,4.4921,4.4246,4.2206,3.9917,3.9055,3.8523,3.7402,3.5514,3.479,3.4963,3.4897,3.4563,3.4336,3.4055,3.3814,3.3654,3.3387,3.3173,3.3013,3.3013,3.304,3.3173,3.3253,3.336,3.34,3.3387,3.3374,3.332,3.324,3.3267,3.3146,3.3053,3.2973,3.2759,3.2372,3.2091,3.1971,3.1877,3.1824,3.1744,3.1677,3.169,3.173,3.181,3.1877,3.1971,3.2064,3.2265,3.2465,3.2559,3.2679,3.2812,4.985,5.0209,5.1018,5.2149,5.3452,5.3645,5.3202,5.254,5.3784,5.3521,5.1605,5.1475,5.2273,5.2764,5.3011,5.2865,5.2817,5.2768,5.1995,4.9899,4.9075,4.8223,4.7141,4.5574,4.305,4.1635,4.1148,4.1172,4.1172,4.1172,4.1172,4.1172,4.123,4.1719,4.2739,4.3929,4.4265,4.3848,4.338,4.3002,4.3535,4.3574,4.3672,4.3867,4.4355,4.4844,4.5254,4.5683,4.6152,4.6582,4.6894,4.7129,4.7305,4.7832,4.7832,4.791,4.8223,4.8574,4.8158,4.7493,4.5361,4.4264,4.3209,4.2511,4.2437,4.1824,3.9895,3.7961,3.7406,3.6219,3.4707,3.4783,3.4763,3.4643,3.4402,3.4309,3.4095,3.3908,3.3708,3.336,3.3093,3.3146,3.316,3.3,3.3053,3.3106,3.3173,3.332,3.3347,3.336,3.332,3.3133,3.3053,3.2919,3.2812,3.2759,3.2612,3.2265,3.1984,3.1784,3.1704,3.1677,3.1677,3.1677,3.1677,3.1677,3.173,3.1797,3.1917,3.2051,3.2265,3.2358,3.2398,3.2585,3.2812,4.6932,4.7276,4.8057,4.8328,4.9016,5.0894,5.1263,5.0928,5.2542,5.1994,4.9583,4.7662,4.8244,5.0192,5.0624,5.0367,5.0343,4.9986,4.9723,4.7544,4.6778,4.6217,4.5254,4.3669,4.2281,4.1376,4.1207,4.1172,4.1172,4.1172,4.1172,4.1172,4.1172,4.1465,4.2031,4.2602,4.3033,4.3066,4.2942,4.3001,4.3203,4.3262,4.3379,4.3594,4.4004,4.4551,4.4922,4.5469,4.6133,4.666,4.7129,4.7441,4.7715,4.7793,4.7871,4.8066,4.8262,4.8207,4.7045,4.6336,4.4211,4.1924,4.0821,4.0334,3.9959,3.8688,3.7718,3.6603,3.6549,3.5646,3.4368,3.4442,3.4629,3.4523,3.4416,3.4322,3.4175,3.3988,3.3561,3.324,3.304,3.3146,3.316,3.3053,3.2919,3.2946,3.2973,3.3093,3.3213,3.3227,3.32,3.304,3.2959,3.2919,3.2759,3.2599,3.2412,3.2144,3.1917,3.169,3.1677,3.1677,3.1677,3.1664,3.1637,3.1623,3.1623,3.1677,3.1677,3.1917,3.2291,3.2332,3.2278,3.2398,3.2585,4.2112,4.2072,4.2856,4.3372,4.3997,4.8359,5.0275,5.05,5.0816,5.0142,4.8741,4.4369,4.5011,4.796,4.797,4.7768,4.7723,4.7195,4.6788,4.6107,4.4676,4.4461,4.3767,4.2544,4.1693,4.1424,4.1172,4.1172,4.1172,4.1172,4.1172,4.1172,4.1172,4.1289,4.1465,4.1522,4.1931,4.2461,4.2778,4.2896,4.2891,4.3242,4.3359,4.3574,4.3965,4.4316,4.4785,4.5449,4.6094,4.6758,4.7461,4.7949,4.8223,4.8223,4.8476,4.8652,4.873,4.7583,4.6523,4.5755,4.4211,4.2099,3.9625,3.8277,3.713,3.6414,3.5067,3.4737,3.4432,3.4381,3.3961,3.4336,3.4696,3.4589,3.4496,3.4376,3.4229,3.3908,3.3414,3.3093,3.2906,3.2853,3.2759,3.2679,3.2652,3.2572,3.2545,3.2545,3.2692,3.2933,3.2906,3.2893,3.2853,3.2946,3.2732,3.2265,3.2185,3.1917,3.1837,3.1677,3.1677,3.165,3.161,3.1583,3.157,3.1517,3.137,3.1316,3.1316,3.1637,3.1984,3.2064,3.1944,3.1984,3.2051,4.5227,4.3906,4.4153,4.3695,4.2939,4.426,4.5188,4.5719,4.6467,4.6135,4.4722,4.2546,4.3319,4.566,4.5384,4.5234,4.5127,4.4762,4.3856,4.3228,4.279,4.239,4.2102,4.1638,4.1172,4.1172,4.1172,4.1172,4.1172,4.1172,4.1172,4.1172,4.1172,4.1172,4.1211,4.1269,4.1621,4.1894,4.219,4.2484,4.2598,4.2891,4.3086,4.3379,4.3789,4.4101,4.4609,4.543,4.6113,4.6855,4.7676,4.8281,4.8672,4.8398,4.832,4.8359,4.8418,4.811,4.7436,4.5943,4.4778,4.3642,4.1524,3.9221,3.7282,3.5536,3.3987,3.4068,3.3721,3.3641,3.3855,3.4202,3.4496,3.4523,3.4456,3.4402,3.4229,3.3828,3.3334,3.2853,3.2666,3.2505,3.2412,3.2385,3.2345,3.2211,3.2104,3.2051,3.2118,3.2358,3.2519,3.2492,3.2372,3.2372,3.2051,3.1597,3.169,3.1704,3.1677,3.1677,3.1677,3.1637,3.1557,3.141,3.1236,3.1102,3.0996,3.0929,3.0835,3.1142,3.1463,3.1557,3.1637,3.1717,3.1637,4.6734,4.5535,4.4778,4.3473,4.2053,4.1933,4.2266,4.2856,4.3636,4.3396,4.2519,4.1597,4.2033,4.3136,4.3065,4.2943,4.2963,4.2943,4.235,4.1907,4.1172,4.1327,4.1172,4.1172,4.1172,4.1172,4.1172,4.1172,4.1191,4.1172,4.1172,4.1172,4.1172,4.1172,4.1172,4.1211,4.1308,4.1543,4.1915,4.1992,4.2305,4.2676,4.3008,4.3144,4.3594,4.4082,4.4512,4.541,4.6367,4.7031,4.7832,4.8535,4.8887,4.873,4.8574,4.8652,4.8769,4.8926,4.8524,4.7588,4.6766,4.5961,4.4229,4.229,3.9981,3.7855,3.6312,3.5182,3.4227,3.3507,3.3774,3.4042,3.4215,3.4389,3.4402,3.4429,3.4108,3.3748,3.3227,3.2679,3.2398,3.2225,3.2131,3.2104,3.1917,3.1597,3.1423,3.1383,3.1476,3.1677,3.1891,3.1984,3.1784,3.1623,3.1303,3.1183,3.1396,3.1583,3.1677,3.1677,3.1677,3.1597,3.1503,3.1169,3.0795,3.0688,3.0608,3.0408,3.0341,3.0688,3.0955,3.1036,3.1276,3.1597,3.1396,4.749,4.7051,4.5127,4.3421,4.1618,4.1677,4.1561,4.125,4.2031,4.2109,4.1777,4.1345,4.1269,4.1717,4.1618,4.1618,4.1618,4.1618,4.1618,4.1172,4.1172,4.1172,4.1172,4.1172,4.1172,4.1172,4.125,4.1367,4.125,4.1211,4.1172,4.1172,4.1172,4.1172,4.1172,4.1172,4.1289,4.1484,4.2033,4.2386,4.2461,4.2969,4.3476,4.3281,4.375,4.4355,4.4805,4.5703,4.6894,4.7324,4.7988,4.875,4.8945,4.9199,4.9121,4.9121,4.918,4.9297,4.9277,4.8691,4.8517,4.7883,4.6728,4.5567,4.3434,3.9981,3.805,3.6509,3.5366,3.4296,3.4138,3.4165,3.4148,3.4269,3.4322,3.4255,3.4002,3.3534,3.2906,3.2425,3.2158,3.1971,3.1757,3.1717,3.1717,3.1169,3.0915,3.0915,3.0862,3.1049,3.1129,3.1316,3.1116,3.0942,3.0955,3.0915,3.1223,3.141,3.153,3.1583,3.1517,3.1476,3.1436,3.1036,3.0608,3.0368,3.0207,3.0087,3.0074,3.0274,3.0488,3.0555,3.0822,3.1236,3.1062,5.0576,4.9081,4.7175,4.5127,4.3511,4.3359,4.2483,4.1191,4.1367,4.1426,4.1328,4.1308,4.1269,4.1191,4.1172,4.1172,4.1172,4.1172,4.1172,4.1172,4.1172,4.1172,4.1172,4.1172,4.1172,4.1289,4.1445,4.1562,4.1465,4.1308,4.1172,4.1172,4.1172,4.1172,4.1172,4.1172,4.1289,4.1504,4.1738,4.2151,4.2051,4.2402,4.2773,4.3086,4.3652,4.4101,4.4687,4.5664,4.6484,4.7051,4.8203,4.873,4.8867,4.9297,4.9453,4.9433,4.9531,4.9629,4.9512,4.9258,4.9004,4.8906,4.8312,4.8088,4.6336,4.2499,3.9787,3.8246,3.6553,3.5322,3.4473,3.4274,3.4028,3.4122,3.4215,3.4055,3.3868,3.3227,3.2585,3.2265,3.1971,3.1744,3.1517,3.137,3.1356,3.1183,3.0929,3.0755,3.0448,3.0448,3.0301,3.0394,3.0327,3.0247,3.0381,3.0581,3.0849,3.1089,3.1223,3.1289,3.1356,3.1129,3.0929,3.0755,3.0474,3.0207,3.002,2.994,2.9967,3.0087,3.0181,3.0314,3.0434,3.0768,3.0528,5.2327,5.0998,4.9105,4.7175,4.5574,4.5425,4.4247,4.2596,4.1629,4.1246,4.1152,4.1172,4.1172,4.1172,4.1172,4.1172,4.1172,4.1172,4.1172,4.1172,4.1211,4.1172,4.1172,4.1191,4.1172,4.1269,4.1387,4.1484,4.1543,4.1367,4.1172,4.1172,4.1172,4.1172,4.1172,4.1191,4.1289,4.1484,4.1543,4.1543,4.1621,4.207,4.2617,4.3066,4.3476,4.3926,4.4648,4.5566,4.623,4.6914,4.7871,4.8594,4.8945,4.9492,4.9785,4.9883,4.998,5.0098,4.9883,4.957,4.9238,4.9238,4.8945,4.8517,4.8672,4.5354,4.3709,4.1981,3.784,3.6216,3.555,3.5132,3.4152,3.3814,3.3881,3.3828,3.3427,3.2853,3.2438,3.2198,3.1984,3.1864,3.157,3.1156,3.1076,3.0755,3.0568,3.0421,3.0154,2.9953,2.9766,2.9633,2.9673,2.982,3.0047,3.0234,3.0408,3.0648,3.0875,3.1196,3.1316,3.0768,3.0408,3.0434,3.0327,3.0034,2.9873,2.978,2.9847,2.998,3.006,3.014,3.0234,3.0274,3.01,5.2929,5.2629,5.0998,4.9248,4.749,4.7321,4.6293,4.4292,4.218,4.139,4.1578,4.1327,4.1172,4.1172,4.1172,4.1172,4.1172,4.1172,4.1172,4.1289,4.1308,4.1348,4.1328,4.1269,4.1289,4.125,4.1289,4.1348,4.1406,4.125,4.1172,4.1172,4.1172,4.1172,4.1172,4.1172,4.123,4.125,4.1269,4.1211,4.1504,4.1914,4.2441,4.2949,4.3398,4.3848,4.4531,4.5273,4.5996,4.6582,4.7246,4.8209,4.8895,4.9463,4.9726,4.9922,5.0254,5.041,5.041,4.9941,4.9844,4.9726,4.9219,4.9004,4.9121,4.8235,4.6577,4.4347,4.0252,3.7748,3.6889,3.5621,3.4626,3.3494,3.3547,3.3467,3.2946,3.2492,3.2265,3.2038,3.1891,3.1784,3.141,3.0996,3.0715,3.0381,3.0167,2.998,2.9806,2.9673,2.9513,2.9366,2.9312,2.9499,2.9593,2.9873,3.002,3.0181,3.0448,3.0982,3.1236,3.0688,3.0368,3.0381,3.0221,2.982,2.9686,2.9619,2.9726,2.9793,2.9833,2.9847,2.9833,2.9847,2.978,5.2929,5.2929,5.2491,5.1163,4.9534,4.9391,4.8361,4.6058,4.2911,4.2089,4.28,4.1753,4.1172,4.1172,4.1172,4.1172,4.1172,4.1211,4.1445,4.1641,4.1582,4.1641,4.1582,4.1269,4.1229,4.1132,4.1152,4.1367,4.1367,4.125,4.1172,4.1172,4.1172,4.1172,4.1172,4.1172,4.1172,4.1172,4.1172,4.1172,4.1289,4.168,4.209,4.2539,4.2969,4.3398,4.3984,4.4766,4.5137,4.5644,4.6426,4.7522,4.8409,4.8856,4.9141,4.9551,4.9922,5.0234,5.0117,5.0,4.9941,4.9746,4.9238,4.8828,4.8613,4.7988,4.6715,4.6209,4.2821,3.9969,3.8607,3.646,3.5151,3.3755,3.3253,3.2853,3.2385,3.2144,3.1931,3.1664,3.141,3.1183,3.0849,3.0595,3.0555,3.0301,3.0207,2.9993,2.9526,2.9379,2.9312,2.9205,2.9098,2.8698,2.8604,2.9379,2.9659,2.978,3.0034,3.0581,3.0795,3.0568,3.0368,3.0341,2.9953,2.9486,2.9419,2.9513,2.9392,2.9432,2.9513,2.9539,2.9526,2.9539,2.9553]},{"header":{"parameterUnit":"m.s-1","parameterCategory":1,"la1":31.0,"la2":29.5877,"lo1":-88.7671,"lo2":-86.6584,"dy":0.0162,"dx":0.0185,"nx":115,"ny":88,"refTime":"2023-10-14T18:00:00:Z","depth":0,"parameterNumber":3,"parameterNumberName":"V-component_of_WINDS"},"data":[0.0,0.0,0.0,0.0,0.0,0.0,0.0,0.0,0.0,0.0,0.0,0.0,0.0,0.0,0.0,0.0,0.0,0.0,0.0,0.0,0.0,0.0,0.0,0.0,0.0,0.0,0.0,0.0,0.0,0.0,0.0,0.0,0.0,0.0,0.0,0.0,0.0,0.0,0.0,0.0,0.0,0.0,0.0,0.0,0.0,0.0,0.0,0.0,0.0,0.0,0.0,0.0,0.0,0.0,0.0,0.0,0.0,0.0,0.0,0.0,0.0,0.0,0.0,0.0,0.0,0.0,0.0,0.0,0.0,0.0,0.0,0.0,0.0,0.0,0.0,0.0,0.0,0.0,0.0,0.0,0.0,0.0,0.0,0.0,0.0,0.0,0.0,0.0,0.0,0.0,0.0,0.0,0.0,0.0,0.0,0.0,0.0,0.0,0.0,0.0,0.0,0.0,0.0,0.0,0.0,0.0,0.0,0.0,0.0,0.0,0.0,0.0,0.0,0.0,0.0,0.0,0.0,0.0,0.0,0.0,0.0,0.0,0.0,0.0,0.0,0.0,0.0,0.0,0.0,0.0,0.0,0.0,0.0,0.0,0.0,0.0,0.0,0.0,0.0,0.0,0.0,0.0,0.0,0.0,0.0,0.0,0.0,0.0,0.0,0.0,0.0,0.0,0.0,0.0,0.0,0.0,0.0,0.0,0.0,0.0,0.0,0.0,0.0,0.0,0.0,0.0,0.0,0.0,0.0,0.0,0.0,0.0,0.0,0.0,0.0,0.0,0.0,0.0,0.0,0.0,0.0,0.0,0.0,0.0,0.0,0.0,0.0,0.0,0.0,0.0,0.0,0.0,0.0,0.0,0.0,0.0,0.0,0.0,0.0,0.0,0.0,0.0,0.0,0.0,0.0,0.0,0.0,0.0,0.0,0.0,0.0,0.0,0.0,0.0,0.0,0.0,0.0,0.0,0.0,0.0,0.0,0.0,0.0,0.0,0.0,0.0,0.0,0.0,0.0,0.0,0.0,0.0,0.0,0.0,0.0,0.0,0.0,0.0,0.0,0.0,0.0,0.0,0.0,0.0,0.0,0.0,0.0,0.0,0.0,0.0,0.0,0.0,0.0,0.0,0.0,0.0,0.0,0.0,0.0,0.0,0.0,0.0,0.0,0.0,0.0,0.0,0.0,0.0,0.0,0.0,0.0,0.0,0.0,0.0,0.0,0.0,0.0,0.0,0.0,0.0,0.0,0.0,0.0,0.0,0.0,0.0,0.0,0.0,0.0,0.0,0.0,0.0,0.0,0.0,0.0,0.0,0.0,0.0,0.0,0.0,0.0,0.0,0.0,0.0,0.0,0.0,0.0,0.0,0.0,0.0,0.0,0.0,0.0,0.0,0.0,0.0,0.0,0.0,0.0,0.0,0.0,0.0,0.0,0.0,0.0,0.0,0.0,0.0,0.0,0.0,0.0,0.0,0.0,0.0,0.0,0.0,0.0,0.0,0.0,0.0,0.0,0.0,0.0,0.0,0.0,0.0,0.0,0.0,0.0,0.0,0.0,0.0,0.0,0.0,0.0,0.0,0.0,0.0,0.0,0.0,0.0,0.0,0.0,0.0,0.0,0.0,0.0,0.0,0.0,0.0,0.0,0.0,0.0,0.0,0.0,0.0,0.0,0.0,0.0,0.0,0.0,0.0,0.0,0.0,0.0,0.0,0.0,0.0,0.0,0.0,0.0,0.0,0.0,0.0,0.0,0.0,0.0,0.0,0.0,0.0,0.0,0.0,0.0,0.0,0.0,0.0,0.0,0.0,0.0,0.0,0.0,0.0,0.0,0.0,0.0,0.0,0.0,0.0,0.0,0.0,0.0,0.0,0.0,0.0,0.0,0.0,0.0,0.0,0.0,0.0,0.0,0.0,0.0,0.0,0.0,0.0,0.0,0.0,0.0,0.0,0.0,0.0,0.0,0.0,0.0,0.0,0.0,0.0,0.0,0.0,0.0,0.0,0.0,0.0,0.0,0.0,0.0,0.0,0.0,0.0,0.0,0.0,0.0,0.0,0.0,0.0,0.0,0.0,0.0,0.0,0.0,0.0,0.0,0.0,0.0,0.0,0.0,0.0,0.0,0.0,0.0,0.0,0.0,0.0,0.0,0.0,0.0,0.0,0.0,0.0,0.0,0.0,0.0,0.0,0.0,0.0,0.0,0.0,0.0,0.0,0.0,0.0,0.0,0.0,0.0,0.0,0.0,0.0,0.0,0.0,0.0,0.0,0.0,0.0,0.0,0.0,0.0,0.0,0.0,0.0,0.0,0.0,0.0,0.0,0.0,0.0,0.0,0.0,0.0,0.0,0.0,0.0,0.0,0.0,0.0,0.0,0.0,0.0,0.0,0.0,0.0,0.0,0.0,0.0,0.0,0.0,0.0,0.0,0.0,0.0,0.0,0.0,0.0,0.0,0.0,0.0,0.0,0.0,0.0,0.0,0.0,0.0,0.0,0.0,0.0,0.0,0.0,0.0,0.0,0.0,0.0,0.0,0.0,0.0,0.0,0.0,0.0,0.0,0.0,0.0,0.0,0.0,0.0,0.0,0.0,0.0,0.0,0.0,0.0,0.0,0.0,0.0,0.0,0.0,0.0,0.0,0.0,0.0,0.0,0.0,0.0,0.0,0.0,0.0,0.0,0.0,0.0,0.0,0.0,0.0,0.0,0.0,0.0,0.0,0.0,0.0,0.0,0.0,0.0,0.0,0.0,0.0,0.0,0.0,0.0,0.0,0.0,0.0,0.0,0.0,0.0,0.0,0.0,0.0,0.0,0.0,0.0,0.0,0.0,0.0,0.0,0.0,0.0,0.0,0.0,0.0,0.0,0.0,0.0,0.0,0.0,0.0,0.0,0.0,0.0,0.0,0.0,0.0,0.0,0.0,0.0,0.0,0.0,0.0,0.0,0.0,0.0,0.0,0.0,0.0,0.0,0.0,0.0,0.0,0.0,0.0,0.0,0.0,0.0,0.0,0.0,0.0,0.0,0.0,0.0,0.0,0.0,0.0,0.0,0.0,0.0,0.0,0.0,0.0,0.0,0.0,0.0,0.0,0.0,0.0,0.0,0.0,0.0,0.0,0.0,0.0,0.0,0.0,0.0,0.0,0.0,0.0,0.0,0.0,0.0,0.0,0.0,0.0,0.0,0.0,0.0,0.0,0.0,0.0,0.0,0.0,0.0,0.0,0.0,0.0,0.0,0.0,0.0,0.0,0.0,0.0,0.0,0.0,0.0,0.0,0.0,0.0,0.0,0.0,0.0,0.0,0.0,0.0,0.0,0.0,0.0,0.0,0.0,0.0,0.0,0.0,0.0,0.0,0.0,0.0,0.0,0.0,0.0,0.0,0.0,0.0,0.0,0.0,0.0,0.0,0.0,0.0,0.0,0.0,0.0,0.0,0.0,0.0,0.0,0.0,0.0,0.0,0.0,0.0,0.0,0.0,0.0,0.0,0.0,0.0,0.0,0.0,0.0,0.0,0.0,0.0,0.0,0.0,0.0,0.0,0.0,0.0,0.0,0.0,0.0,0.0,0.0,0.0,0.0,0.0,0.0,0.0,0.0,0.0,0.0,0.0,0.0,0.0,0.0,0.0,0.0,0.0,0.0,0.0,0.0,0.0,0.0,0.0,0.0,0.0,0.0,0.0,0.0,0.0,0.0,0.0,0.0,0.0,0.0,0.0,0.0,0.0,0.0,0.0,0.0,0.0,0.0,0.0,0.0,0.0,0.0,0.0,0.0,0.0,0.0,0.0,0.0,0.0,0.0,0.0,0.0,0.0,0.0,0.0,0.0,0.0,0.0,0.0,0.0,0.0,0.0,0.0,0.0,0.0,0.0,0.0,0.0,0.0,0.0,0.0,0.0,0.0,0.0,0.0,0.0,0.0,0.0,0.0,0.0,0.0,0.0,0.0,0.0,0.0,0.0,0.0,0.0,0.0,0.0,0.0,0.0,0.0,0.0,0.0,0.0,0.0,0.0,0.0,0.0,0.0,0.0,0.0,0.0,0.0,0.0,0.0,0.0,0.0,0.0,0.0,0.0,0.0,0.0,0.0,0.0,0.0,0.0,0.0,0.0,0.0,0.0,0.0,0.0,0.0,0.0,0.0,0.0,0.0,0.0,0.0,0.0,0.0,0.0,0.0,0.0,0.0,0.0,0.0,0.0,0.0,0.0,0.0,0.0,0.0,0.0,0.0,0.0,0.0,0.0,0.0,0.0,0.0,0.0,0.0,0.0,0.0,-2.5525,0.0,0.0,0.0,0.0,0.0,0.0,0.0,0.0,0.0,0.0,0.0,0.0,0.0,0.0,0.0,0.0,0.0,0.0,0.0,0.0,0.0,0.0,0.0,0.0,0.0,0.0,0.0,0.0,0.0,0.0,0.0,0.0,0.0,0.0,0.0,0.0,0.0,0.0,0.0,0.0,0.0,0.0,0.0,0.0,0.0,0.0,0.0,0.0,0.0,0.0,0.0,0.0,0.0,0.0,0.0,0.0,0.0,0.0,0.0,0.0,0.0,0.0,0.0,0.0,0.0,0.0,0.0,0.0,0.0,0.0,0.0,0.0,0.0,0.0,0.0,0.0,0.0,0.0,0.0,0.0,0.0,0.0,0.0,0.0,0.0,0.0,0.0,0.0,0.0,0.0,0.0,0.0,0.0,0.0,0.0,0.0,0.0,0.0,0.0,0.0,0.0,0.0,0.0,0.0,0.0,0.0,0.0,0.0,0.0,0.0,-2.8278,-2.759,-2.723,-2.6572,-2.5644,0.0,0.0,0.0,0.0,0.0,0.0,0.0,0.0,0.0,0.0,0.0,0.0,0.0,0.0,0.0,0.0,0.0,0.0,0.0,0.0,0.0,0.0,0.0,0.0,0.0,0.0,0.0,0.0,0.0,0.0,0.0,0.0,0.0,0.0,0.0,0.0,0.0,0.0,0.0,0.0,0.0,0.0,0.0,0.0,0.0,0.0,0.0,0.0,0.0,0.0,0.0,0.0,0.0,0.0,0.0,0.0,0.0,0.0,0.0,0.0,0.0,0.0,0.0,0.0,0.0,0.0,0.0,0.0,0.0,0.0,0.0,0.0,0.0,0.0,0.0,0.0,0.0,0.0,0.0,0.0,0.0,0.0,0.0,0.0,0.0,0.0,0.0,0.0,0.0,0.0,0.0,0.0,0.0,0.0,0.0,0.0,0.0,0.0,0.0,0.0,0.0,0.0,0.0,0.0,0.0,0.0,0.0,0.0,0.0,0.0,0.0,0.0,-2.7619,-2.6811,-2.5854,0.0,0.0,0.0,0.0,0.0,0.0,0.0,0.0,0.0,0.0,0.0,0.0,0.0,0.0,0.0,0.0,0.0,0.0,0.0,0.0,0.0,0.0,0.0,0.0,0.0,0.0,0.0,0.0,0.0,0.0,0.0,0.0,0.0,0.0,0.0,0.0,0.0,0.0,0.0,0.0,0.0,0.0,0.0,0.0,0.0,0.0,0.0,0.0,0.0,0.0,0.0,0.0,0.0,0.0,0.0,0.0,0.0,0.0,0.0,0.0,0.0,0.0,0.0,0.0,0.0,0.0,0.0,0.0,0.0,0.0,0.0,0.0,0.0,0.0,0.0,0.0,0.0,0.0,0.0,0.0,0.0,0.0,0.0,0.0,0.0,0.0,0.0,0.0,0.0,0.0,0.0,0.0,0.0,0.0,0.0,0.0,0.0,0.0,0.0,0.0,0.0,0.0,0.0,0.0,0.0,0.0,0.0,0.0,0.0,0.0,-2.7859,-3.0133,-2.9594,0.0,-2.6662,0.0,0.0,0.0,0.0,0.0,0.0,0.0,0.0,0.0,0.0,0.0,0.0,0.0,0.0,0.0,0.0,0.0,0.0,0.0,0.0,0.0,0.0,0.0,0.0,0.0,0.0,0.0,0.0,0.0,0.0,0.0,0.0,0.0,0.0,0.0,0.0,0.0,0.0,0.0,0.0,0.0,0.0,0.0,0.0,0.0,0.0,0.0,0.0,0.0,0.0,0.0,0.0,0.0,0.0,0.0,0.0,0.0,0.0,0.0,0.0,0.0,0.0,0.0,0.0,0.0,0.0,0.0,0.0,0.0,0.0,0.0,0.0,0.0,0.0,0.0,0.0,0.0,0.0,0.0,0.0,0.0,0.0,0.0,0.0,0.0,0.0,0.0,0.0,0.0,0.0,0.0,0.0,0.0,0.0,0.0,0.0,0.0,0.0,0.0,0.0,0.0,0.0,0.0,0.0,0.0,0.0,0.0,0.0,0.0,0.0,-2.8487,-2.9924,-2.8936,-2.7649,0.0,0.0,0.0,0.0,0.0,0.0,0.0,0.0,0.0,0.0,0.0,0.0,0.0,0.0,0.0,0.0,0.0,0.0,0.0,0.0,0.0,0.0,0.0,0.0,0.0,0.0,0.0,0.0,0.0,0.0,0.0,0.0,0.0,0.0,0.0,0.0,0.0,0.0,0.0,0.0,0.0,0.0,0.0,0.0,0.0,0.0,0.0,0.0,0.0,0.0,0.0,0.0,0.0,0.0,0.0,0.0,0.0,0.0,0.0,0.0,0.0,0.0,0.0,0.0,0.0,0.0,0.0,0.0,0.0,0.0,0.0,0.0,0.0,0.0,0.0,0.0,0.0,0.0,0.0,0.0,0.0,0.0,0.0,0.0,0.0,0.0,0.0,0.0,0.0,0.0,0.0,0.0,0.0,0.0,0.0,0.0,0.0,0.0,0.0,0.0,0.0,0.0,0.0,0.0,0.0,0.0,0.0,0.0,0.0,0.0,-2.8423,-2.8816,-2.9744,-2.9086,-2.7619,-2.5435,0.0,0.0,0.0,0.0,0.0,0.0,0.0,0.0,0.0,0.0,0.0,0.0,0.0,0.0,0.0,0.0,0.0,0.0,0.0,0.0,0.0,0.0,0.0,0.0,0.0,0.0,0.0,0.0,0.0,0.0,0.0,0.0,0.0,0.0,0.0,0.0,0.0,0.0,0.0,0.0,0.0,0.0,0.0,0.0,0.0,0.0,0.0,0.0,0.0,0.0,0.0,0.0,0.0,0.0,0.0,0.0,0.0,0.0,0.0,0.0,0.0,0.0,0.0,0.0,0.0,0.0,0.0,0.0,0.0,0.0,0.0,0.0,0.0,0.0,0.0,0.0,0.0,0.0,0.0,0.0,0.0,0.0,0.0,0.0,0.0,0.0,0.0,0.0,0.0,0.0,0.0,0.0,0.0,0.0,0.0,0.0,0.0,0.0,0.0,0.0,0.0,0.0,0.0,0.0,0.0,0.0,0.0,0.0,-3.0983,-2.8919,-2.8547,-3.0432,-3.1031,-2.9212,0.0,0.0,0.0,0.0,0.0,0.0,0.0,0.0,0.0,0.0,0.0,0.0,0.0,0.0,0.0,0.0,0.0,0.0,0.0,0.0,0.0,0.0,0.0,0.0,0.0,0.0,0.0,0.0,0.0,0.0,0.0,0.0,0.0,0.0,0.0,0.0,0.0,0.0,0.0,0.0,0.0,0.0,0.0,0.0,0.0,0.0,0.0,0.0,0.0,0.0,0.0,0.0,0.0,0.0,0.0,0.0,0.0,0.0,0.0,0.0,0.0,0.0,0.0,0.0,0.0,0.0,0.0,0.0,0.0,0.0,0.0,0.0,0.0,0.0,0.0,0.0,0.0,0.0,0.0,0.0,0.0,0.0,0.0,0.0,0.0,0.0,0.0,0.0,0.0,0.0,0.0,0.0,0.0,0.0,0.0,0.0,0.0,0.0,0.0,0.0,0.0,0.0,0.0,0.0,0.0,0.0,0.0,0.0,0.0,-2.7642,-2.8072,-2.9564,-3.2198,-2.9804,-2.7769,0.0,0.0,0.0,0.0,0.0,0.0,0.0,0.0,0.0,0.0,0.0,0.0,0.0,0.0,0.0,0.0,0.0,0.0,0.0,0.0,0.0,0.0,0.0,0.0,0.0,0.0,0.0,0.0,0.0,0.0,0.0,0.0,0.0,0.0,0.0,0.0,0.0,0.0,0.0,0.0,0.0,0.0,0.0,0.0,0.0,0.0,0.0,0.0,0.0,0.0,0.0,0.0,0.0,0.0,0.0,0.0,0.0,0.0,0.0,0.0,0.0,0.0,0.0,0.0,0.0,0.0,0.0,0.0,0.0,0.0,0.0,0.0,0.0,0.0,0.0,0.0,0.0,0.0,0.0,0.0,0.0,0.0,0.0,0.0,0.0,0.0,0.0,0.0,0.0,0.0,0.0,0.0,0.0,0.0,0.0,0.0,0.0,0.0,0.0,0.0,0.0,0.0,0.0,0.0,0.0,0.0,0.0,0.0,0.0,-2.655,0.0,-3.0851,-3.2018,-2.9205,-2.6961,0.0,0.0,0.0,0.0,0.0,0.0,0.0,0.0,0.0,0.0,0.0,0.0,0.0,0.0,0.0,0.0,0.0,0.0,0.0,0.0,0.0,0.0,0.0,0.0,0.0,0.0,0.0,0.0,0.0,0.0,0.0,0.0,0.0,0.0,0.0,0.0,0.0,0.0,0.0,0.0,0.0,0.0,0.0,0.0,0.0,0.0,0.0,0.0,0.0,0.0,0.0,0.0,0.0,0.0,0.0,0.0,0.0,0.0,0.0,0.0,0.0,0.0,0.0,0.0,0.0,0.0,0.0,0.0,0.0,0.0,0.0,0.0,0.0,0.0,0.0,0.0,0.0,0.0,0.0,0.0,0.0,0.0,0.0,0.0,0.0,0.0,0.0,0.0,0.0,0.0,0.0,0.0,0.0,0.0,0.0,0.0,0.0,0.0,0.0,0.0,0.0,0.0,0.0,0.0,0.0,0.0,0.0,0.0,-2.4687,-2.8457,-3.1629,-3.2138,-2.9774,-2.9535,-2.7081,0.0,0.0,0.0,0.0,0.0,0.0,0.0,0.0,0.0,0.0,0.0,0.0,0.0,0.0,0.0,0.0,0.0,0.0,0.0,0.0,0.0,0.0,0.0,0.0,0.0,0.0,0.0,0.0,0.0,0.0,0.0,0.0,0.0,0.0,0.0,0.0,0.0,0.0,0.0,0.0,0.0,0.0,0.0,0.0,0.0,0.0,0.0,0.0,0.0,0.0,0.0,0.0,0.0,0.0,0.0,0.0,0.0,0.0,0.0,0.0,0.0,0.0,0.0,0.0,0.0,0.0,0.0,0.0,0.0,0.0,0.0,0.0,0.0,0.0,0.0,0.0,0.0,0.0,0.0,0.0,0.0,0.0,0.0,0.0,0.0,0.0,0.0,0.0,0.0,0.0,0.0,0.0,0.0,0.0,0.0,0.0,0.0,0.0,0.0,0.0,0.0,0.0,0.0,0.0,0.0,0.0,0.0,0.0,0.0,-2.7919,-3.0193,-3.1928,-3.2766,-2.9415,-2.72,0.0,0.0,0.0,0.0,0.0,0.0,0.0,0.0,0.0,0.0,0.0,0.0,0.0,0.0,0.0,0.0,0.0,0.0,0.0,0.0,0.0,0.0,0.0,0.0,0.0,0.0,0.0,0.0,0.0,0.0,0.0,0.0,0.0,0.0,0.0,0.0,0.0,0.0,0.0,0.0,0.0,0.0,0.0,0.0,0.0,0.0,0.0,0.0,0.0,0.0,0.0,0.0,0.0,0.0,0.0,0.0,0.0,0.0,0.0,0.0,0.0,0.0,0.0,0.0,0.0,0.0,0.0,0.0,0.0,0.0,0.0,0.0,0.0,0.0,0.0,0.0,0.0,0.0,0.0,0.0,0.0,0.0,0.0,0.0,0.0,0.0,0.0,0.0,0.0,0.0,0.0,0.0,0.0,0.0,0.0,0.0,0.0,0.0,0.0,0.0,0.0,0.0,0.0,0.0,0.0,0.0,0.0,0.0,0.0,-2.9864,-3.1719,-3.3155,-3.4083,-3.0163,-2.7739,-2.7051,0.0,0.0,0.0,0.0,0.0,0.0,0.0,0.0,0.0,0.0,0.0,0.0,0.0,0.0,0.0,0.0,0.0,0.0,0.0,0.0,0.0,0.0,0.0,0.0,0.0,0.0,0.0,0.0,0.0,0.0,0.0,0.0,0.0,0.0,0.0,0.0,0.0,0.0,0.0,0.0,0.0,0.0,0.0,0.0,0.0,0.0,0.0,0.0,0.0,0.0,0.0,0.0,0.0,0.0,0.0,0.0,0.0,0.0,0.0,0.0,0.0,0.0,0.0,0.0,0.0,0.0,0.0,0.0,0.0,0.0,0.0,0.0,0.0,0.0,0.0,0.0,0.0,0.0,0.0,0.0,0.0,0.0,0.0,0.0,0.0,0.0,0.0,0.0,0.0,0.0,0.0,0.0,0.0,0.0,0.0,0.0,0.0,0.0,0.0,0.0,0.0,0.0,0.0,0.0,0.0,0.0,0.0,0.0,-3.3514,-3.5579,-3.5759,-3.3933,-3.1809,-2.8876,0.0,0.0,0.0,0.0,0.0,0.0,0.0,0.0,0.0,0.0,0.0,0.0,0.0,0.0,0.0,0.0,0.0,0.0,0.0,0.0,0.0,0.0,0.0,0.0,0.0,0.0,0.0,0.0,0.0,0.0,0.0,0.0,0.0,0.0,0.0,0.0,0.0,0.0,0.0,0.0,0.0,0.0,0.0,0.0,0.0,0.0,0.0,0.0,0.0,0.0,0.0,0.0,0.0,0.0,0.0,0.0,0.0,0.0,0.0,0.0,0.0,0.0,0.0,0.0,0.0,0.0,0.0,0.0,0.0,0.0,0.0,0.0,0.0,0.0,0.0,0.0,0.0,0.0,0.0,0.0,0.0,0.0,0.0,0.0,0.0,0.0,0.0,0.0,0.0,0.0,0.0,0.0,0.0,0.0,0.0,0.0,0.0,0.0,0.0,0.0,0.0,0.0,0.0,0.0,0.0,0.0,0.0,0.0,0.0,-3.42,-3.7135,-3.8392,-3.7793,-3.4532,-3.1539,0.0,0.0,0.0,0.0,0.0,0.0,0.0,0.0,0.0,0.0,0.0,0.0,0.0,0.0,0.0,0.0,0.0,0.0,0.0,0.0,0.0,0.0,0.0,0.0,0.0,0.0,0.0,0.0,0.0,0.0,0.0,0.0,0.0,0.0,0.0,0.0,0.0,0.0,0.0,0.0,0.0,0.0,0.0,0.0,0.0,0.0,0.0,0.0,0.0,0.0,0.0,0.0,0.0,0.0,0.0,0.0,0.0,0.0,0.0,0.0,0.0,0.0,0.0,0.0,0.0,0.0,0.0,0.0,0.0,0.0,0.0,0.0,0.0,0.0,0.0,0.0,0.0,0.0,0.0,0.0,0.0,0.0,0.0,0.0,0.0,0.0,0.0,0.0,0.0,0.0,0.0,0.0,0.0,0.0,0.0,0.0,0.0,0.0,0.0,0.0,0.0,0.0,0.0,0.0,0.0,0.0,0.0,0.0,-3.2896,-3.6088,-3.8811,-4.0397,-4.0636,-3.7345,-3.3844,0.0,0.0,0.0,0.0,0.0,0.0,0.0,0.0,0.0,0.0,0.0,0.0,0.0,0.0,0.0,0.0,0.0,0.0,0.0,0.0,0.0,0.0,0.0,0.0,0.0,0.0,0.0,0.0,0.0,0.0,0.0,0.0,0.0,0.0,0.0,0.0,0.0,0.0,0.0,0.0,0.0,0.0,0.0,0.0,0.0,0.0,0.0,0.0,0.0,0.0,0.0,0.0,0.0,0.0,0.0,0.0,0.0,0.0,0.0,0.0,0.0,0.0,0.0,0.0,0.0,0.0,0.0,0.0,0.0,0.0,0.0,0.0,0.0,0.0,0.0,0.0,0.0,0.0,0.0,0.0,0.0,0.0,0.0,0.0,0.0,0.0,0.0,0.0,0.0,0.0,0.0,0.0,0.0,0.0,0.0,0.0,0.0,0.0,0.0,0.0,0.0,0.0,0.0,0.0,0.0,0.0,0.0,0.0,-3.4593,-3.8332,-4.0427,-4.1743,-4.2329,-3.9858,-3.5818,0.0,0.0,0.0,0.0,0.0,0.0,0.0,0.0,0.0,0.0,0.0,0.0,0.0,0.0,0.0,0.0,0.0,0.0,0.0,0.0,0.0,0.0,0.0,0.0,0.0,0.0,0.0,0.0,0.0,0.0,0.0,0.0,0.0,0.0,0.0,0.0,0.0,0.0,0.0,0.0,0.0,0.0,0.0,0.0,0.0,0.0,0.0,0.0,0.0,0.0,0.0,0.0,0.0,0.0,0.0,0.0,0.0,0.0,0.0,0.0,0.0,0.0,0.0,0.0,0.0,0.0,0.0,0.0,0.0,0.0,0.0,0.0,0.0,0.0,0.0,0.0,0.0,0.0,0.0,0.0,0.0,0.0,0.0,0.0,0.0,0.0,0.0,0.0,0.0,0.0,0.0,0.0,0.0,0.0,0.0,0.0,0.0,0.0,0.0,0.0,0.0,0.0,0.0,0.0,0.0,0.0,0.0,0.0,-3.5991,-3.8392,-4.0846,-4.2222,-4.2342,-4.0307,-3.7135,0.0,0.0,0.0,0.0,0.0,0.0,0.0,0.0,0.0,0.0,0.0,0.0,0.0,0.0,0.0,0.0,0.0,0.0,0.0,0.0,0.0,0.0,0.0,0.0,0.0,0.0,0.0,0.0,0.0,0.0,0.0,0.0,0.0,0.0,0.0,0.0,0.0,0.0,0.0,0.0,0.0,0.0,0.0,0.0,0.0,0.0,0.0,0.0,-3.2228,0.0,0.0,0.0,0.0,0.0,0.0,0.0,0.0,0.0,0.0,0.0,0.0,0.0,0.0,0.0,0.0,0.0,0.0,0.0,0.0,0.0,0.0,0.0,0.0,0.0,0.0,0.0,0.0,0.0,0.0,0.0,0.0,0.0,0.0,0.0,0.0,0.0,0.0,0.0,0.0,0.0,0.0,0.0,0.0,0.0,0.0,0.0,0.0,0.0,0.0,0.0,0.0,0.0,0.0,0.0,0.0,0.0,0.0,0.0,-3.6388,-3.8829,-4.1175,-4.2342,-4.2312,-4.1055,-3.8182,0.0,0.0,0.0,0.0,0.0,0.0,0.0,0.0,0.0,0.0,0.0,0.0,0.0,0.0,0.0,0.0,0.0,0.0,0.0,0.0,0.0,0.0,0.0,0.0,0.0,0.0,0.0,0.0,0.0,0.0,0.0,0.0,0.0,0.0,0.0,0.0,0.0,0.0,0.0,0.0,0.0,0.0,0.0,0.0,0.0,0.0,0.0,0.0,0.0,0.0,0.0,0.0,0.0,0.0,0.0,0.0,0.0,0.0,0.0,0.0,0.0,0.0,0.0,0.0,0.0,0.0,0.0,0.0,0.0,0.0,0.0,0.0,0.0,0.0,0.0,0.0,0.0,0.0,0.0,0.0,0.0,0.0,0.0,0.0,0.0,0.0,0.0,0.0,0.0,0.0,0.0,0.0,0.0,0.0,0.0,0.0,0.0,0.0,0.0,0.0,0.0,0.0,0.0,0.0,0.0,0.0,0.0,-3.2942,-3.624,-3.9092,-4.1045,-4.2041,-4.2079,-4.1483,-3.8788,-3.3873,0.0,0.0,0.0,0.0,0.0,0.0,0.0,0.0,0.0,0.0,0.0,0.0,0.0,0.0,0.0,0.0,0.0,0.0,0.0,0.0,0.0,0.0,0.0,0.0,0.0,0.0,0.0,0.0,0.0,0.0,0.0,0.0,0.0,0.0,0.0,0.0,0.0,0.0,-3.0073,-3.1719,0.0,0.0,0.0,0.0,0.0,0.0,0.0,0.0,-3.3514,0.0,0.0,0.0,0.0,0.0,0.0,0.0,0.0,0.0,0.0,0.0,0.0,0.0,0.0,0.0,0.0,0.0,0.0,0.0,0.0,0.0,0.0,0.0,0.0,0.0,0.0,0.0,0.0,0.0,0.0,0.0,0.0,0.0,0.0,0.0,0.0,0.0,0.0,0.0,0.0,0.0,0.0,0.0,0.0,0.0,0.0,0.0,0.0,0.0,0.0,0.0,0.0,0.0,0.0,0.0,0.0,-3.2147,-3.3378,-3.5411,-3.8249,-3.9592,-4.0519,-4.0828,-4.022,-3.8135,-3.4439,0.0,0.0,0.0,0.0,0.0,0.0,0.0,0.0,0.0,0.0,0.0,0.0,0.0,0.0,0.0,0.0,0.0,0.0,0.0,0.0,0.0,0.0,0.0,0.0,0.0,0.0,0.0,0.0,0.0,0.0,0.0,0.0,0.0,0.0,0.0,0.0,0.0,0.0,0.0,-3.3604,-3.4143,0.0,0.0,0.0,0.0,0.0,0.0,0.0,0.0,-3.3425,0.0,0.0,0.0,0.0,0.0,0.0,0.0,0.0,0.0,0.0,0.0,0.0,0.0,0.0,0.0,0.0,0.0,0.0,0.0,0.0,0.0,0.0,0.0,0.0,0.0,0.0,0.0,0.0,0.0,0.0,0.0,0.0,0.0,0.0,0.0,0.0,0.0,0.0,0.0,0.0,0.0,0.0,0.0,0.0,0.0,0.0,0.0,0.0,0.0,0.0,0.0,0.0,0.0,0.0,0.0,-3.1538,-3.3856,-3.6124,-3.8295,-3.9367,-3.9701,-3.9253,-3.7862,-3.5825,0.0,0.0,0.0,0.0,0.0,0.0,0.0,0.0,0.0,0.0,0.0,0.0,0.0,0.0,0.0,0.0,0.0,0.0,0.0,0.0,0.0,0.0,0.0,0.0,0.0,0.0,0.0,0.0,0.0,0.0,0.0,0.0,0.0,0.0,0.0,0.0,0.0,0.0,0.0,0.0,-3.4143,-3.513,-3.5489,0.0,0.0,0.0,0.0,0.0,0.0,-3.3514,-3.3754,0.0,0.0,0.0,0.0,0.0,0.0,0.0,0.0,0.0,0.0,0.0,0.0,0.0,0.0,0.0,0.0,0.0,0.0,0.0,0.0,0.0,0.0,0.0,0.0,0.0,0.0,0.0,0.0,0.0,0.0,0.0,0.0,0.0,0.0,0.0,0.0,0.0,0.0,0.0,0.0,0.0,0.0,0.0,0.0,0.0,0.0,0.0,0.0,0.0,0.0,0.0,0.0,0.0,0.0,0.0,-3.0391,-3.3633,-3.6267,-3.8042,-3.8803,-3.87,-3.7729,-3.5888,-3.3879,0.0,0.0,0.0,0.0,0.0,0.0,0.0,0.0,0.0,0.0,0.0,0.0,0.0,0.0,0.0,0.0,0.0,0.0,0.0,0.0,0.0,0.0,0.0,0.0,0.0,0.0,0.0,0.0,0.0,0.0,0.0,0.0,0.0,0.0,0.0,0.0,0.0,0.0,0.0,0.0,0.0,-3.6387,-3.6626,-3.6567,0.0,0.0,0.0,0.0,-3.513,-3.5429,0.0,0.0,0.0,0.0,0.0,0.0,0.0,0.0,0.0,0.0,0.0,0.0,0.0,0.0,0.0,0.0,0.0,0.0,0.0,0.0,0.0,0.0,0.0,0.0,0.0,0.0,0.0,0.0,0.0,0.0,0.0,0.0,0.0,0.0,0.0,0.0,0.0,0.0,0.0,0.0,0.0,0.0,0.0,0.0,0.0,0.0,0.0,0.0,0.0,0.0,0.0,0.0,0.0,0.0,0.0,0.0,-2.9857,-3.1656,-3.3781,-3.6439,-3.6716,-3.6702,-3.6505,-3.5796,-3.4005,0.0,0.0,0.0,0.0,0.0,0.0,0.0,0.0,0.0,0.0,0.0,0.0,0.0,0.0,0.0,0.0,0.0,0.0,0.0,0.0,0.0,0.0,0.0,0.0,0.0,0.0,0.0,0.0,0.0,0.0,0.0,0.0,0.0,0.0,0.0,0.0,0.0,0.0,0.0,0.0,0.0,-3.8571,-3.7464,-3.8751,-3.9798,0.0,0.0,-3.923,-4.0307,-4.0038,0.0,0.0,0.0,0.0,0.0,0.0,0.0,0.0,0.0,0.0,0.0,0.0,0.0,0.0,0.0,0.0,0.0,0.0,0.0,0.0,0.0,0.0,0.0,0.0,0.0,0.0,0.0,0.0,0.0,0.0,0.0,0.0,0.0,0.0,0.0,0.0,0.0,0.0,0.0,0.0,0.0,0.0,0.0,0.0,0.0,0.0,0.0,0.0,0.0,0.0,0.0,0.0,0.0,0.0,0.0,-2.7512,-3.0748,-3.372,-3.5861,-3.7169,-3.7258,-3.6856,-3.5878,-3.3777,-3.1859,0.0,0.0,0.0,0.0,0.0,0.0,0.0,0.0,0.0,0.0,0.0,0.0,0.0,0.0,0.0,0.0,0.0,0.0,0.0,0.0,0.0,0.0,0.0,0.0,0.0,0.0,0.0,0.0,0.0,0.0,0.0,0.0,0.0,0.0,0.0,0.0,0.0,0.0,0.0,0.0,0.0,0.0,-4.0127,-4.1294,0.0,0.0,0.0,-4.1683,-4.1893,0.0,0.0,0.0,0.0,0.0,0.0,0.0,0.0,0.0,0.0,0.0,0.0,0.0,0.0,0.0,0.0,0.0,0.0,0.0,0.0,0.0,0.0,0.0,0.0,0.0,0.0,0.0,0.0,0.0,0.0,0.0,0.0,0.0,0.0,0.0,0.0,0.0,0.0,0.0,0.0,0.0,0.0,0.0,0.0,0.0,0.0,0.0,0.0,0.0,0.0,0.0,0.0,0.0,0.0,0.0,0.0,0.0,-3.1511,-3.563,-3.7877,-3.8283,-3.8343,-3.7547,-3.5938,-3.3164,0.0,0.0,0.0,0.0,0.0,0.0,0.0,0.0,0.0,0.0,0.0,0.0,0.0,0.0,0.0,0.0,0.0,0.0,0.0,0.0,0.0,0.0,0.0,0.0,0.0,0.0,0.0,-2.4385,0.0,0.0,0.0,0.0,0.0,0.0,0.0,0.0,0.0,0.0,0.0,0.0,0.0,0.0,-4.0846,-4.2821,-4.3958,-4.4945,0.0,0.0,-4.4466,-4.4137,-4.312,-4.1414,0.0,0.0,0.0,0.0,0.0,0.0,0.0,0.0,0.0,0.0,0.0,0.0,0.0,0.0,0.0,0.0,0.0,0.0,0.0,0.0,0.0,0.0,0.0,0.0,0.0,0.0,0.0,0.0,0.0,0.0,0.0,0.0,0.0,0.0,0.0,0.0,0.0,0.0,0.0,0.0,0.0,0.0,0.0,0.0,0.0,0.0,0.0,0.0,0.0,0.0,0.0,0.0,0.0,0.0,0.0,-3.1541,-3.563,-3.8265,-3.9367,-3.9102,-3.8306,-3.72,-3.543,-3.2726,0.0,0.0,0.0,0.0,0.0,0.0,0.0,0.0,0.0,0.0,0.0,0.0,0.0,0.0,0.0,0.0,0.0,0.0,0.0,0.0,0.0,0.0,0.0,0.0,0.0,0.0,0.0,0.0,0.0,0.0,0.0,0.0,0.0,0.0,0.0,0.0,0.0,0.0,0.0,0.0,0.0,-4.288,-4.4825,-4.6741,-4.8626,0.0,0.0,-4.8147,-4.8716,-4.8177,-4.6052,-4.1025,0.0,0.0,0.0,0.0,0.0,0.0,0.0,0.0,0.0,0.0,0.0,0.0,0.0,0.0,0.0,0.0,0.0,0.0,0.0,0.0,0.0,0.0,0.0,0.0,0.0,0.0,0.0,0.0,0.0,0.0,0.0,0.0,0.0,0.0,0.0,0.0,0.0,0.0,0.0,0.0,0.0,0.0,0.0,0.0,0.0,0.0,0.0,0.0,0.0,0.0,0.0,0.0,0.0,-2.9086,-3.2138,-3.6487,-3.9011,-3.9527,-3.9557,-3.8935,-3.7791,-3.543,-3.3081,0.0,0.0,0.0,0.0,0.0,0.0,0.0,0.0,0.0,0.0,0.0,0.0,0.0,0.0,0.0,0.0,0.0,0.0,0.0,0.0,0.0,0.0,0.0,0.0,0.0,0.0,0.0,0.0,-3.1854,-3.2514,-3.2714,0.0,0.0,0.0,0.0,0.0,0.0,0.0,0.0,0.0,0.0,-4.6245,-4.7546,-4.8745,0.0,0.0,-5.0481,-4.9703,-5.0361,-4.8207,-4.5484,-4.2671,-4.0068,0.0,0.0,0.0,0.0,0.0,0.0,0.0,0.0,0.0,0.0,0.0,0.0,0.0,0.0,0.0,0.0,0.0,0.0,0.0,0.0,0.0,0.0,0.0,0.0,0.0,0.0,0.0,0.0,0.0,0.0,0.0,0.0,0.0,0.0,0.0,0.0,0.0,0.0,0.0,0.0,0.0,0.0,0.0,0.0,0.0,0.0,0.0,0.0,0.0,0.0,0.0,0.0,-2.9594,-3.3066,-3.7285,-3.9847,-4.0691,-4.0632,-4.0156,-3.9104,-3.6597,-3.4229,0.0,0.0,0.0,0.0,0.0,0.0,0.0,0.0,0.0,0.0,0.0,0.0,0.0,0.0,0.0,0.0,0.0,0.0,0.0,0.0,0.0,0.0,0.0,0.0,0.0,0.0,0.0,0.0,-3.4622,-3.5072,-3.4939,0.0,0.0,0.0,0.0,0.0,0.0,0.0,0.0,0.0,0.0,-4.9242,-5.0514,-5.0787,-5.1199,-5.2336,-5.1379,-5.0631,-5.09,-4.8745,-4.6292,-4.3988,0.0,0.0,0.0,0.0,0.0,0.0,0.0,0.0,0.0,0.0,0.0,0.0,0.0,0.0,0.0,0.0,0.0,0.0,0.0,0.0,0.0,0.0,0.0,0.0,0.0,0.0,0.0,0.0,0.0,0.0,-1.9183,0.0,0.0,0.0,0.0,0.0,0.0,0.0,0.0,0.0,0.0,0.0,0.0,0.0,0.0,0.0,0.0,0.0,0.0,0.0,0.0,0.0,0.0,-3.0522,-3.4412,-3.7764,-4.0592,-4.3021,-4.2611,-4.2077,-4.157,-3.9275,-3.6701,-3.3884,0.0,0.0,0.0,0.0,0.0,0.0,0.0,0.0,0.0,0.0,0.0,0.0,0.0,0.0,0.0,0.0,0.0,0.0,0.0,0.0,0.0,0.0,0.0,0.0,0.0,0.0,-3.5197,-3.6129,-3.6335,0.0,0.0,0.0,0.0,0.0,0.0,0.0,0.0,0.0,0.0,-4.9978,-5.174,-5.361,-5.2915,-5.2462,-5.3181,-5.2067,-5.102,-5.0451,-5.069,-4.9553,0.0,0.0,0.0,0.0,0.0,0.0,0.0,0.0,0.0,0.0,0.0,0.0,0.0,0.0,0.0,0.0,0.0,0.0,0.0,0.0,0.0,0.0,0.0,0.0,0.0,0.0,0.0,-3.0081,-2.8225,0.0,0.0,0.0,0.0,0.0,0.0,0.0,0.0,0.0,0.0,0.0,-2.947,-3.057,0.0,0.0,0.0,0.0,0.0,0.0,0.0,0.0,0.0,0.0,0.0,0.0,-3.1309,-3.5729,-3.8631,-4.1115,-4.316,-4.2344,-4.2252,-4.2934,-3.978,-3.6593,-3.3495,0.0,0.0,0.0,0.0,0.0,0.0,0.0,0.0,0.0,0.0,0.0,0.0,0.0,0.0,0.0,0.0,0.0,0.0,0.0,0.0,0.0,0.0,0.0,0.0,0.0,-3.5156,0.0,0.0,0.0,0.0,0.0,0.0,0.0,0.0,0.0,0.0,0.0,-4.9659,-5.1303,-5.4013,-5.5854,-5.582,-5.5474,-5.5615,0.0,0.0,0.0,0.0,0.0,0.0,0.0,0.0,0.0,0.0,0.0,0.0,0.0,0.0,-4.7497,-4.1205,-4.0546,-4.1086,-4.1653,0.0,0.0,0.0,0.0,0.0,0.0,0.0,0.0,0.0,0.0,0.0,0.0,0.0,0.0,-3.4203,0.0,-3.1838,0.0,0.0,0.0,0.0,0.0,0.0,0.0,0.0,-3.2217,-3.3373,-3.345,-3.454,-3.441,0.0,-3.2635,-3.0112,0.0,0.0,0.0,0.0,0.0,0.0,0.0,0.0,-3.263,-3.7119,-3.9343,-4.1614,-4.3788,-4.3064,-4.2989,-4.3776,-4.1149,-3.8381,-3.5557,-3.3671,-3.2267,0.0,0.0,0.0,0.0,0.0,0.0,0.0,0.0,0.0,0.0,0.0,0.0,0.0,0.0,0.0,0.0,0.0,0.0,0.0,0.0,0.0,0.0,0.0,-3.6586,0.0,0.0,0.0,0.0,0.0,0.0,0.0,0.0,0.0,-4.7361,-5.1352,-5.4898,-5.6387,-5.829,-5.9348,-5.8896,0.0,0.0,0.0,0.0,0.0,0.0,0.0,-5.3284,-5.2732,-5.1,-4.9455,-4.8505,-4.9793,-5.09,-5.0631,0.0,0.0,-4.6762,-4.6653,-4.7732,-4.8093,-4.9278,-5.0714,-5.223,-5.3335,-5.4008,0.0,0.0,0.0,0.0,0.0,0.0,0.0,0.0,-3.8481,-3.7808,0.0,-3.5894,0.0,0.0,0.0,0.0,0.0,-3.5311,0.0,0.0,-3.8527,-3.8998,-3.7355,-3.7374,-3.7048,-3.6494,-3.6899,-3.5429,-3.2139,-2.7519,0.0,0.0,0.0,0.0,0.0,0.0,-3.4416,-3.8676,-4.0018,-4.2099,-4.5111,-4.4649,-4.4334,-4.4381,-4.3357,-4.1827,-3.9821,-3.7752,-3.5592,-3.3235,-3.0039,0.0,0.0,0.0,0.0,0.0,0.0,0.0,0.0,0.0,0.0,0.0,0.0,0.0,0.0,0.0,0.0,0.0,0.0,0.0,0.0,-3.8063,0.0,0.0,0.0,0.0,0.0,0.0,0.0,0.0,0.0,0.0,-5.3044,-5.5886,-5.9438,-6.299,0.0,0.0,0.0,0.0,-5.9177,-5.9298,-5.9298,-5.9331,-5.9419,-6.027,-6.0195,-5.7746,0.0,0.0,-5.1482,-5.2768,-5.3819,-5.1987,-5.5435,-5.7617,-5.5563,-5.5557,-5.6389,-5.7094,-5.7039,-5.7504,-5.8863,-5.9971,-6.0815,-3.9842,0.0,0.0,0.0,0.0,-4.0032,-4.2053,-4.5364,-4.4377,-4.325,-4.2049,-4.1317,0.0,0.0,0.0,0.0,0.0,0.0,-3.9247,-3.9688,-4.0364,-4.036,-3.9777,-4.0161,-3.9548,-3.8226,-3.7892,-3.7086,-3.5705,-3.3545,-3.0738,-2.75,0.0,0.0,0.0,0.0,-3.5943,-3.9915,-4.1266,-4.3182,-4.5961,-4.5372,-4.4807,-4.4438,-4.451,-4.3737,-4.1937,-3.9957,-3.8148,-3.6248,-3.3476,0.0,0.0,0.0,0.0,0.0,0.0,0.0,0.0,0.0,0.0,0.0,0.0,0.0,0.0,0.0,0.0,0.0,0.0,0.0,-3.932,-3.929,-4.0202,0.0,0.0,0.0,0.0,0.0,0.0,0.0,0.0,0.0,-6.0825,-6.1975,-6.3057,0.0,0.0,-6.5077,-6.4236,-6.3919,-6.3985,-6.4519,-6.4255,0.0,-6.3359,-6.2528,-6.1816,-6.1535,-6.1217,-6.0424,-5.9001,-5.8845,-5.8845,-5.8215,-6.0376,-6.1873,-6.0866,-6.075,-6.0835,-6.0687,-6.1542,-6.2482,-6.2956,-6.3768,-6.4208,-4.6168,-4.1851,-3.995,-4.0394,-4.2276,-4.2378,-4.4635,-4.811,-4.7584,-4.7227,-4.701,-4.6695,-4.4393,-4.0683,-4.0341,0.0,0.0,0.0,-4.2618,-4.2867,-4.2749,-4.2436,-4.1887,-4.1709,-4.1071,-3.9954,-3.9044,-3.8391,-3.7839,-3.7186,-3.5027,-3.1486,0.0,0.0,-3.2946,-3.4787,-3.727,-4.0178,-4.1702,-4.3459,-4.552,-4.5663,-4.5654,-4.5552,-4.5961,-4.5425,-4.3814,-4.2463,-4.0952,-3.9252,-3.6973,-3.4927,0.0,0.0,0.0,0.0,0.0,0.0,0.0,0.0,0.0,0.0,0.0,-3.4931,-3.3236,0.0,0.0,0.0,-3.7759,-4.0397,-4.324,-4.3389,0.0,0.0,0.0,0.0,0.0,0.0,0.0,-5.866,-6.1095,-6.3362,-6.5595,-6.644,-6.6812,-6.6812,-6.7049,-6.7117,-6.6846,0.0,-6.6846,-6.7624,-6.7422,-6.7145,-6.7101,-6.613,-6.5384,-6.5216,-6.3869,-6.2843,-6.2554,-6.2137,-6.169,-6.1716,-6.2997,-6.42,-6.3682,-6.4287,-6.4634,-6.3967,-6.5178,-6.6339,-6.6373,-6.6474,-6.6641,-5.2687,-4.9542,-4.4454,-4.2751,-4.352,-4.4125,-4.5771,-4.8138,-4.8694,-4.9766,-5.116,-5.1101,-4.9271,-4.6194,-4.4326,0.0,-4.5633,-4.6232,-4.6107,-4.5656,-4.5598,-4.4904,-4.361,-4.2447,-4.1808,-4.1749,-4.044,-3.9625,-3.9146,-3.902,-3.814,-3.6634,-3.5629,-3.5278,-3.5562,-3.6734,-3.8191,-3.997,-4.1598,-4.3062,-4.4502,-4.5747,-4.6651,-4.7189,-4.7219,-4.6608,-4.5338,-4.4758,-4.3714,-4.1843,-4.0187,-3.8363,-3.6268,0.0,0.0,0.0,0.0,0.0,0.0,0.0,0.0,0.0,0.0,0.0,0.0,0.0,0.0,0.0,-4.1956,0.0,-4.8297,-4.9134,0.0,0.0,0.0,-5.3937,-5.6349,-5.9621,-6.2076,-6.2888,0.0,0.0,-6.8166,-6.9383,-7.0263,-7.0297,-6.9045,-6.8639,-6.9992,-6.9011,-6.8436,-6.918,-6.9282,-6.9519,-6.9904,-6.9917,-6.9457,-6.844,-6.6255,-6.4609,-6.4028,-6.377,-6.3385,-6.2834,-6.3963,-6.5114,-6.5081,-6.6531,-6.7793,-6.6998,-6.803,-6.9011,-6.8876,-6.847,-6.8506,-5.5963,-5.4205,-5.1701,-4.9126,-4.652,-4.6652,-4.7674,-4.9103,-4.8921,-4.9551,-5.0875,-5.0475,-4.9839,-4.91,-4.8654,-4.8447,-4.8327,-4.7967,-4.7702,-4.7614,-4.7051,-4.6167,-4.4964,-4.4584,-4.3965,-4.3024,-4.1769,-4.1041,-4.0937,-3.9982,-3.9295,-3.8894,-3.8642,-3.7739,-3.6307,-3.7713,-3.9191,-4.0559,-4.1391,-4.2876,-4.5133,-4.646,-4.692,-4.6561,-4.6561,-4.5883,-4.462,-4.4007,-4.3048,-4.1751,-4.0443,-3.9396,-3.871,-3.5884,0.0,0.0,0.0,0.0,0.0,0.0,0.0,0.0,0.0,-4.0353,-3.6535,0.0,-4.2952,0.0,-4.6328,-4.9344,-5.1079,-5.1409,0.0,0.0,-5.8018,-5.9379,-6.4449,-6.5359,-6.6237,-6.8132,-6.9113,-6.9857,-7.0432,-7.0804,-7.1041,-7.1041,-7.0737,-7.0432,-7.0263,-7.0432,-7.0567,-7.0703,-7.0737,-7.0838,-7.0973,-7.1041,-7.0884,-7.0613,-6.9535,-6.8684,-6.8517,-6.8015,-6.7413,-6.6677,-6.6819,-6.6959,-6.6541,-6.7689,-6.8673,-6.8605,-6.8876,-6.9079,-6.9113,-6.9383,-6.9832,-5.8256,-5.662,-5.5793,-5.3402,-5.0067,-4.9133,-4.9143,-4.9864,-4.9336,-4.9882,-5.113,-5.0972,-5.0784,-5.0611,-5.0947,-5.0601,-4.9673,-4.9015,-4.8566,-4.8237,-4.7608,-4.6927,-4.6194,-4.5694,-4.5063,-4.4294,-4.3081,-4.2447,-4.235,-4.1119,-4.0541,-4.0541,-3.9981,-3.9094,-3.7965,-3.8768,-3.9601,-4.0336,-4.1227,-4.2841,-4.5326,-4.6077,-4.643,-4.6267,-4.6621,-4.6142,-4.4825,-4.4748,-4.4064,-4.2881,-4.1906,-4.1274,-4.0856,-3.8643,-3.7323,0.0,0.0,0.0,0.0,0.0,0.0,0.0,0.0,0.0,0.0,0.0,-4.616,-4.7256,-5.0695,-5.3653,-5.5538,-5.6496,-5.8775,-6.2792,-6.3426,-6.4997,-6.863,-6.9152,-6.9789,-7.1007,-7.0906,-7.0838,-7.1244,-7.1312,-7.1312,-7.1312,-7.1312,-7.1176,-7.0804,-7.1075,-7.1312,-7.1312,-7.1312,-7.1312,-7.1312,-7.1041,-7.0939,-7.1176,-7.0703,-7.0195,-7.0161,-7.0225,-7.002,-6.935,-6.9439,-6.9623,-6.9243,-6.9762,-7.0488,-7.0833,-7.0903,-7.0746,-7.0255,-7.0531,-7.1076,-6.0107,-5.8292,-5.8176,-5.6507,-5.3874,-5.1981,-5.0791,-5.0206,-4.9415,-4.9898,-5.1316,-5.1903,-5.1678,-5.1062,-5.1935,-5.1558,-5.0212,-4.9643,-4.8985,-4.8267,-4.7698,-4.7399,-4.7222,-4.6166,-4.5667,-4.5608,-4.4372,-4.3787,-4.3693,-4.2447,-4.1887,-4.1789,-4.0567,-3.9981,-3.9878,-3.9775,-3.9697,-3.9697,-4.0952,-4.2797,-4.5052,-4.5298,-4.5667,-4.6296,-4.68,-4.6411,-4.5125,-4.5783,-4.558,-4.4393,-4.4026,-4.3626,-4.2966,-4.1733,-4.0726,0.0,-3.9469,0.0,0.0,0.0,0.0,0.0,0.0,0.0,0.0,-4.7935,-4.9642,-5.1798,-5.4999,-5.7842,-6.0027,-6.2091,-6.396,-6.5699,-6.8152,-6.9696,-7.0271,-7.1632,-7.2631,-7.2563,-7.1887,-7.1481,-7.1616,-7.1447,-7.1345,-7.1616,-7.1582,-7.1515,-7.1447,-7.1379,-7.1312,-7.1312,-7.1312,-7.1312,-7.1278,-7.0804,-7.0635,-7.1109,-7.0838,-7.0331,-7.0364,-7.1182,-7.1584,-7.0972,-7.1434,-7.2041,-7.2117,-7.2044,-7.2398,-7.289,-7.3028,-7.2809,-7.2054,-7.1897,-7.2634,-6.2187,-6.1189,-6.0654,-5.9123,-5.6794,-5.5936,-5.3751,-5.0838,-4.9004,-4.8755,-4.9863,-5.1955,-5.2148,-5.112,-5.2408,-5.1977,-5.0272,-5.0092,-4.9404,-4.8297,-4.8147,-4.7818,-4.7309,-4.7019,-4.6959,-4.684,-4.5602,-4.5024,-4.5024,-4.3787,-4.3122,-4.3122,-4.1887,-4.1219,-4.1219,0.0,0.0,0.0,-4.0952,-4.2325,-4.3815,-4.4812,-4.5667,-4.6267,-4.5873,0.0,-4.3838,-4.4855,-4.5101,-4.4433,-4.5755,0.0,0.0,0.0,0.0,0.0,0.0,0.0,0.0,0.0,0.0,0.0,-5.1468,-5.13,-4.9751,-5.355,-5.606,-5.6064,-5.9039,-6.0954,-6.0954,-6.3169,-6.4813,-6.5287,-6.862,-7.0824,-7.0437,-7.2613,-7.3984,-7.3341,-7.2631,-7.2428,-7.2868,-7.209,-7.1785,-7.2766,-7.2563,-7.2225,-7.2191,-7.1718,-7.1345,-7.1312,-7.1312,-7.1312,-7.1312,-7.1176,-7.1075,-7.1278,-7.1244,-7.1075,-7.113,-7.1868,-7.2347,-7.17,-7.2283,-7.2864,-7.2332,-7.2578,-7.3148,-7.3216,-7.3748,-7.3981,-7.3737,-7.3744,-7.4345,-6.269,0.0,-6.1403,-6.0238,0.0,-5.7335,-5.5593,-5.3771,-5.0821,-4.8994,-4.8376,-5.0032,-5.0268,-4.9359,-5.1308,-5.1425,-5.0132,-5.0139,-4.9883,-4.9224,-4.8596,-4.8115,-4.7752,-4.7486,-4.7309,-4.7309,-4.6638,-4.6344,-4.6255,-4.5024,-4.4442,-4.4442,-4.3218,-4.2544,-4.2474,-4.123,-4.0362,-3.9697,-4.0362,-4.123,-4.2571,-4.4093,-4.5115,-4.5376,-4.6661,0.0,0.0,0.0,0.0,0.0,0.0,0.0,0.0,-4.7249,0.0,-4.8626,-4.9314,-4.9823,-5.0242,-5.2336,-5.3922,-5.4581,-5.6402,-5.6616,-5.4328,-5.7528,-5.9546,-5.9588,-6.1702,-6.2899,-6.266,-6.4336,-6.5622,-6.6072,-6.9225,-7.1484,-7.2035,-7.3441,-7.4627,-7.4492,-7.3612,-7.3105,-7.3409,-7.2902,-7.2665,-7.3341,-7.3172,-7.2935,-7.2868,-7.2293,-7.1751,-7.1413,-7.1312,-7.1312,-7.1312,-7.1312,-7.1312,-7.1312,-7.1312,-7.1312,-7.1312,-7.2498,-7.3431,-7.3124,-7.4187,-7.5065,-7.4776,-7.4957,-7.5209,-7.5282,-7.5895,-7.622,-7.5862,-7.5369,-7.5442,-6.2374,-6.1809,-6.144,-6.0894,-6.0096,-5.8132,-5.7078,-5.648,0.0,0.0,0.0,-4.8678,-4.8525,-4.788,-4.9783,-5.028,-4.9623,-4.9927,-4.9931,-4.9783,-4.9044,-4.8593,-4.8434,-4.7812,-4.7459,-4.7486,-4.7339,-4.7309,-4.7309,-4.6255,-4.5779,-4.5598,-4.4442,-4.3693,-4.3464,-4.2504,-4.1492,-4.0543,-4.0031,-4.0364,-4.1617,-4.3503,-4.4611,-4.4723,-4.7672,-4.8506,-4.695,-4.8117,-4.8388,-4.7376,-4.7584,-4.8179,-4.9274,-4.9991,-5.1259,-5.3384,-5.479,-5.5658,-5.5897,-5.7603,-5.8501,-5.8171,-6.0193,-6.0645,-5.8919,-6.0387,-6.1694,-6.2271,-6.3228,-6.3827,-6.3857,-6.5144,-6.6282,-6.7065,-6.9922,-7.2266,-7.3412,-7.4637,-7.5473,-7.5676,-7.4728,-7.395,-7.4153,-7.3747,-7.3612,-7.3815,-7.3815,-7.368,-7.3578,-7.3037,-7.236,-7.1718,-7.1616,-7.1515,-7.1345,-7.1312,-7.1312,-7.1312,-7.1312,-7.1312,-7.1546,-7.2962,-7.4193,-7.4199,-7.5959,-7.6983,-7.7243,-7.7107,-7.7378,-7.7524,-7.8075,-7.8442,-7.7866,-7.7101,-7.6818,-6.0812,-6.0816,-6.1579,-6.1583,-6.0894,-5.9985,-5.8555,-5.6566,-5.424,-5.224,-5.0664,-5.1001,-5.0221,-4.8347,-4.8873,-4.8797,-4.8291,-4.8938,-4.9049,-4.8528,-4.9449,-4.9674,-4.9118,-4.8501,-4.8115,-4.8166,-4.7575,-4.7309,-4.7309,-4.7135,-4.7019,-4.6844,-4.5779,-4.4563,-4.3586,-4.3306,-4.3472,-4.3694,-4.1077,-4.0364,-4.1617,-4.353,-4.5004,-4.6137,-4.8235,-4.9164,-4.8895,-5.0122,-5.1023,-5.1356,-5.2492,-5.3158,-5.3366,-5.3933,-5.4521,-5.494,-5.6107,-5.7334,-5.8501,-5.9907,-6.1134,-6.2121,-6.2625,-6.2475,-6.1642,-6.2361,-6.2814,-6.2959,-6.3139,-6.3199,-6.3318,-6.4904,-6.634,-6.7319,-7.074,-7.3379,-7.3639,-7.5773,-7.713,-7.669,-7.5946,-7.5608,-7.5879,-7.4661,-7.4052,-7.4931,-7.4762,-7.4458,-7.4356,-7.3815,-7.3105,-7.2428,-7.2259,-7.1988,-7.1548,-7.1312,-7.1345,-7.1312,-7.1345,-7.1435,-7.1457,-7.3195,-7.4416,-7.4345,-7.6104,-7.7228,-7.7451,-7.7341,-7.7708,-7.8259,-7.8662,-7.8883,-7.925,-7.9233,-7.9279,-6.048,-6.0663,-6.1611,-6.1912,-6.1553,-6.0535,-5.9547,-5.8444,-5.7167,-5.4936,-5.2533,-5.1927,-5.073,-4.9044,-4.9171,-4.8517,-4.7298,-4.8901,-4.9334,-4.8827,-4.9774,-5.0032,-4.9704,-4.9164,-4.8805,-4.8775,-4.8506,-4.8386,-4.8356,-4.8356,-4.8356,-4.8356,-4.7792,-4.6887,-4.5742,-4.5591,-4.5447,-4.4982,-4.2448,-4.1931,-4.3715,-4.4881,-4.5929,-4.698,-4.9508,-5.069,-5.0361,-5.1947,-5.3032,-5.3278,-5.4261,-5.4869,-5.5245,-5.5854,-5.6555,-5.7274,-5.856,-5.9697,-6.0685,-6.1642,-6.245,-6.3019,-6.3079,-6.2959,-6.266,-6.2899,-6.3079,-6.3079,-6.3079,-6.3228,-6.3558,-6.5456,-6.712,-6.8241,-7.1502,-7.382,-7.4686,-7.5806,-7.6758,-7.6826,-7.6183,-7.5845,-7.6217,-7.5337,-7.4864,-7.5574,-7.5371,-7.5202,-7.5168,-7.4897,-7.4255,-7.324,-7.2665,-7.2293,-7.1954,-7.1887,-7.1751,-7.1413,-7.2117,-7.2433,-7.2365,-7.4053,-7.551,-7.5872,-7.731,-7.8463,-7.8626,-7.8662,-7.8846,-7.914,-8.0057,-8.0498,-8.0608,-8.1085,-8.1415,-6.0237,-6.0543,-6.1875,-6.2241,-6.2002,-6.0835,-6.0326,-6.0266,-5.9777,-5.7944,-5.5252,-5.3441,-5.1692,-5.0274,-5.002,-4.8816,-4.7367,-4.8897,-4.9263,-4.8538,-4.9291,-4.9728,-4.9893,-4.9304,-4.9159,-4.9461,-4.9404,-4.9254,-4.9254,-4.9254,-4.9254,-4.9254,-4.9254,-4.8771,-4.7852,-4.7971,-4.7609,-4.674,-4.5029,-4.4613,-4.5453,-4.6278,-4.7136,-4.7961,-5.084,-5.2306,-5.2217,-5.3743,-5.479,-5.5089,-5.5718,-5.6376,-5.7034,-5.7663,-5.8471,-5.9548,-6.0655,-6.1672,-6.248,-6.2989,-6.3288,-6.3288,-6.3288,-6.3228,-6.3109,-6.3079,-6.3079,-6.3079,-6.3079,-6.3374,-6.4226,-6.5862,-6.7679,-6.935,-7.1722,-7.3833,-7.5201,-7.5769,-7.6251,-7.6893,-7.6454,-7.6048,-7.6115,-7.5912,-7.5608,-7.5405,-7.5574,-7.5642,-7.5506,-7.5574,-7.5134,-7.4086,-7.3138,-7.2597,-7.2428,-7.2395,-7.2267,-7.1756,-7.3119,-7.3774,-7.3972,-7.5609,-7.7018,-7.7372,-7.8559,-7.948,-7.9727,-7.991,-7.9984,-8.0167,-8.1195,-8.2223,-8.2113,-8.2553,-8.3104,-5.9104,-6.06,-6.2349,-6.263,-6.2061,-6.1313,-6.1014,-6.0954,-6.0965,-6.0746,-5.9889,-5.6961,-5.4258,-5.2287,-5.1321,-4.9717,-4.7781,-4.8572,-4.8105,-4.6733,-4.7581,-4.8581,-4.9274,-4.869,-4.8916,-4.994,-4.9643,-4.9494,-4.9494,-4.9404,-4.9314,-4.9254,-4.9254,-4.9374,-4.9224,-4.9674,-5.0154,-5.0614,-4.9931,-4.8154,-4.5733,-4.719,-4.847,-4.9086,-5.1727,-5.3653,-5.461,-5.5598,-5.6555,-5.7693,-5.8351,-5.9009,-5.9668,-6.0326,-6.0775,-6.0924,-6.1613,-6.251,-6.3677,-6.3887,-6.4034,-6.3917,-6.4004,-6.3647,-6.3169,-6.3079,-6.3079,-6.3109,-6.3109,-6.3652,-6.4857,-6.5775,-6.7445,-6.9793,-7.1617,-7.3045,-7.4589,-7.5952,-7.7063,-7.7807,-7.7029,-7.6995,-7.7198,-7.642,-7.5473,-7.5033,-7.5371,-7.5506,-7.51,-7.527,-7.5371,-7.4559,-7.3849,-7.3105,-7.2621,-7.257,-7.2673,-7.272,-7.4122,-7.4957,-7.5449,-7.6514,-7.8095,-7.8078,-7.8996,-7.9874,-8.0021,-8.0314,-8.0901,-8.1048,-8.2076,-8.3434,-8.3948,-8.3911,-8.3691,-5.9008,-6.06,-6.2409,-6.2929,-6.26,-6.1972,-6.1702,-6.1642,-6.1267,-6.1117,-6.0932,-5.9516,-5.7507,-5.5055,-5.3834,-5.196,-4.9717,-5.0757,-5.0431,-4.9141,-4.9502,-4.9966,-5.0237,-5.001,-5.0208,-5.0701,-5.1268,-5.1588,-5.1588,-5.1588,-5.1588,-5.1588,-5.1588,-5.1588,-5.1588,-5.1807,-5.2077,-5.2366,-5.2159,-5.1483,-5.0738,-5.0138,-5.0522,-5.1621,-5.3456,-5.4581,-5.5299,-5.6915,-5.8171,-5.874,-5.9727,-6.0416,-6.0685,-6.0954,-6.1283,-6.1702,-6.3477,-6.4871,-6.5788,-6.6722,-6.6834,-6.5963,-6.5482,-6.4836,-6.3734,-6.3288,-6.3228,-6.3528,-6.3288,-6.3514,-6.4532,-6.6168,-6.8065,-6.9691,-7.2052,-7.3956,-7.4533,-7.554,-7.6318,-7.6589,-7.6386,-7.6284,-7.6487,-7.6115,-7.5608,-7.5303,-7.554,-7.5506,-7.527,-7.5168,-7.4931,-7.4593,-7.3984,-7.324,-7.2655,-7.2892,-7.2999,-7.3248,-7.4667,-7.5974,-7.6016,-7.7221,-7.8406,-7.8479,-7.9544,-8.0388,-8.0534,-8.1122,-8.1709,-8.2003,-8.2517,-8.3765,-8.5049,-8.5049,-8.5049,-5.898,-6.06,-6.2409,-6.3079,-6.3049,-6.257,-6.2361,-6.2331,-6.1852,-6.1642,-6.1672,-6.1486,-6.0203,-5.8253,-5.6537,-5.438,-5.229,-5.268,-5.2062,-5.0606,-5.0417,-5.0538,-5.073,-5.0832,-5.1237,-5.1932,-5.2892,-5.3533,-5.3683,-5.3743,-5.3743,-5.3713,-5.3563,-5.3473,-5.3473,-5.3601,-5.3691,-5.3773,-5.4052,-5.4499,-5.4678,-5.37,-5.3377,-5.4032,-5.5119,-5.5867,-5.6316,-5.8261,-5.9458,-5.9668,-6.0775,-6.1463,-6.1642,-6.1822,-6.2408,-6.3494,-6.5484,-6.7305,-6.8263,-6.9581,-6.9689,-6.8516,-6.7966,-6.7007,-6.5657,-6.4691,-6.4462,-6.4795,-6.406,-6.406,-6.5565,-6.7368,-6.8973,-7.042,-7.3101,-7.4593,-7.4627,-7.527,-7.5845,-7.598,-7.5946,-7.5676,-7.5709,-7.5676,-7.5608,-7.5371,-7.554,-7.5439,-7.5202,-7.4762,-7.4559,-7.4322,-7.3646,-7.3037,-7.2621,-7.3426,-7.3568,-7.3973,-7.5295,-7.702,-7.671,-7.8089,-7.9176,-7.958,-8.047,-8.1085,-8.1342,-8.1929,-8.2737,-8.303,-8.3287,-8.3875,-8.5343,-8.538,-8.5343,-5.898,-6.0629,-6.2409,-6.3079,-6.3079,-6.3019,-6.3019,-6.2959,-6.2929,-6.2929,-6.2839,-6.237,-6.1928,-6.1476,-5.9031,-5.678,-5.48,-5.3675,-5.1966,-4.9671,-4.932,-4.9483,-5.0198,-5.0298,-5.1625,-5.3663,-5.4231,-5.47,-5.5179,-5.5119,-5.5089,-5.5089,-5.4581,-5.4221,-5.4341,-5.482,-5.5089,-5.5209,-5.608,-5.6855,-5.7034,-5.7408,-5.7049,-5.6316,-5.6705,-5.7633,-5.874,-5.9608,-6.0326,-6.0984,-6.1702,-6.2361,-6.2929,-6.3528,-6.4764,-6.6663,-6.7765,-6.9126,-7.1009,-7.2022,-7.2228,-7.1497,-7.1132,-7.0652,-6.9028,-6.7762,-6.7125,-6.7125,-6.6138,-6.6338,-6.8685,-6.9127,-7.0215,-7.2438,-7.3939,-7.4661,-7.4661,-7.5473,-7.6048,-7.6454,-7.6082,-7.5777,-7.5743,-7.5676,-7.5439,-7.5168,-7.5337,-7.5337,-7.439,-7.4356,-7.4289,-7.3713,-7.3071,-7.2462,-7.2542,-7.3602,-7.4482,-7.4729,-7.5836,-7.8135,-7.872,-7.9213,-7.9837,-8.0388,-8.0608,-8.1085,-8.1966,-8.2847,-8.3728,-8.3911,-8.3251,-8.3838,-8.4939,-8.4242,-8.4352,-5.9995,-6.2175,-6.2817,-6.3079,-6.3079,-6.3079,-6.3079,-6.3079,-6.3079,-6.3079,-6.3049,-6.2814,-6.2694,-6.26,-6.0386,-5.8763,-5.7478,-5.6208,-5.4907,-5.3431,-5.2129,-5.1709,-5.2012,-5.2329,-5.2943,-5.4048,-5.5782,-5.7004,-5.7513,-5.6855,-5.6645,-5.6915,-5.6406,-5.6047,-5.6107,-5.6286,-5.6406,-5.6466,-5.687,-5.7467,-5.8351,-5.862,-5.889,-5.9308,-5.9099,-5.9219,-5.9697,-6.0775,-6.1493,-6.1732,-6.272,-6.3438,-6.3737,-6.4695,-6.6012,-6.7636,-6.9756,-7.1521,-7.2825,-7.4832,-7.5558,-7.4392,-7.3828,-7.3087,-7.1649,-7.0549,-7.0235,-7.0363,-7.0298,-7.0981,-7.2337,-7.1422,-7.0372,-7.1574,-7.4237,-7.5845,-7.5676,-7.6352,-7.6927,-7.6284,-7.5845,-7.5879,-7.6149,-7.6048,-7.5811,-7.6014,-7.5879,-7.5405,-7.5033,-7.4796,-7.4289,-7.368,-7.324,-7.2972,-7.2691,-7.3579,-7.4437,-7.4952,-7.5908,-7.7086,-7.7834,-7.805,-7.8552,-7.9066,-7.9617,-8.0571,-8.1305,-8.2627,-8.3691,-8.3985,-8.3324,-8.3691,-8.4168,-8.4168,-8.4425,-6.079,-6.2963,-6.3079,-6.3079,-6.3079,-6.3079,-6.3079,-6.3079,-6.3079,-6.3079,-6.3079,-6.3079,-6.2959,-6.254,-6.1104,-6.0057,-5.9279,-5.7812,-5.6645,-5.5867,-5.4583,-5.3931,-5.3844,-5.4387,-5.5031,-5.582,-5.7942,-5.9299,-5.9638,-5.883,-5.865,-5.9009,-5.8381,-5.7962,-5.7782,-5.7752,-5.7752,-5.7752,-5.7932,-5.865,-5.9638,-5.9967,-6.0475,-6.1253,-6.1164,-6.0924,-6.0775,-6.1822,-6.251,-6.281,-6.3737,-6.4605,-6.5293,-6.6131,-6.7243,-6.8759,-7.0879,-7.2732,-7.4245,-7.6589,-7.7579,-7.6971,-7.6435,-7.5658,-7.4719,-7.364,-7.3426,-7.3771,-7.3527,-7.3973,-7.4746,-7.402,-7.3069,-7.3175,-7.5539,-7.7029,-7.6555,-7.713,-7.6927,-7.6014,-7.5709,-7.5946,-7.6318,-7.598,-7.598,-7.6454,-7.6014,-7.5608,-7.5033,-7.4593,-7.3984,-7.3366,-7.322,-7.3186,-7.3386,-7.4192,-7.4942,-7.5442,-7.6079,-7.6927,-7.7358,-7.7364,-7.7598,-7.7928,-7.8662,-7.969,-8.0901,-8.2296,-8.3104,-8.3654,-8.4058,-8.4389,-8.4609,-8.4682,-8.5013,-6.1525,-6.2933,-6.3079,-6.3079,-6.3079,-6.3079,-6.3079,-6.3079,-6.3079,-6.3079,-6.3079,-6.3079,-6.275,-6.2091,-6.1343,-6.0685,-5.9757,-5.8141,-5.6705,-5.5688,-5.5914,-5.5825,-5.5304,-5.6029,-5.7274,-5.8912,-6.0335,-6.1074,-6.1074,-6.0894,-6.0864,-6.0894,-6.0236,-5.9608,-5.9129,-5.9099,-5.9099,-5.9219,-5.9638,-6.0326,-6.1104,-6.1583,-6.1882,-6.2151,-6.257,-6.257,-6.2061,-6.266,-6.3258,-6.3887,-6.4605,-6.5951,-6.7418,-6.7807,-6.8606,-6.9786,-7.0875,-7.2788,-7.534,-7.6992,-7.827,-7.869,-7.8992,-7.8792,-7.832,-7.7034,-7.6208,-7.663,-7.5896,-7.512,-7.5714,-7.7205,-7.8179,-7.8118,-7.8082,-7.8348,-7.8044,-7.7367,-7.6657,-7.6048,-7.5811,-7.5709,-7.5743,-7.5743,-7.5845,-7.6048,-7.5946,-7.5506,-7.4661,-7.4322,-7.3477,-7.2881,-7.3338,-7.3894,-7.4402,-7.4876,-7.5442,-7.6068,-7.6818,-7.7511,-7.7694,-7.7818,-7.8259,-7.8626,-7.9323,-8.0314,-8.1452,-8.2737,-8.3618,-8.4168,-8.4609,-8.5159,-8.549,-8.571,-8.5747,-6.1525,-6.3079,-6.3079,-6.3079,-6.3079,-6.3079,-6.3079,-6.3079,-6.3079,-6.3079,-6.3079,-6.3079,-6.272,-6.2061,-6.1403,-6.0745,-6.0027,-5.8949,-5.8022,-5.7363,-5.7423,-5.7423,-5.7438,-5.8291,-5.9697,-6.0992,-6.153,-6.2032,-6.2301,-6.2032,-6.1792,-6.1672,-6.1134,-6.0715,-6.0475,-6.0475,-6.0505,-6.0505,-6.0685,-6.1104,-6.1732,-6.2002,-6.2301,-6.275,-6.2989,-6.2959,-6.281,-6.2959,-6.3378,-6.3977,-6.5084,-6.661,-6.8166,-6.8226,-6.8445,-6.9362,-7.1136,-7.2732,-7.4751,-7.6823,-7.8491,-7.9634,-8.031,-8.0581,-8.0615,-8.0005,-7.9596,-7.9864,-7.9447,-7.9202,-7.9475,-8.0387,-8.0666,-7.9002,-8.0136,-8.0615,-7.9904,-7.8653,-7.7705,-7.7232,-7.6352,-7.6014,-7.6251,-7.6183,-7.6217,-7.6961,-7.6792,-7.6217,-7.5912,-7.5574,-7.527,-7.428,-7.4734,-7.49,-7.5257,-7.59,-7.6686,-7.6941,-7.7431,-7.7708,-7.7892,-7.8442,-7.8883,-7.9396,-8.0094,-8.0938,-8.2076,-8.3214,-8.4168,-8.4903,-8.549,-8.6077,-8.6664,-8.6775,-8.6664,-6.2145,-6.3079,-6.3079,-6.3079,-6.3079,-6.3079,-6.3079,-6.3079,-6.3079,-6.3079,-6.3079,-6.3079,-6.257,-6.1792,-6.1283,-6.0595,-5.9757,-5.9279,-5.9009,-5.886,-5.886,-5.886,-5.9009,-6.024,-6.1248,-6.2012,-6.2605,-6.3019,-6.3408,-6.3288,-6.3049,-6.275,-6.2391,-6.1912,-6.1523,-6.1463,-6.1493,-6.1493,-6.1493,-6.1792,-6.2301,-6.245,-6.266,-6.3019,-6.3079,-6.3079,-6.3079,-6.3288,-6.382,-6.494,-6.6681,-6.8899,-7.0771,-7.0464,-7.0216,-7.0918,-7.2132,-7.3739,-7.5085,-7.6823,-7.8724,-8.0241,-8.1021,-8.1562,-8.1866,-8.1934,-8.1765,-8.2069,-8.1999,-8.2103,-8.2205,-8.278,-8.2494,-8.1417,-8.1749,-8.1968,-8.0953,-7.9701,-7.8551,-7.8044,-7.7401,-7.7198,-7.7063,-7.6995,-7.6893,-7.7705,-7.7604,-7.713,-7.7029,-7.6826,-7.6048,-7.5637,-7.5915,-7.6047,-7.6109,-7.6876,-7.791,-7.8016,-7.8086,-7.7965,-7.7892,-7.8883,-7.958,-8.0057,-8.0681,-8.1452,-8.2517,-8.4058,-8.5196,-8.5783,-8.6334,-8.7252,-8.7802,-8.7399,-8.7399,-6.3079,-6.3079,-6.3079,-6.3079,-6.3079,-6.3079,-6.3079,-6.3079,-6.3079,-6.3079,-6.3079,-6.3079,-6.2361,-6.1343,-6.1134,-6.0416,-5.9308,-5.9129,-5.9518,-5.9907,-6.0086,-6.0116,-6.0475,-6.1515,-6.2211,-6.2463,-6.3471,-6.4006,-6.4096,-6.4485,-6.4665,-6.3887,-6.3617,-6.3318,-6.2331,-6.2151,-6.2151,-6.2151,-6.2151,-6.245,-6.2989,-6.3019,-6.3049,-6.3079,-6.3169,-6.3199,-6.3288,-6.4262,-6.5346,-6.661,-6.9301,-7.1837,-7.3739,-7.3848,-7.3097,-7.3066,-7.4107,-7.478,-7.5882,-7.7256,-7.8857,-8.0714,-8.1291,-8.1866,-8.2813,-8.2577,-8.2543,-8.3152,-8.3287,-8.3389,-8.3558,-8.4031,-8.4229,-8.437,-8.3317,-8.2238,-8.075,-8.0378,-7.9634,-7.8653,-7.8653,-7.8754,-7.7942,-7.7807,-7.7908,-7.8077,-7.8111,-7.7841,-7.7705,-7.7502,-7.6521,-7.6758,-7.7493,-7.7696,-7.7929,-7.842,-7.9223,-7.8693,-7.8626,-7.8259,-7.8405,-7.9433,-8.0608,-8.1048,-8.1525,-8.2223,-8.3214,-8.4756,-8.571,-8.6151,-8.7031,-8.8316,-8.8683,-8.839,-8.839,-6.3079,-6.3079,-6.3079,-6.3079,-6.3079,-6.3079,-6.3079,-6.3079,-6.3079,-6.3079,-6.3079,-6.3079,-6.2361,-6.1194,-6.1104,-6.0386,-5.9398,-5.9129,-5.9787,-6.0715,-6.0835,-6.1433,-6.2121,-6.26,-6.3083,-6.3505,-6.4277,-6.4755,-6.4755,-6.4964,-6.4695,-6.4006,-6.3588,-6.3228,-6.2839,-6.278,-6.2839,-6.281,-6.281,-6.2839,-6.3019,-6.3164,-6.3079,-6.3109,-6.3584,-6.3824,-6.4206,-6.7001,-6.8769,-6.9263,-7.1055,-7.2857,-7.4411,-7.4139,-7.3642,-7.3353,-7.4076,-7.5021,-7.6022,-7.7627,-7.9229,-8.0377,-8.1528,-8.2272,-8.2611,-8.2543,-8.278,-8.3321,-8.349,-8.3761,-8.42,-8.4505,-8.4606,-8.4573,-8.4167,-8.3524,-8.2577,-8.1629,-8.0615,-7.9769,-7.8957,-7.8551,-7.8247,-7.8145,-7.828,-7.8686,-7.8822,-7.8957,-7.8957,-7.916,-7.8653,-7.8989,-7.9532,-7.9648,-7.9921,-8.0221,-8.0259,-7.948,-7.9066,-7.8626,-7.9176,-8.0204,-8.1525,-8.259,-8.2957,-8.3544,-8.4425,-8.56,-8.6077,-8.6848,-8.7949,-8.9271,-8.9638,-8.9601,-8.9564,-6.3079,-6.3079,-6.3079,-6.3079,-6.3079,-6.3079,-6.3079,-6.3079,-6.3079,-6.3079,-6.3079,-6.3079,-6.251,-6.1553,-6.1224,-6.0565,-5.9578,-5.9219,-5.9697,-6.0625,-6.1253,-6.2061,-6.2839,-6.3079,-6.3441,-6.404,-6.4725,-6.4994,-6.5084,-6.5293,-6.4904,-6.4126,-6.3647,-6.3348,-6.3049,-6.3079,-6.3079,-6.3019,-6.2839,-6.278,-6.3049,-6.3403,-6.3771,-6.4066,-6.483,-6.5553,-6.6567,-6.9797,-7.1625,-7.1755,-7.3186,-7.4845,-7.5851,-7.6037,-7.5357,-7.4537,-7.5915,-7.6934,-7.7034,-7.8507,-7.9924,-8.0951,-8.2035,-8.2678,-8.3219,-8.3355,-8.3592,-8.3896,-8.3964,-8.42,-8.4471,-8.4606,-8.4809,-8.5012,-8.4809,-8.4336,-8.3592,-8.2712,-8.1765,-8.0953,-8.0445,-7.9803,-7.9126,-7.8889,-7.9126,-7.9431,-7.9566,-7.9938,-8.0378,-8.0784,-8.0885,-8.077,-8.0603,-8.0596,-8.0385,-8.0551,-8.0532,-7.992,-7.9653,-7.9176,-7.991,-8.0938,-8.1929,-8.3067,-8.3985,-8.4903,-8.571,-8.6628,-8.7692,-8.8536,-8.9417,-8.9821,-9.0188,-9.0482,-9.0482,-6.3079,-6.3079,-6.3079,-6.3079,-6.3079,-6.3079,-6.3079,-6.3079,-6.3079,-6.3079,-6.3079,-6.3079,-6.266,-6.2061,-6.1523,-6.0805,-6.0027,-5.9518,-5.9757,-6.0565,-6.1523,-6.26,-6.3224,-6.3258,-6.368,-6.4368,-6.4845,-6.5353,-6.5889,-6.6162,-6.5709,-6.5268,-6.4789,-6.4051,-6.3713,-6.3508,-6.3279,-6.2959,-6.248,-6.254,-6.3153,-6.3659,-6.4289,-6.5218,-6.6815,-6.8012,-6.9628,-7.2079,-7.3567,-7.2916,-7.557,-7.7176,-7.8148,-7.8824,-7.8319,-7.7511,-7.8489,-7.9162,-7.8587,-7.9533,-8.0851,-8.19,-8.2272,-8.3016,-8.393,-8.4133,-8.42,-8.4437,-8.4606,-8.4573,-8.464,-8.4674,-8.4979,-8.5249,-8.4911,-8.4336,-8.3795,-8.3524,-8.2983,-8.1799,-8.2678,-8.2171,-8.1021,-8.031,-8.0378,-7.9938,-8.0276,-8.1088,-8.1562,-8.1968,-8.1765,-8.1224,-8.1249,-8.1224,-8.0966,-8.0717,-8.0466,-8.0149,-8.0103,-8.0057,-8.0681,-8.1562,-8.2223,-8.3141,-8.4389,-8.5673,-8.6848,-8.7876,-8.894,-8.9674,-9.0188,-9.0445,-9.0629,-9.0886,-9.0996,-6.3079,-6.3079,-6.3079,-6.3079,-6.3079,-6.3079,-6.3079,-6.3079,-6.3079,-6.3079,-6.3079,-6.3079,-6.272,-6.2121,-6.1882,-6.1253,-6.0266,-6.0027,-6.0266,-6.1014,-6.2241,-6.3134,-6.37,-6.3764,-6.4483,-6.5293,-6.5652,-6.67,-6.7801,-6.7843,-6.7889,-6.7966,-6.7151,-6.6448,-6.4967,-6.4715,-6.4097,-6.3159,-6.2535,-6.2648,-6.335,-6.4087,-6.4969,-6.6339,-6.8564,-7.0119,-7.1328,-7.3828,-7.5218,-7.5658,-7.7333,-7.9025,-7.9532,-7.9837,-7.9498,-7.9058,-7.9431,-7.9769,-7.9431,-8.0581,-8.1765,-8.1765,-8.2644,-8.3389,-8.3592,-8.3828,-8.4099,-8.4437,-8.4606,-8.4708,-8.4843,-8.5249,-8.5249,-8.508,-8.4809,-8.4539,-8.4302,-8.3862,-8.3355,-8.305,-8.2746,-8.2069,-8.0615,-8.1359,-8.1257,-8.0648,-8.119,-8.2103,-8.2714,-8.3294,-8.3126,-8.2778,-8.3201,-8.3314,-8.2689,-8.2385,-8.2097,-8.1615,-8.1387,-8.1269,-8.1893,-8.2296,-8.2994,-8.3911,-8.4976,-8.6297,-8.7655,-8.861,-8.9564,-9.0262,-9.0812,-9.0776,-9.0849,-9.1143,-9.1363,-6.3079,-6.3079,-6.3079,-6.3079,-6.3079,-6.3079,-6.3079,-6.3079,-6.3079,-6.3079,-6.3079,-6.3079,-6.2869,-6.254,-6.2241,-6.1642,-6.1104,-6.0685,-6.0924,-6.1583,-6.2361,-6.3044,-6.3935,-6.4093,-6.4635,-6.5922,-6.718,-6.8224,-6.8984,-6.9597,-6.973,-6.9756,-6.9189,-6.7991,-6.6827,-6.6626,-6.6152,-6.528,-6.4398,-6.4274,-6.4971,-6.566,-6.7411,-6.9432,-7.1778,-7.3299,-7.4691,-7.6664,-7.794,-7.8607,-7.98,-8.0412,-8.0276,-8.0513,-8.031,-7.987,-7.9904,-8.0276,-8.0513,-8.1156,-8.1968,-8.2306,-8.3118,-8.3558,-8.3896,-8.4031,-8.4403,-8.4945,-8.5215,-8.5283,-8.5621,-8.5148,-8.5114,-8.5182,-8.4843,-8.464,-8.4539,-8.4268,-8.3862,-8.3659,-8.349,-8.2746,-8.2272,-8.2274,-8.2206,-8.1563,-8.2595,-8.3522,-8.454,-8.5013,-8.509,-8.5147,-8.5687,-8.5599,-8.4676,-8.4313,-8.4231,-8.3801,-8.3361,-8.3214,-8.3398,-8.3618,-8.3838,-8.4756,-8.5673,-8.7068,-8.8353,-8.9271,-8.9968,-9.0408,-9.0739,-9.0849,-9.0886,-9.0922,-9.1179,-6.3169,-6.3079,-6.3079,-6.3079,-6.3079,-6.3079,-6.3079,-6.3079,-6.3079,-6.3079,-6.3079,-6.3079,-6.3049,-6.2929,-6.251,-6.2241,-6.1912,-6.1583,-6.1583,-6.2002,-6.2301,-6.3014,-6.376,-6.4093,-6.4725,-6.6161,-6.7989,-6.9255,-7.0243,-7.125,-7.211,-7.1407,-7.0792,-7.0047,-6.9124,-6.8563,-6.8011,-6.7067,-6.6153,-6.6122,-6.6894,-6.7818,-6.9868,-7.3021,-7.4825,-7.6301,-7.7546,-7.9027,-8.0343,-8.1316,-8.214,-8.1864,-8.1252,-8.1052,-8.1224,-8.0581,-8.0716,-8.0919,-8.1291,-8.1697,-8.234,-8.3456,-8.3659,-8.3964,-8.4437,-8.4539,-8.4809,-8.5148,-8.5418,-8.5621,-8.6332,-8.5486,-8.508,-8.5249,-8.4945,-8.4674,-8.4606,-8.4606,-8.4234,-8.3727,-8.3795,-8.3456,-8.2886,-8.2581,-8.2649,-8.2888,-8.3949,-8.4889,-8.5904,-8.6604,-8.6636,-8.6964,-8.7338,-8.7239,-8.6448,-8.5987,-8.594,-8.538,-8.4976,-8.5013,-8.4976,-8.538,-8.56,-8.5527,-8.6407,-8.7692,-8.883,-8.9711,-9.0262,-9.0555,-9.0665,-9.0739,-9.0702,-9.0629,-9.0959,-6.3558,-6.3079,-6.3079,-6.3079,-6.3079,-6.3079,-6.3079,-6.3079,-6.3079,-6.3079,-6.3079,-6.3079,-6.3079,-6.3019,-6.3019,-6.263,-6.2211,-6.2002,-6.2002,-6.2271,-6.26,-6.3284,-6.37,-6.4116,-6.4781,-6.6219,-6.8328,-7.0231,-7.1998,-7.3965,-7.4592,-7.477,-7.4567,-7.3342,-7.1325,-7.0304,-6.9765,-6.8708,-6.7631,-6.7354,-6.798,-6.932,-7.1475,-7.5141,-7.686,-7.8145,-7.8991,-7.9803,-8.0513,-8.1325,-8.2579,-8.3013,-8.284,-8.2472,-8.2238,-8.2069,-8.1866,-8.19,-8.234,-8.278,-8.3152,-8.3592,-8.4031,-8.437,-8.4573,-8.464,-8.4809,-8.4911,-8.4979,-8.4979,-8.4979,-8.5022,-8.4814,-8.4882,-8.506,-8.489,-8.4785,-8.4822,-8.4689,-8.425,-8.4316,-8.4205,-8.367,-8.3497,-8.4067,-8.4627,-8.5706,-8.6431,-8.723,-8.7798,-8.8047,-8.8434,-8.8885,-8.8541,-8.8033,-8.7813,-8.7509,-8.6701,-8.6371,-8.6554,-8.6701,-8.7288,-8.7472,-8.6885,-8.6995,-8.7949,-8.9014,-9.0041,-9.0445,-9.0629,-9.0629,-9.0555,-9.0408,-9.0298,-9.0629,-6.3827,-6.3528,-6.3228,-6.3079,-6.3079,-6.3079,-6.3079,-6.3079,-6.3079,-6.3079,-6.3079,-6.3079,-6.3079,-6.3079,-6.3079,-6.2869,-6.269,-6.26,-6.26,-6.272,-6.2929,-6.3254,-6.3779,-6.4243,-6.5034,-6.6682,-6.8889,-7.0991,-7.271,-7.5554,-7.6676,-7.6901,-7.6893,-7.5792,-7.4198,-7.3833,-7.2512,-7.1161,-7.0271,-7.0037,-7.059,-7.22,-7.469,-7.653,-7.8686,-8.0175,-8.1257,-8.1629,-8.2238,-8.3019,-8.3659,-8.3925,-8.3925,-8.3756,-8.3524,-8.3389,-8.2881,-8.2847,-8.3287,-8.3659,-8.3625,-8.4065,-8.4437,-8.4573,-8.4606,-8.464,-8.4776,-8.508,-8.5215,-8.5502,-8.6234,-8.5652,-8.582,-8.635,-8.6449,-8.635,-8.6449,-8.6449,-8.59,-8.5156,-8.4865,-8.466,-8.4483,-8.4702,-8.5525,-8.6474,-8.7409,-8.8092,-8.8599,-8.8996,-8.9306,-8.9266,-8.9705,-8.9843,-8.9421,-8.9273,-8.8977,-8.8206,-8.7766,-8.7986,-8.7912,-8.8243,-8.8023,-8.7472,-8.7876,-8.8463,-8.916,-9.0152,-9.0408,-9.0445,-8.9858,-8.9491,-8.9821,-9.0041,-9.0372,-6.4246,-6.3947,-6.3468,-6.3199,-6.3079,-6.3079,-6.3079,-6.3079,-6.3079,-6.3079,-6.3079,-6.3079,-6.3079,-6.3109,-6.3228,-6.3258,-6.3258,-6.3258,-6.3258,-6.3228,-6.3109,-6.3224,-6.3803,-6.4482,-6.5647,-6.7121,-6.9343,-7.1775,-7.3225,-7.5971,-7.761,-7.7976,-7.8077,-7.7604,-7.6594,-7.6227,-7.556,-7.4645,-7.3966,-7.395,-7.4627,-7.6014,-7.757,-7.8416,-8.031,-8.1832,-8.2983,-8.3152,-8.349,-8.3998,-8.4403,-8.4539,-8.4398,-8.4573,-8.4606,-8.4437,-8.3456,-8.3693,-8.4031,-8.4133,-8.4031,-8.4471,-8.4573,-8.4606,-8.4606,-8.4674,-8.4843,-8.5418,-8.5486,-8.5954,-8.6607,-8.6662,-8.703,-8.7677,-8.7952,-8.8133,-8.7952,-8.7664,-8.729,-8.6557,-8.5708,-8.5294,-8.5177,-8.5399,-8.6188,-8.735,-8.8301,-8.9256,-8.9748,-9.0211,-9.044,-9.0116,-9.0264,-9.0777,-9.0812,-9.063,-9.0298,-8.9711,-8.9417,-8.9491,-8.9124,-8.8867,-8.85,-8.8243,-8.8573,-8.916,-8.9748,-8.9931,-8.9968,-8.9638,-8.8757,-8.883,-8.9748,-9.0113,-9.0294,-6.5084,-6.4006,-6.3917,-6.3588,-6.3139,-6.3079,-6.3079,-6.3079,-6.3079,-6.3079,-6.3079,-6.3079,-6.3079,-6.3258,-6.3707,-6.3887,-6.3887,-6.3887,-6.3857,-6.3737,-6.3378,-6.367,-6.4607,-6.49,-6.6224,-6.7648,-6.9544,-7.1523,-7.3338,-7.5737,-7.7671,-7.8382,-7.8348,-7.8111,-7.8213,-7.7841,-7.6362,-7.5624,-7.5479,-7.5743,-7.6386,-7.7333,-7.8585,-7.9701,-8.0919,-8.2002,-8.3219,-8.3422,-8.3554,-8.365,-8.4229,-8.4196,-8.3853,-8.4263,-8.4573,-8.4606,-8.4471,-8.4437,-8.464,-8.4471,-8.4471,-8.4708,-8.4674,-8.464,-8.4606,-8.464,-8.4674,-8.4674,-8.495,-8.596,-8.7067,-8.6818,-8.7186,-8.8058,-8.8968,-8.8685,-8.8526,-8.9185,-8.8742,-8.825,-8.7442,-8.6752,-8.6311,-8.6501,-8.6872,-8.8028,-8.9185,-9.0039,-9.052,-9.0703,-9.1216,-9.0849,-9.0776,-9.1253,-9.14,-9.1363,-9.1216,-9.0812,-9.0629,-9.0519,-8.9968,-8.9417,-8.9344,-8.9234,-8.9344,-8.894,-8.8793,-8.8867,-8.9197,-8.9087,-8.8536,-8.9197,-9.0262,-9.0404,-9.0328,-6.6909,-6.5592,-6.4455,-6.3857,-6.3588,-6.3228,-6.3079,-6.3079,-6.3079,-6.3079,-6.3079,-6.3079,-6.3258,-6.3647,-6.4276,-6.4575,-6.4575,-6.4575,-6.4336,-6.4066,-6.3737,-6.3734,-6.4213,-6.553,-6.6967,-6.795,-6.9754,-7.1419,-7.3318,-7.5056,-7.686,-7.7841,-7.872,-7.9126,-7.9295,-7.9329,-7.8384,-7.7509,-7.7036,-7.6969,-7.7269,-7.8348,-7.9532,-8.0209,-8.1629,-8.2475,-8.2847,-8.3355,-8.3178,-8.3072,-8.3245,-8.3452,-8.3515,-8.3892,-8.4268,-8.5249,-8.4843,-8.4843,-8.5182,-8.4877,-8.4877,-8.5012,-8.4911,-8.4606,-8.4606,-8.464,-8.5233,-8.6269,-8.6405,-8.7345,-8.9081,-8.984,-9.0259,-9.066,-9.0491,-9.0331,-9.0186,-9.0204,-9.0262,-8.9741,-8.9148,-8.8293,-8.7654,-8.7672,-8.8118,-8.9159,-8.9895,-9.0374,-9.0301,-8.9896,-9.0592,-9.1363,-9.1436,-9.162,-9.1657,-9.162,-9.1583,-9.1216,-9.0702,-9.0592,-9.0298,-8.9968,-8.9491,-8.883,-8.8243,-8.7912,-8.7692,-8.8023,-8.8573,-8.8573,-8.8463,-8.916,-8.9895,-9.059,-9.0732,-6.8405,-6.7328,-6.5503,-6.4485,-6.3977,-6.3498,-6.3199,-6.3079,-6.3079,-6.3079,-6.3139,-6.3258,-6.3617,-6.4126,-6.4814,-6.5263,-6.5263,-6.5293,-6.4844,-6.4425,-6.4036,-6.3884,-6.4614,-6.596,-6.7362,-6.7702,-7.0142,-7.1469,-7.2472,-7.3916,-7.5405,-7.6826,-7.7874,-7.9025,-7.9634,-7.9803,-7.9431,-7.8416,-7.8185,-7.7814,-7.7739,-7.8923,-7.9735,-8.0581,-8.1596,-8.2611,-8.2543,-8.2847,-8.2807,-8.2263,-8.2402,-8.2709,-8.2773,-8.3283,-8.393,-8.4708,-8.4606,-8.4979,-8.5215,-8.5148,-8.508,-8.5114,-8.508,-8.4606,-8.4606,-8.464,-8.5202,-8.6843,-8.7389,-8.912,-9.1362,-9.2088,-9.2428,-9.2545,-9.2864,-9.261,-9.217,-9.1691,-9.1029,-9.0258,-8.9857,-8.9714,-8.9198,-8.908,-8.949,-9.0301,-9.0739,-9.0812,-9.0445,-8.9858,-9.0335,-9.1363,-9.162,-9.173,-9.1767,-9.1767,-9.173,-9.1473,-9.0922,-9.0408,-9.0005,-8.9381,-8.8683,-8.7986,-8.7435,-8.7325,-8.7325,-8.7655,-8.7912,-8.7912,-8.8023,-8.8647,-8.9344,-9.0223,-9.1204,-6.8944,-6.8734,-6.7358,-6.5742,-6.4126,-6.3977,-6.3617,-6.3169,-6.3139,-6.3139,-6.3258,-6.3737,-6.4036,-6.4425,-6.5353,-6.5951,-6.5951,-6.5922,-6.5473,-6.4874,-6.4336,-6.43,-6.5024,-6.6098,-6.7753,-6.8827,-7.0524,-7.1278,-7.1582,-7.2394,-7.4458,-7.6555,-7.6657,-7.7976,-7.8991,-7.9464,-7.9532,-7.8889,-7.8891,-7.8553,-7.8213,-7.872,-7.9397,-7.9972,-8.0412,-8.1021,-8.2272,-8.2441,-8.2272,-8.1524,-8.1797,-8.2069,-8.2033,-8.2743,-8.3558,-8.4133,-8.4539,-8.4979,-8.5384,-8.5114,-8.4742,-8.4708,-8.4742,-8.4809,-8.4843,-8.4708,-8.5377,-8.68,-8.7952,-8.9399,-9.1061,-9.2156,-9.3528,-9.359,-9.3639,-9.3125,-9.2648,-9.2244,-9.151,-9.074,-9.0445,-9.0445,-9.0372,-9.0117,-8.9822,-9.0557,-9.0702,-9.0739,-9.0996,-9.0629,-9.0702,-9.1216,-9.1546,-9.1693,-9.1767,-9.1693,-9.14,-9.1033,-9.0592,-9.0005,-8.9491,-8.8793,-8.8206,-8.7802,-8.7399,-8.7178,-8.7105,-8.7545,-8.7766,-8.7472,-8.7729,-8.8793,-8.9889,-9.095,-9.1745,-6.9004,-6.8974,-6.8854,-6.7687,-6.5802,-6.5413,-6.4635,-6.3737,-6.3647,-6.3647,-6.3677,-6.4363,-6.4903,-6.5353,-6.6071,-6.661,-6.661,-6.661,-6.5922,-6.5263,-6.4755,-6.4333,-6.4911,-6.6035,-6.7459,-6.8478,-7.0041,-7.1312,-7.1379,-7.1684,-7.2428,-7.3849,-7.4965,-7.6521,-7.7739,-7.8722,-7.9026,-7.9056,-7.8986,-7.8676,-7.8213,-7.8179,-7.8551,-7.8788,-7.9938,-8.0344,-8.1021,-8.1494,-8.1426,-8.1393,-8.119,-8.1257,-8.1459,-8.2441,-8.3287,-8.3964,-8.4437,-8.4979,-8.5452,-8.508,-8.464,-8.4742,-8.5046,-8.5283,-8.5327,-8.539,-8.6817,-8.8161,-8.9237,-9.0552,-9.3361,-9.4567,-9.5204,-9.4664,-9.4116,-9.3602,-9.3015,-9.2537,-9.2024,-9.1216,-9.1143,-9.1179,-9.1106,-9.096,-9.074,-9.0665,-9.0665,-9.0739,-9.1069,-9.1253,-9.1216,-9.1289,-9.1583,-9.1583,-9.162,-9.1326,-9.0959,-9.0519,-9.0115,-8.9491,-8.8867,-8.8647,-8.8096,-8.7692,-8.7399,-8.7288,-8.7325,-8.7619,-8.7729,-8.7692,-8.8426,-8.9454,-9.0585,-9.1495,-9.1782,-6.9641,-6.9763,-7.0924,-6.9728,-6.7421,-6.6789,-6.5832,-6.4755,-6.4635,-6.4455,-6.4366,-6.4964,-6.5473,-6.6071,-6.64,-6.664,-6.649,-6.6281,-6.5622,-6.5231,-6.4925,-6.4593,-6.4983,-6.6196,-6.8076,-6.8435,-6.9873,-7.1312,-7.1312,-7.1312,-7.1785,-7.2597,-7.3578,-7.4796,-7.6357,-7.7579,-7.8421,-7.8514,-7.8638,-7.836,-7.7803,-7.7671,-7.7908,-7.8077,-7.8991,-7.9566,-8.004,-8.0547,-8.0885,-8.0885,-8.0885,-8.0885,-8.146,-8.2272,-8.3219,-8.3964,-8.4573,-8.4911,-8.5114,-8.5012,-8.4606,-8.4708,-8.5479,-8.582,-8.6059,-8.6371,-8.7736,-8.9714,-9.0731,-9.2302,-9.5028,-9.5618,-9.5981,-9.5511,-9.4666,-9.4042,-9.3308,-9.2721,-9.2244,-9.1693,-9.1583,-9.1179,-9.1106,-9.0959,-9.1106,-9.0996,-9.1216,-9.1253,-9.14,-9.151,-9.1436,-9.1546,-9.173,-9.162,-9.1436,-9.1033,-9.0519,-8.9528,-8.9087,-8.8647,-8.8169,-8.8023,-8.7839,-8.7399,-8.7252,-8.7325,-8.7472,-8.7655,-8.7912,-8.8133,-8.8867,-8.9564,-8.9858,-9.0585,-9.0698,-7.1012,-7.1456,-7.332,-7.1846,-6.8451,-6.8051,-6.7394,-6.6492,-6.6222,-6.5981,-6.5648,-6.6042,-6.6132,-6.6252,-6.6403,-6.6342,-6.6252,-6.5712,-6.5169,-6.5207,-6.5822,-6.5617,-6.6215,-6.7459,-6.8719,-6.9444,-7.0558,-7.1312,-7.1312,-7.1312,-7.1413,-7.1413,-7.209,-7.2969,-7.4634,-7.6138,-7.6909,-7.7063,-7.7652,-7.7284,-7.6922,-7.6724,-7.7029,-7.7367,-7.7976,-7.8483,-7.916,-7.9837,-8.0242,-8.0581,-8.0953,-8.119,-8.1562,-8.2577,-8.3253,-8.3456,-8.4167,-8.4539,-8.4674,-8.4606,-8.489,-8.5274,-8.6359,-8.6755,-8.6838,-8.7501,-8.8612,-9.0358,-9.1308,-9.2573,-9.4358,-9.5584,-9.6061,-9.5878,-9.496,-9.4336,-9.3565,-9.2905,-9.2464,-9.173,-9.1143,-9.0702,-9.0702,-9.0776,-9.1143,-9.1363,-9.1657,-9.1767,-9.173,-9.1693,-9.1546,-9.1326,-9.14,-9.1069,-9.0812,-9.0592,-9.0005,-8.894,-8.8169,-8.7839,-8.7582,-8.7435,-8.7215,-8.7031,-8.7068,-8.7178,-8.7399,-8.7582,-8.7839,-8.8096,-8.8647,-8.9197,-8.9454,-8.9784,-9.0152,-7.0863,-7.1374,-7.2524,-7.2439,-7.1581,-7.2167,-7.1572,-7.036,-6.9463,-6.9123,-6.9108,-6.862,-6.7817,-6.7535,-6.6943,-6.6759,-6.6698,-6.6637,-6.6252,-6.6823,-6.7237,-6.6986,-6.7324,-6.8206,-6.923,-6.9635,-7.0558,-7.1312,-7.1312,-7.1312,-7.1312,-7.1312,-7.1413,-7.2259,-7.3654,-7.495,-7.5523,-7.5946,-7.5899,-7.562,-7.5405,-7.5473,-7.5642,-7.598,-7.6826,-7.7671,-7.8382,-7.9126,-7.9938,-8.0682,-8.1224,-8.1629,-8.1934,-8.2847,-8.2847,-8.2983,-8.3524,-8.4133,-8.4687,-8.524,-8.6217,-8.6873,-8.762,-8.8135,-8.8474,-8.8679,-8.9606,-9.0527,-9.1433,-9.2539,-9.345,-9.4921,-9.5511,-9.518,-9.452,-9.4263,-9.3675,-9.3161,-9.2611,-9.1657,-9.0922,-9.1069,-9.1106,-9.0665,-9.0812,-9.0959,-9.1143,-9.1546,-9.162,-9.1657,-9.1546,-9.1033,-9.0812,-9.0445,-9.0152,-9.0005,-8.9601,-8.8647,-8.7876,-8.7325,-8.7105,-8.7031,-8.7031,-8.7031,-8.7031,-8.7031,-8.7178,-8.7362,-8.7692,-8.8059,-8.8647,-8.8904,-8.9014,-8.9528,-9.0152,-7.1243,-7.1765,-7.2607,-7.3364,-7.3705,-7.3706,-7.3212,-7.2397,-7.1331,-7.091,-7.0812,-7.0002,-6.9221,-6.8453,-6.7793,-6.7449,-6.7418,-6.7245,-6.7197,-6.79,-6.8382,-6.8198,-6.8372,-6.9211,-7.0021,-7.0243,-7.0659,-7.1312,-7.1312,-7.1312,-7.1312,-7.1312,-7.1312,-7.1819,-7.28,-7.3418,-7.4161,-7.4593,-7.4755,-7.4856,-7.483,-7.4931,-7.5134,-7.5506,-7.6217,-7.7164,-7.7807,-7.8754,-7.9904,-8.0818,-8.1629,-8.2171,-8.2644,-8.278,-8.2915,-8.3253,-8.3592,-8.4344,-8.531,-8.5786,-8.6769,-8.7896,-8.9059,-8.9538,-8.9749,-9.0049,-9.0501,-9.1168,-9.1611,-9.2259,-9.3159,-9.463,-9.5144,-9.485,-9.4556,-9.4299,-9.3896,-9.3382,-9.2207,-9.1326,-9.0776,-9.1069,-9.1106,-9.0812,-9.0445,-9.0519,-9.0592,-9.0922,-9.1253,-9.1289,-9.1216,-9.0776,-9.0555,-9.0445,-9.0005,-8.9564,-8.905,-8.8316,-8.7692,-8.7068,-8.7031,-8.7031,-8.7031,-8.6995,-8.6921,-8.6885,-8.6885,-8.7031,-8.7031,-8.7692,-8.872,-8.883,-8.8683,-8.9014,-8.9528,-7.2211,-7.2505,-7.3857,-7.4371,-7.4321,-7.3063,-7.2472,-7.2458,-7.1903,-7.1278,-7.0588,-7.0662,-6.9977,-6.9134,-6.8508,-6.822,-6.8156,-6.7715,-6.776,-6.8036,-6.9124,-6.9123,-6.9703,-7.0456,-7.0781,-7.103,-7.1312,-7.1312,-7.1312,-7.1312,-7.1312,-7.1312,-7.1312,-7.1515,-7.1819,-7.2282,-7.2993,-7.3544,-7.3722,-7.3925,-7.4289,-7.4897,-7.51,-7.5473,-7.6149,-7.6758,-7.757,-7.872,-7.9837,-8.0987,-8.2205,-8.305,-8.3524,-8.3524,-8.3964,-8.4268,-8.4403,-8.4966,-8.5684,-8.6053,-8.6769,-8.7769,-8.8999,-8.963,-9.0195,-9.0697,-9.1352,-9.1687,-9.2094,-9.2571,-9.3308,-9.4336,-9.5327,-9.5034,-9.4777,-9.4446,-9.4042,-9.3161,-9.1803,-9.0922,-9.0408,-9.0262,-9.0005,-8.9784,-8.9711,-8.9491,-8.9417,-8.9417,-8.9821,-9.0482,-9.0408,-9.0372,-9.0262,-9.0519,-8.9931,-8.8647,-8.8426,-8.7692,-8.7472,-8.7031,-8.7031,-8.6958,-8.6848,-8.6775,-8.6738,-8.6591,-8.6187,-8.604,-8.604,-8.6921,-8.7876,-8.8096,-8.7766,-8.7876,-8.8059,-6.9977,-7.0951,-7.135,-7.2362,-7.3628,-7.3298,-7.374,-7.4606,-7.4003,-7.3474,-7.3338,-7.2229,-7.1037,-6.9975,-6.9222,-6.8993,-6.883,-6.8928,-6.9508,-6.9855,-7.017,-7.0549,-7.0767,-7.1041,-7.1312,-7.1312,-7.1312,-7.1312,-7.1312,-7.1312,-7.1312,-7.1312,-7.1312,-7.1312,-7.1379,-7.1481,-7.209,-7.2563,-7.2708,-7.3215,-7.3781,-7.4289,-7.4627,-7.5134,-7.5845,-7.6386,-7.7266,-7.8686,-7.987,-8.1156,-8.2577,-8.3625,-8.4302,-8.3828,-8.3693,-8.3761,-8.3862,-8.4174,-8.5138,-8.5953,-8.6477,-8.7056,-8.8043,-8.9135,-9.0006,-9.0793,-9.1509,-9.1729,-9.2024,-9.2427,-9.3015,-9.3969,-9.4777,-9.485,-9.4666,-9.452,-9.4042,-9.2941,-9.1583,-9.0262,-8.9748,-8.9307,-8.905,-8.8977,-8.8867,-8.85,-8.8206,-8.8059,-8.8243,-8.8904,-8.9344,-8.9271,-8.894,-8.894,-8.8059,-8.6811,-8.7068,-8.7105,-8.7031,-8.7031,-8.7031,-8.6921,-8.6701,-8.6297,-8.582,-8.5453,-8.5159,-8.4976,-8.4719,-8.5563,-8.6444,-8.6701,-8.6921,-8.7142,-8.6921,-6.8318,-6.9123,-6.9616,-7.0942,-7.2472,-7.2631,-7.3206,-7.3857,-7.408,-7.404,-7.3646,-7.2779,-7.1715,-7.0737,-7.0276,-7.0076,-7.011,-7.0076,-7.0482,-7.0791,-7.1312,-7.1222,-7.1312,-7.1312,-7.1312,-7.1312,-7.1312,-7.1312,-7.1345,-7.1312,-7.1312,-7.1312,-7.1312,-7.1312,-7.1312,-7.1379,-7.1548,-7.1954,-7.2235,-7.2732,-7.3274,-7.3916,-7.4492,-7.4728,-7.5506,-7.6352,-7.7096,-7.8653,-8.031,-8.146,-8.2847,-8.4065,-8.4674,-8.4403,-8.4133,-8.4268,-8.4471,-8.4742,-8.5332,-8.5411,-8.5686,-8.5987,-8.6803,-8.7677,-8.8754,-8.9724,-9.0443,-9.1057,-9.1545,-9.206,-9.2794,-9.3529,-9.4006,-9.4483,-9.452,-9.4593,-9.3712,-9.2721,-9.1289,-8.9784,-8.9014,-8.8536,-8.828,-8.8206,-8.7692,-8.6811,-8.6334,-8.6224,-8.6481,-8.7031,-8.7619,-8.7876,-8.7325,-8.6885,-8.6004,-8.5673,-8.6261,-8.6775,-8.7031,-8.7031,-8.7031,-8.6811,-8.6554,-8.5637,-8.4609,-8.4315,-8.4095,-8.3544,-8.3361,-8.4315,-8.5049,-8.527,-8.593,-8.6811,-8.6261,-6.6887,-6.7196,-6.8503,-6.9827,-7.1007,-7.1108,-7.1266,-7.1447,-7.28,-7.2935,-7.236,-7.2338,-7.1842,-7.1175,-7.1007,-7.1007,-7.1007,-7.1007,-7.1007,-7.1312,-7.1312,-7.1312,-7.1312,-7.1312,-7.1312,-7.1312,-7.1447,-7.165,-7.1447,-7.1379,-7.1312,-7.1312,-7.1312,-7.1312,-7.1312,-7.1312,-7.1515,-7.1853,-7.2438,-7.3046,-7.3544,-7.4424,-7.5303,-7.4965,-7.5777,-7.6826,-7.7604,-7.916,-8.1224,-8.1968,-8.3118,-8.4437,-8.4776,-8.5215,-8.508,-8.508,-8.5182,-8.5384,-8.5351,-8.5192,-8.4887,-8.5066,-8.5617,-8.6152,-8.7116,-8.8754,-8.9641,-9.0364,-9.0943,-9.1728,-9.2536,-9.3234,-9.3822,-9.4153,-9.4299,-9.4116,-9.3418,-9.2134,-9.0408,-8.9087,-8.8353,-8.7839,-8.7252,-8.7142,-8.7142,-8.5637,-8.4939,-8.4939,-8.4792,-8.5306,-8.5527,-8.604,-8.549,-8.5013,-8.5049,-8.4939,-8.5783,-8.6297,-8.6628,-8.6775,-8.6591,-8.6481,-8.6371,-8.527,-8.4095,-8.3434,-8.2994,-8.2663,-8.2627,-8.3177,-8.3765,-8.3948,-8.4682,-8.582,-8.5343,-6.4734,-6.5728,-6.7061,-6.8503,-6.9633,-6.9727,-7.0356,-7.1345,-7.165,-7.1751,-7.1582,-7.1548,-7.1481,-7.1345,-7.1312,-7.1312,-7.1312,-7.1312,-7.1312,-7.1312,-7.1312,-7.1312,-7.1312,-7.1312,-7.1312,-7.1515,-7.1785,-7.1988,-7.1819,-7.1548,-7.1312,-7.1312,-7.1312,-7.1312,-7.1312,-7.1312,-7.1515,-7.1887,-7.2293,-7.2641,-7.2834,-7.3443,-7.4086,-7.4627,-7.5608,-7.6386,-7.7401,-7.9092,-8.0513,-8.1494,-8.349,-8.4403,-8.464,-8.5384,-8.5655,-8.5621,-8.579,-8.596,-8.5757,-8.5317,-8.4877,-8.4708,-8.4958,-8.4995,-8.5786,-8.762,-8.8841,-8.9558,-9.0473,-9.1421,-9.2203,-9.2903,-9.3492,-9.3749,-9.4006,-9.3565,-9.3051,-9.1289,-8.9528,-8.8647,-8.7839,-8.7215,-8.6591,-8.6187,-8.6151,-8.5673,-8.4976,-8.4499,-8.3654,-8.3654,-8.3251,-8.3508,-8.3324,-8.3104,-8.3471,-8.4022,-8.4756,-8.5416,-8.5783,-8.5967,-8.6151,-8.5527,-8.4976,-8.4499,-8.3728,-8.2994,-8.248,-8.226,-8.2333,-8.2663,-8.292,-8.3287,-8.3618,-8.4535,-8.3875,-6.3478,-6.4401,-6.5759,-6.7061,-6.8206,-6.8306,-6.9121,-7.0196,-7.032,-7.0726,-7.1278,-7.1312,-7.1312,-7.1312,-7.1312,-7.1312,-7.1312,-7.1312,-7.1312,-7.1312,-7.1379,-7.1312,-7.1312,-7.1345,-7.1312,-7.1481,-7.1684,-7.1853,-7.1954,-7.165,-7.1312,-7.1312,-7.1312,-7.1312,-7.1312,-7.1345,-7.1515,-7.1853,-7.1954,-7.1954,-7.209,-7.2868,-7.3815,-7.4593,-7.5303,-7.6082,-7.7333,-7.8923,-8.0073,-8.1257,-8.2915,-8.4167,-8.4776,-8.5723,-8.623,-8.6399,-8.6569,-8.6771,-8.6399,-8.5858,-8.5283,-8.5283,-8.4776,-8.4887,-8.5158,-8.6662,-8.6716,-8.7523,-8.9688,-9.0776,-9.1417,-9.2122,-9.2573,-9.2905,-9.3088,-9.2941,-9.184,-9.0262,-8.9124,-8.8463,-8.7876,-8.7545,-8.6738,-8.56,-8.538,-8.4499,-8.3985,-8.3581,-8.2847,-8.2296,-8.1782,-8.1415,-8.1525,-8.1929,-8.2553,-8.3067,-8.3544,-8.4205,-8.4829,-8.571,-8.604,-8.4535,-8.3544,-8.3618,-8.3324,-8.2517,-8.2076,-8.1819,-8.2003,-8.237,-8.259,-8.281,-8.3067,-8.3177,-8.27,-6.3079,-6.3279,-6.4401,-6.5652,-6.6887,-6.6958,-6.7673,-6.886,-6.9169,-6.9917,-7.094,-7.1222,-7.1312,-7.1312,-7.1312,-7.1312,-7.1312,-7.1312,-7.1312,-7.1515,-7.1548,-7.1616,-7.1582,-7.1481,-7.1515,-7.1447,-7.1515,-7.1616,-7.1718,-7.1447,-7.1312,-7.1312,-7.1312,-7.1312,-7.1312,-7.1312,-7.1413,-7.1447,-7.1481,-7.1379,-7.1887,-7.2597,-7.351,-7.439,-7.5168,-7.5946,-7.713,-7.8416,-7.9667,-8.0682,-8.1832,-8.3081,-8.4263,-8.5243,-8.6129,-8.6467,-8.7042,-8.7313,-8.7313,-8.6501,-8.6332,-8.6129,-8.5249,-8.4877,-8.508,-8.4822,-8.4898,-8.5645,-8.7816,-8.9472,-9.0168,-9.1012,-9.1395,-9.2024,-9.217,-9.195,-9.0519,-8.9271,-8.8647,-8.8023,-8.7619,-8.7325,-8.6297,-8.5159,-8.4389,-8.3471,-8.2884,-8.237,-8.1893,-8.1525,-8.1085,-8.0681,-8.0534,-8.1048,-8.1305,-8.2076,-8.248,-8.292,-8.3654,-8.5123,-8.582,-8.4315,-8.3434,-8.3471,-8.303,-8.1929,-8.1562,-8.1379,-8.1672,-8.1856,-8.1966,-8.2003,-8.1966,-8.2003,-8.1819,-6.3079,-6.3079,-6.3394,-6.432,-6.5436,-6.5544,-6.6259,-6.7645,-6.8672,-6.9361,-6.9843,-7.0882,-7.1312,-7.1312,-7.1312,-7.1312,-7.1312,-7.1379,-7.1785,-7.2124,-7.2022,-7.2124,-7.2022,-7.1842,-7.2135,-7.1965,-7.1638,-7.165,-7.165,-7.1447,-7.1312,-7.1312,-7.1312,-7.1312,-7.1312,-7.1312,-7.1312,-7.1312,-7.1312,-7.1312,-7.1515,-7.2191,-7.2902,-7.368,-7.4424,-7.5168,-7.6183,-7.7536,-7.8179,-7.9058,-8.0412,-8.1898,-8.3009,-8.4196,-8.5114,-8.5824,-8.6467,-8.7008,-8.6805,-8.6602,-8.6501,-8.6163,-8.5283,-8.4573,-8.42,-8.3118,-8.299,-8.2512,-8.4495,-8.6699,-8.7741,-8.9119,-8.9811,-9.0887,-9.1363,-9.0262,-8.8977,-8.8316,-8.7729,-8.6995,-8.6297,-8.5673,-8.4756,-8.4058,-8.3948,-8.3251,-8.2994,-8.2406,-8.1122,-8.0718,-8.0534,-8.0241,-7.9947,-7.8846,-7.8589,-8.0718,-8.1489,-8.1819,-8.2517,-8.4022,-8.4609,-8.3985,-8.3434,-8.3361,-8.2296,-8.1012,-8.0828,-8.1085,-8.0755,-8.0865,-8.1085,-8.1158,-8.1122,-8.1158,-8.1195]}]]